[[{"header":{"parameterUnit":"m.s-1","parameterCategory":1,"la1":31.0,"la2":29.5877,"lo1":-88.7671,"lo2":-86.6584,"dx":0.0162,"dy":0.0185,"nx":115,"ny":88,"refTime":"2022-12-16T06:00:00:Z","depth":0,"parameterNumber":2,"parameterNumberName":"U-component_of_WINDS"},"data":[0.0,0.0,0.0,0.0,0.0,0.0,0.0,0.0,0.0,0.0,0.0,0.0,0.0,0.0,0.0,0.0,0.0,0.0,0.0,0.0,0.0,0.0,0.0,0.0,0.0,0.0,0.0,0.0,0.0,0.0,0.0,0.0,0.0,0.0,0.0,0.0,0.0,0.0,0.0,0.0,0.0,0.0,0.0,0.0,0.0,0.0,0.0,0.0,0.0,0.0,0.0,0.0,0.0,0.0,0.0,0.0,0.0,0.0,0.0,0.0,0.0,0.0,0.0,0.0,0.0,0.0,0.0,0.0,0.0,0.0,0.0,0.0,0.0,0.0,0.0,0.0,0.0,0.0,0.0,0.0,0.0,0.0,0.0,0.0,0.0,0.0,0.0,0.0,0.0,0.0,0.0,0.0,0.0,0.0,0.0,0.0,0.0,0.0,0.0,0.0,0.0,0.0,0.0,0.0,0.0,0.0,0.0,0.0,0.0,0.0,0.0,0.0,0.0,0.0,0.0,0.0,0.0,0.0,0.0,0.0,0.0,0.0,0.0,0.0,0.0,0.0,0.0,0.0,0.0,0.0,0.0,0.0,0.0,0.0,0.0,0.0,0.0,0.0,0.0,0.0,0.0,0.0,0.0,0.0,0.0,0.0,0.0,0.0,0.0,0.0,0.0,0.0,0.0,0.0,0.0,0.0,0.0,0.0,0.0,0.0,0.0,0.0,0.0,0.0,0.0,0.0,0.0,0.0,0.0,0.0,0.0,0.0,0.0,0.0,0.0,0.0,0.0,0.0,0.0,0.0,0.0,0.0,0.0,0.0,0.0,0.0,0.0,0.0,0.0,0.0,0.0,0.0,0.0,0.0,0.0,0.0,0.0,0.0,0.0,0.0,0.0,0.0,0.0,0.0,0.0,0.0,0.0,0.0,0.0,0.0,0.0,0.0,0.0,0.0,0.0,0.0,0.0,0.0,0.0,0.0,0.0,0.0,0.0,0.0,0.0,0.0,0.0,0.0,0.0,0.0,0.0,0.0,0.0,0.0,0.0,0.0,0.0,0.0,0.0,0.0,0.0,0.0,0.0,0.0,0.0,0.0,0.0,0.0,0.0,0.0,0.0,0.0,0.0,0.0,0.0,0.0,0.0,0.0,0.0,0.0,0.0,0.0,0.0,0.0,0.0,0.0,0.0,0.0,0.0,0.0,0.0,0.0,0.0,0.0,0.0,0.0,0.0,0.0,0.0,0.0,0.0,0.0,0.0,0.0,0.0,0.0,0.0,0.0,0.0,0.0,0.0,0.0,0.0,0.0,0.0,0.0,0.0,0.0,0.0,0.0,0.0,0.0,0.0,0.0,0.0,0.0,0.0,0.0,0.0,0.0,0.0,0.0,0.0,0.0,0.0,0.0,0.0,0.0,0.0,0.0,0.0,0.0,0.0,0.0,0.0,0.0,0.0,0.0,0.0,0.0,0.0,0.0,0.0,0.0,0.0,0.0,0.0,0.0,0.0,0.0,0.0,0.0,0.0,0.0,0.0,0.0,0.0,0.0,0.0,0.0,0.0,0.0,0.0,0.0,0.0,0.0,0.0,0.0,0.0,0.0,0.0,0.0,0.0,0.0,0.0,0.0,0.0,0.0,0.0,0.0,0.0,0.0,0.0,0.0,0.0,0.0,0.0,0.0,0.0,0.0,0.0,0.0,0.0,0.0,0.0,0.0,0.0,0.0,0.0,0.0,0.0,0.0,0.0,0.0,0.0,0.0,0.0,0.0,0.0,0.0,0.0,0.0,0.0,0.0,0.0,0.0,0.0,0.0,0.0,0.0,0.0,0.0,0.0,0.0,0.0,0.0,0.0,0.0,0.0,0.0,0.0,0.0,0.0,0.0,0.0,0.0,0.0,0.0,0.0,0.0,0.0,0.0,0.0,0.0,0.0,0.0,0.0,0.0,0.0,0.0,0.0,0.0,0.0,0.0,0.0,0.0,0.0,0.0,0.0,0.0,0.0,0.0,0.0,0.0,0.0,0.0,0.0,0.0,0.0,0.0,0.0,0.0,0.0,0.0,0.0,0.0,0.0,0.0,0.0,0.0,0.0,0.0,0.0,0.0,0.0,0.0,0.0,0.0,0.0,0.0,0.0,0.0,0.0,0.0,0.0,0.0,0.0,0.0,0.0,0.0,0.0,0.0,0.0,0.0,0.0,0.0,0.0,0.0,0.0,0.0,0.0,0.0,0.0,0.0,0.0,0.0,0.0,0.0,0.0,0.0,0.0,0.0,0.0,0.0,0.0,0.0,0.0,0.0,0.0,0.0,0.0,0.0,0.0,0.0,0.0,0.0,0.0,0.0,0.0,0.0,0.0,0.0,0.0,0.0,0.0,0.0,0.0,0.0,0.0,0.0,0.0,0.0,0.0,0.0,0.0,0.0,0.0,0.0,0.0,0.0,0.0,0.0,0.0,0.0,0.0,0.0,0.0,0.0,0.0,0.0,0.0,0.0,0.0,0.0,0.0,0.0,0.0,0.0,0.0,0.0,0.0,0.0,0.0,0.0,0.0,0.0,0.0,0.0,0.0,0.0,0.0,0.0,0.0,0.0,0.0,0.0,0.0,0.0,0.0,0.0,0.0,0.0,0.0,0.0,0.0,0.0,0.0,0.0,0.0,0.0,0.0,0.0,0.0,0.0,0.0,0.0,0.0,0.0,0.0,0.0,0.0,0.0,0.0,0.0,0.0,0.0,0.0,0.0,0.0,0.0,0.0,0.0,0.0,0.0,0.0,0.0,0.0,0.0,0.0,0.0,0.0,0.0,0.0,0.0,0.0,0.0,0.0,0.0,0.0,0.0,0.0,0.0,0.0,0.0,0.0,0.0,0.0,0.0,0.0,0.0,0.0,0.0,0.0,0.0,0.0,0.0,0.0,0.0,0.0,0.0,0.0,0.0,0.0,0.0,0.0,0.0,0.0,0.0,0.0,0.0,0.0,0.0,0.0,0.0,0.0,0.0,0.0,0.0,0.0,0.0,0.0,0.0,0.0,0.0,0.0,0.0,0.0,0.0,0.0,0.0,0.0,0.0,0.0,0.0,0.0,0.0,0.0,0.0,0.0,0.0,0.0,0.0,0.0,0.0,0.0,0.0,0.0,0.0,0.0,0.0,0.0,0.0,0.0,0.0,0.0,0.0,0.0,0.0,0.0,0.0,0.0,0.0,0.0,0.0,0.0,0.0,0.0,0.0,0.0,0.0,0.0,0.0,0.0,0.0,0.0,0.0,0.0,0.0,0.0,0.0,0.0,0.0,0.0,0.0,0.0,0.0,0.0,0.0,0.0,0.0,0.0,0.0,0.0,0.0,0.0,0.0,0.0,0.0,0.0,0.0,0.0,0.0,0.0,0.0,0.0,0.0,0.0,0.0,0.0,0.0,0.0,0.0,0.0,0.0,0.0,0.0,0.0,0.0,0.0,0.0,0.0,0.0,0.0,0.0,0.0,0.0,0.0,0.0,0.0,0.0,0.0,0.0,0.0,0.0,0.0,0.0,0.0,0.0,0.0,0.0,0.0,0.0,0.0,0.0,0.0,0.0,0.0,0.0,0.0,0.0,0.0,0.0,0.0,0.0,0.0,0.0,0.0,0.0,0.0,0.0,0.0,0.0,0.0,0.0,0.0,0.0,0.0,0.0,0.0,0.0,0.0,0.0,0.0,0.0,0.0,0.0,0.0,0.0,0.0,0.0,0.0,0.0,0.0,0.0,0.0,0.0,0.0,0.0,0.0,0.0,0.0,0.0,0.0,0.0,0.0,0.0,0.0,0.0,0.0,0.0,0.0,0.0,0.0,0.0,0.0,0.0,0.0,0.0,0.0,0.0,0.0,0.0,0.0,0.0,0.0,0.0,0.0,0.0,0.0,0.0,0.0,0.0,0.0,0.0,0.0,0.0,0.0,0.0,0.0,0.0,0.0,0.0,0.0,0.0,0.0,0.0,0.0,0.0,0.0,0.0,0.0,0.0,0.0,0.0,0.0,0.0,0.0,0.0,0.0,0.0,0.0,0.0,0.0,0.0,0.0,0.0,0.0,0.0,0.0,0.0,0.0,0.0,0.0,0.0,0.0,0.0,0.0,0.0,0.0,0.0,0.0,0.0,0.0,0.0,0.0,0.0,0.0,0.0,0.0,0.0,0.0,0.0,0.0,0.0,0.0,0.0,0.0,0.0,0.0,0.0,0.0,0.0,0.0,0.0,0.0,0.0,0.0,0.0,0.0,0.0,0.0,0.0,3.08,0.0,0.0,0.0,2.9021,0.0,0.0,0.0,0.0,0.0,0.0,0.0,0.0,0.0,0.0,0.0,0.0,0.0,0.0,0.0,0.0,0.0,0.0,0.0,0.0,0.0,0.0,0.0,0.0,0.0,0.0,0.0,0.0,0.0,0.0,0.0,0.0,0.0,0.0,0.0,0.0,0.0,0.0,0.0,0.0,0.0,0.0,0.0,0.0,0.0,0.0,0.0,0.0,0.0,0.0,0.0,0.0,0.0,0.0,0.0,0.0,0.0,0.0,0.0,0.0,0.0,0.0,0.0,0.0,0.0,0.0,0.0,0.0,0.0,0.0,0.0,0.0,0.0,0.0,0.0,0.0,0.0,0.0,0.0,0.0,0.0,0.0,0.0,0.0,0.0,0.0,0.0,0.0,0.0,0.0,0.0,0.0,0.0,0.0,0.0,0.0,0.0,0.0,0.0,0.0,0.0,0.0,0.0,0.0,0.0,0.0,0.0,0.0,0.0,0.0,3.1247,3.0876,3.0837,3.069,3.0317,0.0,0.0,0.0,0.0,0.0,0.0,0.0,0.0,0.0,0.0,0.0,0.0,0.0,0.0,0.0,0.0,0.0,0.0,0.0,0.0,0.0,0.0,0.0,0.0,0.0,0.0,0.0,0.0,0.0,0.0,0.0,0.0,0.0,0.0,0.0,0.0,0.0,0.0,0.0,0.0,0.0,0.0,0.0,0.0,0.0,0.0,0.0,0.0,0.0,0.0,0.0,0.0,0.0,0.0,0.0,0.0,0.0,0.0,0.0,0.0,0.0,0.0,0.0,0.0,0.0,0.0,0.0,0.0,0.0,0.0,0.0,0.0,0.0,0.0,0.0,0.0,0.0,0.0,0.0,0.0,0.0,0.0,0.0,0.0,0.0,0.0,0.0,0.0,0.0,0.0,0.0,0.0,0.0,0.0,0.0,0.0,0.0,0.0,0.0,0.0,0.0,0.0,0.0,0.0,0.0,0.0,0.0,0.0,0.0,0.0,0.0,0.0,3.1684,3.1574,3.1394,0.0,0.0,0.0,0.0,0.0,0.0,0.0,0.0,0.0,0.0,0.0,0.0,0.0,0.0,0.0,0.0,0.0,0.0,0.0,0.0,0.0,0.0,0.0,0.0,0.0,0.0,0.0,0.0,0.0,0.0,0.0,0.0,0.0,0.0,0.0,0.0,0.0,0.0,0.0,0.0,0.0,0.0,0.0,0.0,0.0,0.0,0.0,0.0,0.0,0.0,0.0,0.0,0.0,0.0,0.0,0.0,0.0,0.0,0.0,0.0,0.0,0.0,0.0,0.0,0.0,0.0,0.0,0.0,0.0,0.0,0.0,0.0,0.0,0.0,0.0,0.0,0.0,0.0,0.0,0.0,0.0,0.0,0.0,0.0,0.0,0.0,0.0,0.0,0.0,0.0,0.0,0.0,0.0,0.0,0.0,0.0,0.0,0.0,0.0,0.0,0.0,0.0,0.0,0.0,0.0,0.0,0.0,0.0,0.0,0.0,3.3256,3.2512,3.2512,0.0,3.143,0.0,0.0,0.0,0.0,0.0,0.0,0.0,0.0,0.0,0.0,0.0,0.0,0.0,0.0,0.0,0.0,0.0,0.0,0.0,0.0,0.0,0.0,0.0,0.0,0.0,0.0,0.0,0.0,0.0,0.0,0.0,0.0,0.0,0.0,0.0,0.0,0.0,0.0,0.0,0.0,0.0,0.0,0.0,0.0,0.0,0.0,0.0,0.0,0.0,0.0,0.0,0.0,0.0,0.0,0.0,0.0,0.0,0.0,0.0,0.0,0.0,0.0,0.0,0.0,0.0,0.0,0.0,0.0,0.0,0.0,0.0,0.0,0.0,0.0,0.0,0.0,0.0,0.0,0.0,0.0,0.0,0.0,0.0,0.0,0.0,0.0,0.0,0.0,0.0,0.0,0.0,0.0,0.0,0.0,0.0,0.0,0.0,0.0,0.0,0.0,0.0,0.0,0.0,0.0,0.0,0.0,0.0,0.0,0.0,0.0,3.4608,3.4794,3.4274,3.3647,0.0,0.0,0.0,0.0,0.0,0.0,0.0,0.0,0.0,0.0,0.0,0.0,0.0,0.0,0.0,0.0,0.0,0.0,0.0,0.0,0.0,0.0,0.0,0.0,0.0,0.0,0.0,0.0,0.0,0.0,0.0,0.0,0.0,0.0,0.0,0.0,0.0,0.0,0.0,0.0,0.0,0.0,0.0,0.0,0.0,0.0,0.0,0.0,0.0,0.0,0.0,0.0,0.0,0.0,0.0,0.0,0.0,0.0,0.0,0.0,0.0,0.0,0.0,0.0,0.0,0.0,0.0,0.0,0.0,0.0,0.0,0.0,0.0,0.0,0.0,0.0,0.0,0.0,0.0,0.0,0.0,0.0,0.0,0.0,0.0,0.0,0.0,0.0,0.0,0.0,0.0,0.0,0.0,0.0,0.0,0.0,0.0,0.0,0.0,0.0,0.0,0.0,0.0,0.0,0.0,0.0,0.0,0.0,0.0,0.0,3.5048,3.5675,3.6233,3.5445,3.4707,3.4171,0.0,0.0,0.0,0.0,0.0,0.0,0.0,0.0,0.0,0.0,0.0,0.0,0.0,0.0,0.0,0.0,0.0,0.0,0.0,0.0,0.0,0.0,0.0,0.0,0.0,0.0,0.0,0.0,0.0,0.0,0.0,0.0,0.0,0.0,0.0,0.0,0.0,0.0,0.0,0.0,0.0,0.0,0.0,0.0,0.0,0.0,0.0,0.0,0.0,0.0,0.0,0.0,0.0,0.0,0.0,0.0,0.0,0.0,0.0,0.0,0.0,0.0,0.0,0.0,0.0,0.0,0.0,0.0,0.0,0.0,0.0,0.0,0.0,0.0,0.0,0.0,0.0,0.0,0.0,0.0,0.0,0.0,0.0,0.0,0.0,0.0,0.0,0.0,0.0,0.0,0.0,0.0,0.0,0.0,0.0,0.0,0.0,0.0,0.0,0.0,0.0,0.0,0.0,0.0,0.0,0.0,0.0,0.0,3.616,3.6233,3.6266,3.631,3.5445,3.5001,0.0,0.0,0.0,0.0,0.0,0.0,0.0,0.0,0.0,0.0,0.0,0.0,0.0,0.0,0.0,0.0,0.0,0.0,0.0,0.0,0.0,0.0,0.0,0.0,0.0,0.0,0.0,0.0,0.0,0.0,0.0,0.0,0.0,0.0,0.0,0.0,0.0,0.0,0.0,0.0,0.0,0.0,0.0,0.0,0.0,0.0,0.0,0.0,0.0,0.0,0.0,0.0,0.0,0.0,0.0,0.0,0.0,0.0,0.0,0.0,0.0,0.0,0.0,0.0,0.0,0.0,0.0,0.0,0.0,0.0,0.0,0.0,0.0,0.0,0.0,0.0,0.0,0.0,0.0,0.0,0.0,0.0,0.0,0.0,0.0,0.0,0.0,0.0,0.0,0.0,0.0,0.0,0.0,0.0,0.0,0.0,0.0,0.0,0.0,0.0,0.0,0.0,0.0,0.0,0.0,0.0,0.0,0.0,0.0,3.7048,3.7591,3.7591,3.7085,3.6784,3.6112,0.0,0.0,0.0,0.0,0.0,0.0,0.0,0.0,0.0,0.0,0.0,0.0,0.0,0.0,0.0,0.0,0.0,0.0,0.0,0.0,0.0,0.0,0.0,0.0,0.0,0.0,0.0,0.0,0.0,0.0,0.0,0.0,0.0,0.0,0.0,0.0,0.0,0.0,0.0,0.0,0.0,0.0,0.0,0.0,0.0,0.0,0.0,0.0,0.0,0.0,0.0,0.0,0.0,0.0,0.0,0.0,0.0,0.0,0.0,0.0,0.0,0.0,0.0,0.0,0.0,0.0,0.0,0.0,0.0,0.0,0.0,0.0,0.0,0.0,0.0,0.0,0.0,0.0,0.0,0.0,0.0,0.0,0.0,0.0,0.0,0.0,0.0,0.0,0.0,0.0,0.0,0.0,0.0,0.0,0.0,0.0,0.0,0.0,0.0,0.0,0.0,0.0,0.0,0.0,0.0,0.0,0.0,0.0,0.0,3.8264,3.8542,3.8583,3.8304,3.7753,3.7081,0.0,0.0,0.0,0.0,0.0,0.0,0.0,0.0,0.0,0.0,0.0,0.0,0.0,0.0,0.0,0.0,0.0,0.0,0.0,0.0,0.0,0.0,0.0,0.0,0.0,0.0,0.0,0.0,0.0,0.0,0.0,0.0,0.0,0.0,0.0,0.0,0.0,0.0,0.0,0.0,0.0,0.0,0.0,0.0,0.0,0.0,0.0,0.0,0.0,0.0,0.0,0.0,0.0,0.0,0.0,0.0,0.0,0.0,0.0,0.0,0.0,0.0,0.0,0.0,0.0,0.0,0.0,0.0,0.0,0.0,0.0,0.0,0.0,0.0,0.0,0.0,0.0,0.0,0.0,0.0,0.0,0.0,0.0,0.0,0.0,0.0,0.0,0.0,0.0,0.0,0.0,0.0,0.0,0.0,0.0,0.0,0.0,0.0,0.0,0.0,0.0,0.0,0.0,0.0,0.0,0.0,0.0,0.0,3.9093,3.9835,3.9129,3.9162,3.9835,3.841,3.7925,0.0,0.0,0.0,0.0,0.0,0.0,0.0,0.0,0.0,0.0,0.0,0.0,0.0,0.0,0.0,0.0,0.0,0.0,0.0,0.0,0.0,0.0,0.0,0.0,0.0,0.0,0.0,0.0,0.0,0.0,0.0,0.0,0.0,0.0,0.0,0.0,0.0,0.0,0.0,0.0,0.0,0.0,0.0,0.0,0.0,0.0,0.0,0.0,0.0,0.0,0.0,0.0,0.0,0.0,0.0,0.0,0.0,0.0,0.0,0.0,0.0,0.0,0.0,0.0,0.0,0.0,0.0,0.0,0.0,0.0,0.0,0.0,0.0,0.0,0.0,0.0,0.0,0.0,0.0,0.0,0.0,0.0,0.0,0.0,0.0,0.0,0.0,0.0,0.0,0.0,0.0,0.0,0.0,0.0,0.0,0.0,0.0,0.0,0.0,0.0,0.0,0.0,0.0,0.0,0.0,0.0,0.0,0.0,0.0,4.07,4.0479,4.0479,4.07,4.0223,3.9603,0.0,0.0,0.0,0.0,0.0,0.0,0.0,0.0,0.0,0.0,0.0,0.0,0.0,0.0,0.0,0.0,0.0,0.0,0.0,0.0,0.0,0.0,0.0,0.0,0.0,0.0,0.0,0.0,0.0,0.0,0.0,0.0,0.0,0.0,0.0,0.0,0.0,0.0,0.0,0.0,0.0,0.0,0.0,0.0,0.0,0.0,0.0,0.0,0.0,0.0,0.0,0.0,0.0,0.0,0.0,0.0,0.0,0.0,0.0,0.0,0.0,0.0,0.0,0.0,0.0,0.0,0.0,0.0,0.0,0.0,0.0,0.0,0.0,0.0,0.0,0.0,0.0,0.0,0.0,0.0,0.0,0.0,0.0,0.0,0.0,0.0,0.0,0.0,0.0,0.0,0.0,0.0,0.0,0.0,0.0,0.0,0.0,0.0,0.0,0.0,0.0,0.0,0.0,0.0,0.0,0.0,0.0,0.0,0.0,4.4232,4.3383,4.3048,4.3333,4.3044,4.1984,4.0108,0.0,0.0,0.0,0.0,0.0,0.0,0.0,0.0,0.0,0.0,0.0,0.0,0.0,0.0,0.0,0.0,0.0,0.0,0.0,0.0,0.0,0.0,0.0,0.0,0.0,0.0,0.0,0.0,0.0,0.0,0.0,0.0,0.0,0.0,0.0,0.0,0.0,0.0,0.0,0.0,0.0,0.0,0.0,0.0,0.0,0.0,0.0,0.0,0.0,0.0,0.0,0.0,0.0,0.0,0.0,0.0,0.0,0.0,0.0,0.0,0.0,0.0,0.0,0.0,0.0,0.0,0.0,0.0,0.0,0.0,0.0,0.0,0.0,0.0,0.0,0.0,0.0,0.0,0.0,0.0,0.0,0.0,0.0,0.0,0.0,0.0,0.0,0.0,0.0,0.0,0.0,0.0,0.0,0.0,0.0,0.0,0.0,0.0,0.0,0.0,0.0,0.0,0.0,0.0,0.0,0.0,0.0,0.0,4.9936,4.7838,4.698,4.7411,4.6503,4.4924,0.0,0.0,0.0,0.0,0.0,0.0,0.0,0.0,0.0,0.0,0.0,0.0,0.0,0.0,0.0,0.0,0.0,0.0,0.0,0.0,0.0,0.0,0.0,0.0,0.0,0.0,0.0,0.0,0.0,0.0,0.0,0.0,0.0,0.0,0.0,0.0,0.0,0.0,0.0,0.0,0.0,0.0,0.0,0.0,0.0,0.0,0.0,0.0,0.0,0.0,0.0,0.0,0.0,0.0,0.0,0.0,0.0,0.0,0.0,0.0,0.0,0.0,0.0,0.0,0.0,0.0,0.0,0.0,0.0,0.0,0.0,0.0,0.0,0.0,0.0,0.0,0.0,0.0,0.0,0.0,0.0,0.0,0.0,0.0,0.0,0.0,0.0,0.0,0.0,0.0,0.0,0.0,0.0,0.0,0.0,0.0,0.0,0.0,0.0,0.0,0.0,0.0,0.0,0.0,0.0,0.0,0.0,0.0,0.0,5.3933,5.5726,5.5018,5.1709,4.9072,4.6967,0.0,0.0,0.0,0.0,0.0,0.0,0.0,0.0,0.0,0.0,0.0,0.0,0.0,0.0,0.0,0.0,0.0,0.0,0.0,0.0,0.0,0.0,0.0,0.0,0.0,0.0,0.0,0.0,0.0,0.0,0.0,0.0,0.0,0.0,0.0,0.0,0.0,0.0,0.0,0.0,0.0,0.0,0.0,0.0,0.0,0.0,0.0,0.0,0.0,0.0,0.0,0.0,0.0,0.0,0.0,0.0,0.0,0.0,0.0,0.0,0.0,0.0,0.0,0.0,0.0,0.0,0.0,0.0,0.0,0.0,0.0,0.0,0.0,0.0,0.0,0.0,0.0,0.0,0.0,0.0,0.0,0.0,0.0,0.0,0.0,0.0,0.0,0.0,0.0,0.0,0.0,0.0,0.0,0.0,0.0,0.0,0.0,0.0,0.0,0.0,0.0,0.0,0.0,0.0,0.0,0.0,0.0,0.0,5.3891,5.6576,6.0419,6.0994,5.7887,5.3316,4.9636,0.0,0.0,0.0,0.0,0.0,0.0,0.0,0.0,0.0,0.0,0.0,0.0,0.0,0.0,0.0,0.0,0.0,0.0,0.0,0.0,0.0,0.0,0.0,0.0,0.0,0.0,0.0,0.0,0.0,0.0,0.0,0.0,0.0,0.0,0.0,0.0,0.0,0.0,0.0,0.0,0.0,0.0,0.0,0.0,0.0,0.0,0.0,0.0,0.0,0.0,0.0,0.0,0.0,0.0,0.0,0.0,0.0,0.0,0.0,0.0,0.0,0.0,0.0,0.0,0.0,0.0,0.0,0.0,0.0,0.0,0.0,0.0,0.0,0.0,0.0,0.0,0.0,0.0,0.0,0.0,0.0,0.0,0.0,0.0,0.0,0.0,0.0,0.0,0.0,0.0,0.0,0.0,0.0,0.0,0.0,0.0,0.0,0.0,0.0,0.0,0.0,0.0,0.0,0.0,0.0,0.0,0.0,0.0,5.7244,5.8417,6.2904,6.4965,6.4064,5.7875,5.2475,0.0,0.0,0.0,0.0,0.0,0.0,0.0,0.0,0.0,0.0,0.0,0.0,0.0,0.0,0.0,0.0,0.0,0.0,0.0,0.0,0.0,0.0,0.0,0.0,0.0,0.0,0.0,0.0,0.0,0.0,0.0,0.0,0.0,0.0,0.0,0.0,0.0,0.0,0.0,0.0,0.0,0.0,0.0,0.0,0.0,0.0,0.0,0.0,0.0,0.0,0.0,0.0,0.0,0.0,0.0,0.0,0.0,0.0,0.0,0.0,0.0,0.0,0.0,0.0,0.0,0.0,0.0,0.0,0.0,0.0,0.0,0.0,0.0,0.0,0.0,0.0,0.0,0.0,0.0,0.0,0.0,0.0,0.0,0.0,0.0,0.0,0.0,0.0,0.0,0.0,0.0,0.0,0.0,0.0,0.0,0.0,0.0,0.0,0.0,0.0,0.0,0.0,0.0,0.0,0.0,0.0,0.0,0.0,5.762,6.094,6.3956,6.5174,6.4376,5.8165,5.364,0.0,0.0,0.0,0.0,0.0,0.0,0.0,0.0,0.0,0.0,0.0,0.0,0.0,0.0,0.0,0.0,0.0,0.0,0.0,0.0,0.0,0.0,0.0,0.0,0.0,0.0,0.0,0.0,0.0,0.0,0.0,0.0,0.0,0.0,0.0,0.0,0.0,0.0,0.0,0.0,0.0,0.0,0.0,0.0,0.0,0.0,0.0,0.0,4.3154,0.0,0.0,0.0,0.0,0.0,0.0,0.0,0.0,0.0,0.0,0.0,0.0,0.0,0.0,0.0,0.0,0.0,0.0,0.0,0.0,0.0,0.0,0.0,0.0,0.0,0.0,0.0,0.0,0.0,0.0,0.0,0.0,0.0,0.0,0.0,0.0,0.0,0.0,0.0,0.0,0.0,0.0,0.0,0.0,0.0,0.0,0.0,0.0,0.0,0.0,0.0,0.0,0.0,0.0,0.0,0.0,0.0,0.0,0.0,5.8111,6.2284,6.4858,6.5983,6.5441,6.0908,5.6346,0.0,0.0,0.0,0.0,0.0,0.0,0.0,0.0,0.0,0.0,0.0,0.0,0.0,0.0,0.0,0.0,0.0,0.0,0.0,0.0,0.0,0.0,0.0,0.0,0.0,0.0,0.0,0.0,0.0,0.0,0.0,0.0,0.0,0.0,0.0,0.0,0.0,0.0,0.0,0.0,0.0,0.0,0.0,0.0,0.0,0.0,0.0,0.0,0.0,0.0,0.0,0.0,0.0,0.0,0.0,0.0,0.0,0.0,0.0,0.0,0.0,0.0,0.0,0.0,0.0,0.0,0.0,0.0,0.0,0.0,0.0,0.0,0.0,0.0,0.0,0.0,0.0,0.0,0.0,0.0,0.0,0.0,0.0,0.0,0.0,0.0,0.0,0.0,0.0,0.0,0.0,0.0,0.0,0.0,0.0,0.0,0.0,0.0,0.0,0.0,0.0,0.0,0.0,0.0,0.0,0.0,0.0,5.4992,5.8828,6.3515,6.5614,6.6764,6.6844,6.3955,5.9266,5.2804,0.0,0.0,0.0,0.0,0.0,0.0,0.0,0.0,0.0,0.0,0.0,0.0,0.0,0.0,0.0,0.0,0.0,0.0,0.0,0.0,0.0,0.0,0.0,0.0,0.0,0.0,0.0,0.0,0.0,0.0,0.0,0.0,0.0,0.0,0.0,0.0,0.0,0.0,4.0617,4.0902,0.0,0.0,0.0,0.0,0.0,0.0,0.0,0.0,4.3959,0.0,0.0,0.0,0.0,0.0,0.0,0.0,0.0,0.0,0.0,0.0,0.0,0.0,0.0,0.0,0.0,0.0,0.0,0.0,0.0,0.0,0.0,0.0,0.0,0.0,0.0,0.0,0.0,0.0,0.0,0.0,0.0,0.0,0.0,0.0,0.0,0.0,0.0,0.0,0.0,0.0,0.0,0.0,0.0,0.0,0.0,0.0,0.0,0.0,0.0,0.0,0.0,0.0,0.0,0.0,0.0,5.5325,5.6674,6.0225,6.6075,6.6144,6.6355,6.6881,6.4034,6.0134,5.5178,0.0,0.0,0.0,0.0,0.0,0.0,0.0,0.0,0.0,0.0,0.0,0.0,0.0,0.0,0.0,0.0,0.0,0.0,0.0,0.0,0.0,0.0,0.0,0.0,0.0,0.0,0.0,0.0,0.0,0.0,0.0,0.0,0.0,0.0,0.0,0.0,0.0,0.0,0.0,4.3392,4.3381,0.0,0.0,0.0,0.0,0.0,0.0,0.0,0.0,4.6815,0.0,0.0,0.0,0.0,0.0,0.0,0.0,0.0,0.0,0.0,0.0,0.0,0.0,0.0,0.0,0.0,0.0,0.0,0.0,0.0,0.0,0.0,0.0,0.0,0.0,0.0,0.0,0.0,0.0,0.0,0.0,0.0,0.0,0.0,0.0,0.0,0.0,0.0,0.0,0.0,0.0,0.0,0.0,0.0,0.0,0.0,0.0,0.0,0.0,0.0,0.0,0.0,0.0,0.0,0.0,5.5669,5.825,6.1927,6.6744,6.6629,6.7034,6.8069,6.486,6.1082,0.0,0.0,0.0,0.0,0.0,0.0,0.0,0.0,0.0,0.0,0.0,0.0,0.0,0.0,0.0,0.0,0.0,0.0,0.0,0.0,0.0,0.0,0.0,0.0,0.0,0.0,0.0,0.0,0.0,0.0,0.0,0.0,0.0,0.0,0.0,0.0,0.0,0.0,0.0,0.0,4.6298,4.6537,5.0811,0.0,0.0,0.0,0.0,0.0,0.0,4.8774,4.7658,0.0,0.0,0.0,0.0,0.0,0.0,0.0,0.0,0.0,0.0,0.0,0.0,0.0,0.0,0.0,0.0,0.0,0.0,0.0,0.0,0.0,0.0,0.0,0.0,0.0,0.0,0.0,0.0,0.0,0.0,0.0,0.0,0.0,0.0,0.0,0.0,0.0,0.0,0.0,0.0,0.0,0.0,0.0,0.0,0.0,0.0,0.0,0.0,0.0,0.0,0.0,0.0,0.0,0.0,0.0,5.6202,6.0038,6.3841,6.7472,6.7551,6.8138,6.938,6.523,6.1427,0.0,0.0,0.0,0.0,0.0,0.0,0.0,0.0,0.0,0.0,0.0,0.0,0.0,0.0,0.0,0.0,0.0,0.0,0.0,0.0,0.0,0.0,0.0,0.0,0.0,0.0,0.0,0.0,0.0,0.0,0.0,0.0,0.0,0.0,0.0,0.0,0.0,0.0,0.0,0.0,0.0,4.9751,5.3574,5.2299,0.0,0.0,0.0,0.0,5.0092,4.992,0.0,0.0,0.0,0.0,0.0,0.0,0.0,0.0,0.0,0.0,0.0,0.0,0.0,0.0,0.0,0.0,0.0,0.0,0.0,0.0,0.0,0.0,0.0,0.0,0.0,0.0,0.0,0.0,0.0,0.0,0.0,0.0,0.0,0.0,0.0,0.0,0.0,0.0,0.0,0.0,0.0,0.0,0.0,0.0,0.0,0.0,0.0,0.0,0.0,0.0,0.0,0.0,0.0,0.0,0.0,0.0,5.8521,6.2349,6.6152,6.9749,6.938,6.9414,7.0163,6.3988,6.0082,0.0,0.0,0.0,0.0,0.0,0.0,0.0,0.0,0.0,0.0,0.0,0.0,0.0,0.0,0.0,0.0,0.0,0.0,0.0,0.0,0.0,0.0,0.0,0.0,0.0,0.0,0.0,0.0,0.0,0.0,0.0,0.0,0.0,0.0,0.0,0.0,0.0,0.0,0.0,0.0,0.0,5.1264,5.5196,5.4345,5.3093,0.0,0.0,5.5873,5.3872,5.481,0.0,0.0,0.0,0.0,0.0,0.0,0.0,0.0,0.0,0.0,0.0,0.0,0.0,0.0,0.0,0.0,0.0,0.0,0.0,0.0,0.0,0.0,0.0,0.0,0.0,0.0,0.0,0.0,0.0,0.0,0.0,0.0,0.0,0.0,0.0,0.0,0.0,0.0,0.0,0.0,0.0,0.0,0.0,0.0,0.0,0.0,0.0,0.0,0.0,0.0,0.0,0.0,0.0,0.0,0.0,5.5874,5.9064,6.492,6.8759,7.0301,7.0094,7.0266,7.0981,6.4402,6.0461,0.0,0.0,0.0,0.0,0.0,0.0,0.0,0.0,0.0,0.0,0.0,0.0,0.0,0.0,0.0,0.0,0.0,0.0,0.0,0.0,0.0,0.0,0.0,0.0,0.0,0.0,0.0,0.0,0.0,0.0,0.0,0.0,0.0,0.0,0.0,0.0,0.0,0.0,0.0,0.0,0.0,0.0,5.684,5.6542,0.0,0.0,0.0,5.7264,5.4675,0.0,0.0,0.0,0.0,0.0,0.0,0.0,0.0,0.0,0.0,0.0,0.0,0.0,0.0,0.0,0.0,0.0,0.0,0.0,0.0,0.0,0.0,0.0,0.0,0.0,0.0,0.0,0.0,0.0,0.0,0.0,0.0,0.0,0.0,0.0,0.0,0.0,0.0,0.0,0.0,0.0,0.0,0.0,0.0,0.0,0.0,0.0,0.0,0.0,0.0,0.0,0.0,0.0,0.0,0.0,0.0,0.0,5.997,6.7024,7.0853,7.1243,7.0853,7.1036,7.1681,6.592,0.0,0.0,0.0,0.0,0.0,0.0,0.0,0.0,0.0,0.0,0.0,0.0,0.0,0.0,0.0,0.0,0.0,0.0,0.0,0.0,0.0,0.0,0.0,0.0,0.0,0.0,0.0,3.5316,0.0,0.0,0.0,0.0,0.0,0.0,0.0,0.0,0.0,0.0,0.0,0.0,0.0,0.0,5.5078,5.8052,5.8538,5.9021,0.0,0.0,5.8393,5.6361,5.8946,5.9066,0.0,0.0,0.0,0.0,0.0,0.0,0.0,0.0,0.0,0.0,0.0,0.0,0.0,0.0,0.0,0.0,0.0,0.0,0.0,0.0,0.0,0.0,0.0,0.0,0.0,0.0,0.0,0.0,0.0,0.0,0.0,0.0,0.0,0.0,0.0,0.0,0.0,0.0,0.0,0.0,0.0,0.0,0.0,0.0,0.0,0.0,0.0,0.0,0.0,0.0,0.0,0.0,0.0,0.0,6.0021,6.2376,6.83,7.2129,7.344,7.2164,7.1784,7.2519,6.8714,6.4844,0.0,0.0,0.0,0.0,0.0,0.0,0.0,0.0,0.0,0.0,0.0,0.0,0.0,0.0,0.0,0.0,0.0,0.0,0.0,0.0,0.0,0.0,0.0,0.0,0.0,0.0,0.0,0.0,0.0,0.0,0.0,0.0,0.0,0.0,0.0,0.0,0.0,0.0,0.0,0.0,0.0,5.7623,5.855,5.9953,6.1205,0.0,6.0901,6.0099,6.0725,6.2749,6.2482,5.7205,0.0,0.0,0.0,0.0,0.0,0.0,0.0,0.0,0.0,0.0,0.0,0.0,0.0,0.0,0.0,0.0,0.0,0.0,0.0,0.0,0.0,0.0,0.0,0.0,0.0,0.0,0.0,0.0,0.0,0.0,0.0,0.0,0.0,0.0,0.0,0.0,0.0,0.0,0.0,0.0,0.0,0.0,0.0,0.0,0.0,0.0,0.0,0.0,0.0,0.0,0.0,0.0,0.0,6.1367,6.3229,6.9611,7.3209,7.375,7.3233,7.2864,7.2692,6.9342,6.568,0.0,0.0,0.0,0.0,0.0,0.0,0.0,0.0,0.0,0.0,0.0,0.0,0.0,0.0,0.0,0.0,0.0,0.0,0.0,0.0,0.0,0.0,0.0,0.0,0.0,0.0,0.0,0.0,4.5121,4.6041,4.5169,0.0,0.0,0.0,0.0,0.0,0.0,0.0,0.0,0.0,0.0,5.8143,6.1698,6.2012,0.0,0.0,6.3538,6.2644,6.2057,6.3473,6.2854,5.7636,5.6427,0.0,0.0,0.0,0.0,0.0,0.0,0.0,0.0,0.0,0.0,0.0,0.0,0.0,0.0,0.0,0.0,0.0,0.0,0.0,0.0,0.0,0.0,0.0,0.0,0.0,0.0,0.0,4.0824,0.0,0.0,0.0,0.0,0.0,0.0,0.0,0.0,0.0,0.0,0.0,0.0,0.0,0.0,0.0,0.0,0.0,0.0,0.0,0.0,0.0,0.0,0.0,0.0,6.253,6.3609,7.0532,7.4119,7.4119,7.4119,7.396,7.3551,7.0928,6.7866,6.4443,0.0,0.0,0.0,0.0,0.0,0.0,0.0,0.0,0.0,0.0,0.0,0.0,0.0,0.0,0.0,0.0,0.0,0.0,0.0,0.0,0.0,0.0,0.0,0.0,0.0,0.0,0.0,4.7413,4.8274,4.7218,0.0,0.0,0.0,0.0,0.0,0.0,0.0,0.0,0.0,0.0,5.9858,6.3605,6.334,6.3396,6.5167,6.4404,6.3463,6.3091,6.3744,6.3014,5.9394,0.0,0.0,0.0,0.0,0.0,0.0,0.0,0.0,0.0,0.0,0.0,0.0,0.0,0.0,0.0,0.0,0.0,0.0,0.0,0.0,0.0,0.0,0.0,0.0,0.0,0.0,0.0,4.3169,0.0,0.0,4.3222,0.0,0.0,0.0,0.0,0.0,0.0,0.0,0.0,0.0,0.0,0.0,0.0,0.0,0.0,0.0,0.0,0.0,0.0,0.0,0.0,0.0,0.0,6.3609,6.3712,7.1063,7.488,7.4869,7.488,7.5092,7.55,7.415,7.2023,6.9216,0.0,0.0,0.0,0.0,0.0,0.0,0.0,0.0,0.0,0.0,0.0,0.0,0.0,0.0,0.0,0.0,0.0,0.0,0.0,0.0,0.0,0.0,0.0,0.0,0.0,0.0,4.0948,4.4904,4.7947,0.0,0.0,0.0,0.0,0.0,0.0,0.0,0.0,0.0,5.7233,6.092,6.3338,6.3489,6.3507,6.3812,6.462,6.2908,6.2178,6.4241,6.3994,6.3487,0.0,0.0,0.0,0.0,0.0,0.0,0.0,0.0,0.0,0.0,0.0,0.0,0.0,0.0,0.0,0.0,0.0,0.0,0.0,0.0,0.0,0.0,0.0,0.0,0.0,0.0,0.0,4.9176,4.9176,0.0,0.0,0.0,0.0,0.0,0.0,0.0,0.0,0.0,0.0,0.0,5.8625,5.8909,0.0,0.0,0.0,0.0,0.0,0.0,0.0,0.0,0.0,0.0,0.0,0.0,6.5283,6.5886,7.2083,7.5339,7.5172,7.5172,7.5024,7.4717,7.4093,7.2346,6.9288,0.0,0.0,0.0,0.0,0.0,0.0,0.0,0.0,0.0,0.0,0.0,0.0,0.0,0.0,0.0,0.0,0.0,0.0,0.0,0.0,0.0,0.0,0.0,0.0,0.0,4.6778,0.0,0.0,0.0,0.0,0.0,0.0,0.0,0.0,0.0,0.0,5.4127,5.6574,5.8996,6.0416,6.1796,6.3284,6.3927,6.5009,0.0,0.0,6.4657,0.0,0.0,0.0,0.0,0.0,0.0,0.0,0.0,0.0,0.0,6.0047,5.8287,5.4837,5.5378,5.6393,5.6359,0.0,0.0,0.0,0.0,0.0,0.0,0.0,0.0,0.0,0.0,0.0,0.0,0.0,0.0,5.3348,5.2728,5.3444,0.0,0.0,0.0,0.0,0.0,0.0,0.0,0.0,6.0604,6.2575,6.3943,6.4143,6.4668,6.5442,6.3913,6.0695,0.0,0.0,0.0,0.0,0.0,0.0,0.0,0.0,6.6617,6.7124,7.315,7.6268,7.6096,7.6369,7.6186,7.5662,7.5158,7.3706,7.1075,6.6745,6.3328,0.0,0.0,0.0,0.0,0.0,0.0,0.0,0.0,0.0,0.0,0.0,0.0,0.0,0.0,0.0,0.0,0.0,0.0,0.0,0.0,0.0,0.0,0.0,5.033,0.0,0.0,0.0,0.0,0.0,0.0,0.0,0.0,0.0,5.4837,5.7264,5.9766,6.1467,6.2787,6.3768,6.4208,0.0,0.0,0.0,0.0,0.0,0.0,0.0,6.37,6.298,6.2932,6.3439,6.4918,6.5483,6.5764,6.5764,0.0,0.0,6.0419,6.068,6.167,6.167,6.1264,6.1264,6.2236,6.2878,6.3497,0.0,0.0,0.0,0.0,5.477,0.0,0.0,0.0,5.7245,5.6091,0.0,5.6359,0.0,0.0,0.0,0.0,5.7046,6.1388,0.0,0.0,6.9622,7.1739,6.9214,6.9578,7.0375,7.1111,6.7441,6.633,6.7486,6.5501,6.3026,0.0,0.0,0.0,0.0,0.0,6.7592,6.7892,7.4275,7.7655,7.7654,7.8337,7.8583,7.8252,7.7365,7.6149,7.4649,7.1819,6.9282,6.6903,6.0714,0.0,0.0,0.0,0.0,0.0,0.0,0.0,0.0,0.0,0.0,0.0,0.0,0.0,0.0,0.0,0.0,0.0,0.0,0.0,0.0,5.1623,0.0,0.0,0.0,0.0,0.0,0.0,0.0,0.0,0.0,5.8709,5.7466,6.0772,6.3714,6.441,0.0,0.0,0.0,0.0,6.8819,6.5459,6.4806,6.4874,6.5053,6.6092,6.7614,6.9766,0.0,0.0,7.2326,7.0037,6.8233,6.8199,6.9981,7.0049,6.5797,6.5077,6.5087,6.5087,6.5121,6.4952,6.5043,6.6464,6.7366,6.3772,0.0,0.0,0.0,0.0,6.0978,6.2461,6.4866,6.4696,6.4286,6.3717,6.4174,0.0,0.0,0.0,0.0,0.0,0.0,6.57,6.7574,6.9762,7.1698,7.3452,7.3625,7.4445,7.5698,7.4389,7.4321,7.5401,7.4478,7.0002,6.223,0.0,0.0,0.0,0.0,7.0535,7.2132,7.6533,7.8796,7.8693,7.9405,7.9482,7.8887,7.7573,7.6678,7.6239,7.4864,7.2609,6.936,6.6914,0.0,0.0,0.0,0.0,0.0,0.0,0.0,0.0,0.0,0.0,0.0,0.0,0.0,0.0,0.0,0.0,0.0,0.0,0.0,5.2494,5.6258,5.7636,0.0,0.0,0.0,0.0,0.0,0.0,0.0,0.0,0.0,6.3927,6.3193,6.299,0.0,0.0,6.4522,6.4164,6.6227,6.8155,6.9203,6.8944,6.9327,7.1436,7.0331,6.962,7.0793,7.2191,7.3015,7.2496,7.2969,7.3488,7.3443,7.3984,7.395,7.2856,7.2078,7.174,7.174,7.174,7.174,7.1808,7.2935,7.3781,7.0577,6.8011,6.5428,6.4824,6.5484,6.5219,6.6809,6.9581,6.9173,6.8655,6.8155,6.8842,6.7155,6.3816,6.443,0.0,0.0,0.0,6.9684,7.2231,7.2538,7.3889,7.598,7.6261,7.7215,7.8729,7.8215,7.871,8.0137,7.8101,7.4202,6.8577,0.0,6.6484,6.709,7.0827,7.364,7.5492,7.8557,8.0224,8.0412,8.0547,8.0412,7.9972,7.8551,7.7773,7.7773,7.7029,7.5303,7.2507,7.0838,6.7523,0.0,0.0,0.0,0.0,0.0,0.0,0.0,0.0,0.0,0.0,0.0,5.0236,4.8503,0.0,0.0,0.0,5.575,5.6731,5.7814,5.9945,0.0,0.0,0.0,0.0,0.0,0.0,0.0,5.9278,6.3744,6.7094,6.7218,6.6203,6.5977,6.7286,6.7601,6.7523,6.7072,0.0,7.1142,7.2056,7.1785,7.2135,7.3849,7.3454,7.3375,7.5033,7.6251,7.686,7.6509,7.7266,7.7773,7.7604,7.7705,7.7819,7.7536,7.7248,7.6794,7.6125,7.6205,7.6374,7.6374,7.7282,7.7816,7.6232,7.5026,6.9148,6.7557,6.8861,6.8233,6.9507,7.1988,7.135,7.0271,6.9136,7.1091,6.9729,6.5962,6.738,0.0,7.1091,7.2652,7.4434,7.6347,7.697,7.7344,7.7468,7.7895,7.8958,8.0538,7.9645,8.023,8.1934,7.8077,7.6386,7.6927,7.5562,7.3874,7.2168,7.4495,7.6567,7.8157,8.0221,8.1676,8.2462,8.1778,8.1418,8.1372,7.9972,7.9147,7.908,7.8483,7.7481,7.5924,7.333,7.0793,6.8199,0.0,0.0,0.0,0.0,0.0,0.0,0.0,0.0,0.0,0.0,0.0,0.0,0.0,0.0,5.8945,6.1501,6.3541,6.4749,6.3193,0.0,0.0,0.0,6.2675,6.4637,6.6261,6.6914,6.6079,0.0,0.0,6.8605,6.9766,7.1492,7.3725,7.4842,7.4728,7.2766,7.4728,7.6048,7.4063,7.3894,7.3996,7.4571,7.5845,7.7638,7.9815,8.1663,8.1583,8.1346,8.0966,8.056,7.9566,8.0344,8.0458,7.987,7.9824,8.0101,7.824,7.8511,7.9026,7.8799,7.9175,7.9338,7.8436,7.7543,7.658,7.4889,7.2829,7.267,7.2966,7.3603,7.331,7.296,7.2642,7.2972,7.2813,7.2406,7.331,7.4338,7.542,7.6382,7.7365,7.832,7.8006,7.8413,7.945,7.905,7.9354,8.0229,8.0031,8.0209,8.0648,7.9667,7.8665,7.7751,7.7379,7.6354,7.4833,7.597,7.7604,7.9667,8.0729,8.1913,8.3152,8.2509,8.2137,8.2124,8.0716,7.9655,7.9114,7.9452,7.8991,7.7548,7.7333,7.519,7.0692,6.7512,0.0,0.0,0.0,0.0,0.0,0.0,0.0,0.0,0.0,5.5615,5.3416,0.0,6.0597,0.0,6.5358,6.8007,6.7218,6.8189,0.0,0.0,6.6836,6.7184,6.7151,6.9474,7.0364,6.8504,7.0748,7.28,7.3747,7.4153,7.5439,7.8111,7.5439,7.3172,7.3251,7.4774,7.6048,7.6149,7.6961,7.7976,7.8327,7.8991,7.9194,7.8834,7.9431,7.9486,7.8416,7.8077,7.7705,7.6961,7.6893,7.6927,7.6983,7.7619,7.8493,7.851,7.8917,7.9066,7.8563,7.8981,7.9245,7.8963,7.823,7.8998,7.7985,7.5873,7.5556,7.5601,7.5862,7.5427,7.5414,7.5719,7.5578,7.5721,7.6149,7.6881,7.7468,7.7896,7.8653,7.9194,7.952,7.8855,7.8923,7.9701,7.9283,7.9486,8.0209,8.0513,8.0851,8.1156,8.0851,8.0255,7.9477,7.9139,7.8551,7.7705,7.7164,7.7671,7.9194,8.0276,8.1528,8.2915,8.2272,8.1629,8.094,7.9803,7.8686,7.7638,7.7976,7.7671,7.6555,7.686,7.5325,7.1492,6.9147,6.617,0.0,0.0,0.0,0.0,0.0,0.0,0.0,0.0,0.0,0.0,0.0,6.3835,6.3792,6.8267,7.0263,6.8098,6.935,7.0015,6.9372,7.0364,7.1391,7.2293,7.4153,7.4796,7.3251,7.4796,7.6183,7.6657,7.6995,7.7671,7.9058,7.6995,7.563,7.6364,7.7198,7.7773,7.7908,7.8572,7.908,7.9228,7.9498,7.9566,7.916,7.9566,7.987,7.9418,7.9263,7.8905,7.8209,7.8176,7.819,7.7942,7.8501,7.9239,7.9247,7.9373,7.9381,7.9236,7.9511,7.9486,7.8653,7.8056,7.8775,7.8674,7.7954,7.7299,7.7401,7.7954,7.7312,7.7413,7.8022,7.8022,7.8056,7.8191,7.8822,7.9147,7.9283,7.9803,8.0107,8.0141,7.9452,7.9147,7.9249,7.9249,7.9587,8.0209,8.083,8.1494,8.2103,8.1473,8.108,8.0864,8.0242,7.9803,7.9532,7.7705,7.7333,7.8563,7.9748,8.0953,8.2192,8.1439,8.0344,7.9025,7.8247,7.7176,7.5777,7.5676,7.5405,7.4796,7.475,7.3893,7.2078,6.9857,6.776,0.0,6.3666,0.0,0.0,0.0,0.0,0.0,0.0,0.0,0.0,6.6079,6.6576,6.7715,7.0658,7.1616,6.9394,6.9925,7.1142,7.3037,7.3827,7.5248,7.7684,7.8483,7.8572,7.7954,7.8416,7.8585,7.8056,7.8585,7.8686,7.8394,7.8585,7.8911,7.9904,7.9769,7.9363,7.9025,7.9046,7.8978,7.8686,7.8957,7.9486,8.0107,8.0509,8.1287,8.1498,8.1413,8.1096,8.0457,8.0254,8.0466,8.0151,8.0248,8.0395,7.9868,7.9681,7.968,7.9915,7.9855,7.9708,7.8686,7.8056,7.8788,7.8686,7.8,7.7853,7.7887,7.7988,7.7853,7.7853,7.7988,7.8022,7.8327,7.8889,7.9046,7.9431,7.9938,7.9532,7.9634,8.0175,7.9452,7.9418,7.9972,7.9972,8.0073,8.0175,8.0344,8.0479,8.0615,8.0492,7.9803,7.8631,7.8496,7.7773,7.6589,0.0,0.0,0.0,8.1224,8.1236,8.1439,8.0209,7.9092,7.8259,7.7502,0.0,7.5743,7.5676,7.5642,7.5506,7.5506,0.0,7.5811,0.0,0.0,0.0,0.0,0.0,6.7455,0.0,0.0,0.0,6.8684,6.8244,6.7557,6.8098,6.9744,7.2777,7.324,7.4063,7.5924,7.6758,7.7355,7.7761,7.793,7.8065,7.8056,7.7638,7.7232,7.713,7.7266,7.7515,7.8022,7.8124,7.8416,7.8788,7.9012,7.9384,8.004,7.9228,7.8462,7.8259,7.8708,7.9249,7.9735,7.979,7.9786,8.023,8.0073,7.9938,7.9609,7.9278,7.8762,7.8146,7.7894,7.8077,7.7877,7.8105,7.8809,7.9056,7.9414,7.9452,7.9009,7.885,7.8942,7.8877,7.8619,7.9329,7.9431,0.0,7.9058,7.9092,7.9025,7.8293,7.8022,7.8022,7.8394,7.8742,7.9114,7.9486,7.9837,8.0175,7.9837,7.9837,8.0141,7.9452,7.9283,7.9655,7.9655,7.9655,7.9667,8.0006,8.0209,8.0209,8.0209,7.9837,7.9071,7.9058,7.8686,7.7976,7.8653,7.9587,8.0737,8.075,8.1122,8.1778,8.075,7.9667,7.8585,7.7807,0.0,0.0,0.0,0.0,0.0,0.0,0.0,0.0,7.4334,7.3488,7.3454,7.2439,7.2169,7.2868,7.2958,7.3578,7.4999,7.4808,7.3477,7.0883,7.2406,7.4131,7.5562,7.5721,7.6195,7.7312,7.7807,7.7997,7.801,7.7997,7.8111,7.8382,7.7887,7.7751,7.8348,7.8213,7.828,7.9003,7.9071,7.9058,7.908,7.9114,7.9114,7.9126,7.9139,7.9003,7.8619,7.8326,7.8441,7.8791,7.8754,7.8859,7.9082,7.9081,7.9038,7.9038,7.9061,7.8953,7.8626,7.8715,7.8889,7.8909,7.9069,7.9342,7.9707,7.9964,8.0034,7.9637,7.9604,7.9689,7.8923,7.8945,7.9566,7.9803,7.9803,7.9803,7.9803,7.9748,7.8788,0.0,0.0,7.9025,7.9283,7.935,7.9938,8.0209,8.0175,8.0073,8.0006,7.9972,7.9384,7.9147,7.9283,7.9418,7.9553,7.9722,8.031,8.0581,8.0581,8.0581,8.0581,8.0581,8.0593,8.0615,8.0682,8.1934,8.1684,7.9993,8.0344,8.1122,8.2124,8.1359,8.0209,7.8742,7.8124,7.7142,7.5743,7.5676,7.5676,7.5676,7.5134,7.492,7.5156,7.4503,7.4199,7.4469,7.4368,7.5112,7.6961,7.7096,7.7874,7.9701,7.9363,7.7807,7.4695,7.6533,7.7616,7.713,7.7548,7.765,7.7333,7.7299,7.7333,7.7468,7.7367,7.7807,7.8877,7.845,7.8394,7.9498,7.916,7.9126,7.9566,7.9667,7.9667,7.9215,7.9114,7.8953,7.8569,7.9101,7.9384,7.8959,7.8404,7.7871,7.7884,7.7879,7.7768,7.8489,7.8458,7.8574,7.9171,7.9661,7.9888,7.9761,8.0336,8.0553,8.0658,8.0539,8.073,8.0843,8.0876,8.0943,8.1075,8.1075,8.1075,7.8191,7.8157,7.8259,7.8327,7.8327,7.8293,7.8327,7.8394,7.9443,7.9917,7.9904,8.0006,8.004,8.004,8.0141,8.0209,8.0175,7.9566,7.9249,7.9249,7.9147,7.9418,8.0073,8.0682,8.1338,8.1887,8.2022,8.209,8.209,8.209,8.209,8.2069,8.2103,8.209,8.2158,8.2915,8.3186,8.2881,8.2374,8.19,8.1439,8.0107,7.872,7.7299,7.7198,7.6623,7.5743,7.5743,7.5676,7.5676,7.5608,7.6149,7.7413,7.6826,7.6995,7.8133,7.7718,7.7515,7.7819,7.7853,7.7988,7.8293,7.8788,7.8843,7.8336,7.7536,7.7278,7.7751,7.7413,7.757,7.8572,7.8708,7.8877,7.9464,7.9114,7.8911,7.9046,7.845,7.8124,7.8462,7.8225,7.8259,7.8597,7.8551,7.8831,7.9046,7.9389,7.925,7.9403,7.8786,7.8519,7.8648,7.864,7.8703,7.8922,7.9126,7.9035,7.9221,7.902,7.8909,7.9122,7.9561,7.9851,7.9724,8.0407,8.0744,8.0777,8.0678,8.1108,8.1605,8.1757,8.1923,8.2453,8.2585,8.2386,8.0378,8.0378,8.0378,8.0378,8.0378,8.0378,8.0378,8.0445,8.1088,8.0479,7.9105,7.9431,7.9837,8.0242,8.0627,8.1021,8.1393,8.1042,8.0885,8.0906,8.0885,8.1075,8.1426,8.1731,8.2069,8.2395,8.2395,8.2395,8.2395,8.2395,8.2395,8.2395,8.2395,8.2598,8.2983,8.3321,8.3693,8.4086,8.3781,8.3409,8.3071,8.2022,8.1143,8.0492,8.0107,7.9722,7.9363,7.8957,7.8733,7.8733,7.7976,7.8044,7.9092,7.8483,7.8572,7.96,7.9363,7.9206,7.9206,7.9206,7.9172,7.9194,7.9114,7.9114,7.9114,7.8471,7.8077,7.7988,7.7671,7.7739,7.845,7.8517,7.8653,7.8957,7.8699,7.8653,7.8945,7.8462,7.8327,7.8969,7.8822,7.8923,7.9692,7.9677,7.9845,8.0507,8.0539,8.0518,8.067,8.0244,7.9657,7.9206,7.893,7.9109,7.96,7.9608,7.9675,8.0028,7.9987,7.9873,7.9926,8.0354,8.0711,8.0829,8.1393,8.1823,8.1889,8.2221,8.2618,8.2883,8.338,8.3745,8.4043,8.4095,8.3678,8.2395,8.2395,8.2395,8.2395,8.2395,8.2395,8.2395,8.2395,8.2395,8.1109,7.924,7.9587,8.0162,8.0716,8.1291,8.1866,8.2361,8.2395,8.2395,8.2395,8.2395,8.2496,8.2631,8.2631,8.2733,8.2868,8.2902,8.2902,8.2902,8.2902,8.3003,8.3152,8.3172,8.3524,8.4268,8.4268,8.4573,8.5067,8.4952,8.4728,8.4356,8.3795,8.3422,8.3219,8.2678,8.2395,8.2361,8.1832,8.1541,8.1494,8.0445,8.0095,8.0615,7.9993,7.9769,8.0141,8.004,7.9938,7.9938,7.9938,8.0006,8.0209,7.9824,7.9587,7.96,7.9756,7.9295,7.8259,7.8145,7.8327,7.8597,7.8766,7.88,7.8923,7.9003,7.9397,7.9689,7.9329,7.9363,8.0412,8.0196,8.0319,8.1121,8.1291,8.1303,8.1602,8.1651,8.1471,8.1451,8.1424,8.0889,8.0094,7.9515,7.9608,8.0094,8.0032,8.0108,8.0644,8.0658,8.0572,8.0691,8.1274,8.1705,8.1771,8.2519,8.2983,8.3181,8.3697,8.4095,8.4208,8.454,8.4854,8.4408,8.4383,8.4434,8.2428,8.2395,8.2462,8.2395,8.2462,8.2462,8.2462,8.2462,8.2428,8.2293,8.1955,8.209,8.209,8.2192,8.2259,8.2374,8.2462,8.2395,8.2462,8.2462,8.2395,8.278,8.3389,8.3422,8.3761,8.4309,8.4411,8.4411,8.4411,8.4411,8.4776,8.5398,8.5499,8.5804,8.6467,8.6521,8.6589,8.667,8.6027,8.5012,8.3693,8.3524,8.3186,8.253,8.2462,8.2395,8.2496,8.234,8.2293,8.2293,8.2124,8.209,8.209,8.1494,8.083,8.0276,7.9621,7.9181,7.9249,7.9215,7.96,8.0141,8.0796,8.1067,8.1101,8.1663,8.0919,7.8923,7.8686,7.9363,7.9938,8.0526,8.1067,8.1515,8.1684,8.2035,8.1887,8.2056,8.2056,8.2124,8.1895,8.2067,8.1913,8.1929,8.1844,8.1732,8.1718,8.1611,8.1435,8.1374,8.126,8.0811,8.0758,8.0765,8.0735,8.0639,8.0711,8.0777,8.0744,8.0876,8.1108,8.1473,8.1804,8.2154,8.3016,8.3844,8.38,8.4445,8.484,8.443,8.4562,8.4701,8.3631,8.3333,8.3569,8.3714,8.3714,8.37,8.3714,8.3714,8.3714,8.3714,8.3714,8.3714,8.3714,8.37,8.3714,8.3477,8.3037,8.305,8.3274,8.3667,8.37,8.3714,8.3714,8.37,8.4133,8.4809,8.4857,8.5249,8.5899,8.5946,8.598,8.598,8.5946,8.6115,8.6399,8.6467,8.6589,8.6859,8.6893,8.6893,8.6893,8.6602,8.6129,8.5486,8.4606,8.4018,8.3748,8.37,8.3714,8.3646,8.3274,8.305,8.3016,8.2644,8.2395,8.2395,8.2103,8.1832,8.1515,8.1211,8.1042,8.1042,8.1042,8.1177,8.1481,8.1765,8.1934,8.1968,8.2225,8.1832,8.0953,8.0872,8.1211,8.1481,8.1765,8.2103,8.2327,8.2395,8.2428,8.2395,8.2415,8.2343,8.2199,8.216,8.2278,8.2416,8.2616,8.2633,8.2405,8.235,8.2295,8.2184,8.217,8.2114,8.2045,8.21,8.1915,8.1487,8.134,8.1539,8.187,8.2003,8.2003,8.2069,8.2585,8.2983,8.2552,8.3778,8.4027,8.2791,8.3694,8.4322,8.4026,8.3712,8.3638,8.31,8.302,8.3338,8.5222,8.5236,8.5236,8.5236,8.5222,8.5236,8.5222,8.5222,8.5236,8.5222,8.5222,8.5236,8.4931,8.4437,8.4234,8.4437,8.4898,8.5121,8.5222,8.5236,8.5222,8.554,8.6061,8.6095,8.6366,8.6839,8.6859,8.6859,8.6852,8.6454,8.6596,8.7034,8.6846,8.6947,8.7441,8.7502,8.7516,8.7516,8.7333,8.7211,8.6995,8.5899,8.5222,8.5222,8.5236,8.5222,8.5222,8.4539,8.4146,8.4133,8.3422,8.3003,8.3003,8.3003,8.2902,8.2699,8.2496,8.2496,8.2678,8.2699,8.2813,8.3003,8.3172,8.3308,8.3389,8.3524,8.3646,8.3646,8.3815,8.3781,8.2733,8.2902,8.3003,8.299,8.2951,8.2966,8.321,8.3137,8.3146,8.3074,8.3369,8.3161,8.3444,8.3702,8.372,8.3584,8.3527,8.3513,8.3513,8.3527,8.3494,8.3513,8.3513,8.3115,8.232,8.2088,8.2419,8.2618,8.2784,8.285,8.3115,8.3711,8.4388,8.409,8.5037,8.5408,8.4772,8.483,8.4538,8.362,8.3347,8.3433,8.3069,8.3004,8.2877,8.6792,8.6758,8.6758,8.6704,8.6792,8.6724,8.6758,8.6609,8.6724,8.6758,8.669,8.6724,8.6724,8.6569,8.5926,8.5702,8.5838,8.6399,8.6656,8.6656,8.669,8.6792,8.6859,8.6859,8.6879,8.6925,8.7069,8.7062,8.694,8.5758,8.6011,8.7811,8.677,8.7075,8.8594,8.8849,8.8998,8.8781,8.826,8.7955,8.7888,8.7211,8.6792,8.6792,8.6758,8.669,8.6656,8.6075,8.5669,8.5669,8.4931,8.4478,8.4512,8.4512,8.4221,8.3592,8.2881,8.2813,8.3456,8.3592,8.3828,8.4458,8.5114,8.5601,8.5466,8.5926,8.6237,8.6575,8.6798,8.6203,8.4067,8.4222,8.4506,8.4472,8.4258,8.444,8.5005,8.4759,8.5116,8.5415,8.5387,8.5161,8.5207,8.5172,8.4896,8.4838,8.489,8.4856,8.4757,8.4856,8.4823,8.4838,8.4724,8.4473,8.3248,8.3215,8.3115,8.338,8.3745,8.3347,8.365,8.4109,8.4861,8.5527,8.6226,8.6709,8.6949,8.6709,8.6079,8.5336,8.4627,8.4345,8.2626,8.2811,8.2622,8.6893,8.6893,8.6893,8.6893,8.6893,8.6893,8.6893,8.6893,8.6893,8.6893,8.6893,8.6893,8.6893,8.6927,8.711,8.6941,8.6569,8.6792,8.6893,8.6893,8.6893,8.7164,8.7583,8.7617,8.736,8.7185,8.7882,8.8308,8.8168,8.6941,8.7103,8.8186,8.7389,8.7522,8.8841,8.9134,8.9134,8.9052,8.8815,8.8714,8.868,8.8443,8.8308,8.8274,8.738,8.6893,8.6893,8.6623,8.6501,8.6501,8.6217,8.6068,8.6081,8.6081,8.598,8.5689,8.5439,8.5405,8.5608,8.5689,8.579,8.6048,8.6332,8.6487,8.6535,8.6724,8.6825,8.6707,8.6787,8.6259,8.5737,8.5907,8.6267,8.5801,8.5514,8.5401,8.5641,8.5672,8.5646,8.5649,8.5564,8.5377,8.5372,8.5161,8.5088,8.5088,8.5088,8.5121,8.5121,8.5088,8.5188,8.5088,8.5055,8.4937,8.454,8.4786,8.5051,8.5217,8.5343,8.528,8.5477,8.5549,8.6178,8.5467,8.6324,8.6497,8.6213,8.5028,8.4874,8.3984,8.3562,8.377,8.1789,8.2298,8.2019,8.7617,8.7617,8.7617,8.7617,8.7617,8.7603,8.7617,8.7617,8.7617,8.7617,8.7603,8.7617,8.7617,8.7685,8.8125,8.8125,8.7651,8.7617,8.7617,8.7617,8.7617,8.7854,8.8308,8.8375,8.8124,8.7907,8.8629,8.8728,8.7843,8.7327,8.761,8.8295,8.7522,8.777,8.8889,8.9134,8.9134,8.9134,8.9134,8.91,8.9134,8.9134,8.9134,8.8951,8.8125,8.7617,8.7603,8.7367,8.7265,8.7231,8.7028,8.6893,8.6893,8.6893,8.6893,8.6893,8.6859,8.6893,8.6893,8.6893,8.6859,8.6913,8.7034,8.708,8.7114,8.7233,8.7181,8.7074,8.722,8.7188,8.696,8.7443,8.7442,8.6511,8.6013,8.5963,8.6163,8.6111,8.6087,8.6147,8.6073,8.5909,8.5798,8.5846,8.5865,8.5813,8.5798,8.5798,8.5798,8.5798,8.5832,8.5832,8.6148,8.6295,8.6137,8.631,8.5978,8.6023,8.6204,8.6457,8.6431,8.6679,8.6512,8.578,8.5469,8.5528,8.4855,8.3528,8.2616,8.1837,8.2485,8.3287,8.2361,8.1991,8.1892,8.9032,8.8984,8.91,8.8951,8.8917,8.8883,8.9018,8.8951,8.8965,8.8883,8.8815,8.8951,8.8849,8.8998,8.8917,8.9032,8.8903,8.8709,8.8737,8.8883,8.8917,8.8861,8.8816,8.8928,8.897,8.8875,8.8945,8.7668,8.5773,8.6338,8.6789,8.7031,8.6867,8.7238,8.8945,8.8785,8.8974,8.8959,8.8988,8.9086,8.9134,8.9134,8.9134,8.9134,8.8984,8.8917,8.8984,8.8375,8.7989,8.7922,8.738,8.6961,8.7096,8.7096,8.6995,8.7096,8.6995,8.6961,8.6995,8.7062,8.7164,8.717,8.734,8.7571,8.7624,8.7868,8.8017,8.8027,8.8462,8.8749,8.8126,8.8286,8.7923,8.6387,8.5968,8.6063,8.6405,8.6382,8.6472,8.7017,8.7087,8.7253,8.7253,8.7072,8.6973,8.7006,8.7039,8.7006,8.694,8.694,8.7153,8.7271,8.7223,8.7223,8.7517,8.7696,8.6975,8.6501,8.6684,8.683,8.6355,8.632,8.6147,8.5553,8.5379,8.5385,8.4999,8.3842,8.3554,8.3038,8.3367,8.3158,8.2787,8.2398,8.2327,8.9134,8.9134,8.9134,8.9134,8.9134,8.9134,8.9134,8.9134,8.9134,8.9134,8.9134,8.9134,8.9134,8.9134,8.9134,8.9134,8.903,8.8238,8.8209,8.8959,8.9072,8.86,8.8094,8.8671,8.9134,8.8742,8.7179,8.6459,8.6156,8.5074,8.476,8.5418,8.4823,8.509,8.6489,8.7224,8.7727,8.7814,8.8643,8.91,8.9134,8.9134,8.9134,8.9134,8.9134,8.9134,8.91,8.8849,8.8781,8.8714,8.8545,8.8409,8.8395,8.8409,8.8409,8.8409,8.8395,8.8409,8.8409,8.8361,8.8348,8.8373,8.8304,8.8264,8.8241,8.8185,8.8078,8.7904,8.8094,8.8002,8.7696,8.7659,8.7567,8.7183,8.6931,8.6737,8.6969,8.698,8.7054,8.7253,8.7319,8.7319,8.7319,8.7319,8.7319,8.7319,8.7319,8.7319,8.7319,8.723,8.7319,8.7337,8.7602,8.7473,8.7257,8.6964,8.6484,8.6321,8.6661,8.6743,8.6303,8.5865,8.5685,8.5285,8.517,8.4954,8.4563,8.4219,8.3759,8.3547,8.3307,8.3117,8.2907,8.2776,8.2687,8.9134,8.9134,8.9134,8.9134,8.9134,8.9134,8.9134,8.9134,8.9134,8.9134,8.9134,8.9134,8.9134,8.9134,8.9134,8.9134,8.8959,8.7712,8.7533,8.8267,8.8353,8.8108,8.777,8.8094,8.8003,8.7415,8.5911,8.4996,8.4806,8.4251,8.4059,8.4155,8.3962,8.4586,8.5773,8.6639,8.7268,8.7872,8.8685,8.9134,8.9134,8.9134,8.9134,8.9134,8.9134,8.9134,8.9134,8.9134,8.9134,8.9134,8.9134,8.9134,8.9134,8.91,8.9134,8.9134,8.91,8.91,8.9086,8.8906,8.8917,8.8861,8.852,8.8262,8.8219,8.8035,8.7743,8.7596,8.7585,8.7478,8.7363,8.7319,8.7393,8.7523,8.7371,8.7319,8.7319,8.7319,8.7319,8.7319,8.7319,8.7319,8.7319,8.7319,8.7319,8.7319,8.7319,8.7319,8.7167,8.6789,8.6668,8.64,8.6076,8.6102,8.633,8.6147,8.5848,8.6079,8.6473,8.6429,8.6192,8.5637,8.5323,8.4325,8.3932,8.3905,8.3578,8.3513,8.3236,8.3158,8.3128,8.2997,8.2836,8.2967,8.2877,8.9134,8.9134,8.9134,8.9002,8.8917,8.8889,8.8714,8.8728,8.87,8.86,8.8657,8.8501,8.8629,8.8776,8.8458,8.8472,8.8558,8.7164,8.6639,8.6834,8.6897,8.712,8.7974,8.7135,8.6247,8.5542,8.5043,8.3768,8.2314,8.3508,8.4235,8.3131,8.4091,8.5449,8.6201,8.6849,8.7639,8.8486,8.8945,8.9134,8.9134,8.9134,8.9134,8.9134,8.9134,8.9134,8.9134,8.9134,8.9134,8.9134,8.9134,8.9134,8.9134,8.9134,8.9134,8.9134,8.9134,8.9134,8.9064,8.8832,8.8629,8.86,8.8132,8.7699,8.7758,8.7582,8.7423,8.7378,8.7363,8.7334,8.7319,8.7319,8.7319,8.7319,8.7334,8.7319,8.7319,8.7319,8.7319,8.7319,8.7319,8.7319,8.7319,8.7319,8.7319,8.7319,8.7304,8.7259,8.6744,8.6101,8.5327,8.5018,8.4892,8.518,8.5565,8.5113,8.4869,8.5123,8.5533,8.5555,8.5569,8.5133,8.479,8.3801,8.3076,8.2926,8.2896,8.2967,8.2967,8.2937,8.2896,8.2806,8.2836,8.2937,8.2967,8.9134,8.9134,8.9134,8.8543,8.7698,8.7625,8.7061,8.6232,8.6201,8.6338,8.6216,8.6156,8.6307,8.6171,8.6232,8.6156,8.5988,8.4886,8.4776,8.5371,8.4538,8.4949,8.5665,8.487,8.4554,8.4823,8.4059,8.3278,8.2582,8.2398,8.2112,8.1703,8.2982,8.38,8.4283,8.6125,8.7179,8.7741,8.8685,8.9134,8.9134,8.9134,8.9134,8.9134,8.9134,8.9134,8.9134,8.9134,8.9134,8.9134,8.9134,8.9134,8.9134,8.9134,8.9134,8.91,8.9086,8.9086,8.9016,8.8762,8.8586,8.8529,8.8035,8.7714,8.7684,8.7449,8.7334,8.7319,8.7319,8.7319,8.7319,8.7319,8.7319,8.7319,8.7319,8.7319,8.7319,8.7319,8.7319,8.7319,8.7319,8.7319,8.7319,8.7319,8.7319,8.7319,8.7137,8.6849,8.6101,8.5299,8.4508,8.4309,8.4278,8.4573,8.4645,8.4157,8.3979,8.4144,8.4313,8.432,8.4348,8.4231,8.4011,8.3596,8.3076,8.2836,8.2836,8.2866,8.2806,8.2806,8.2806,8.2806,8.2806,8.2866,8.2866,8.877,8.8252,8.8252,8.7474,8.6323,8.6262,8.5819,8.5215,8.5106,8.5106,8.5106,8.5106,8.5106,8.5106,8.5121,8.5106,8.4917,8.3703,8.3573,8.3881,8.2932,8.3426,8.4379,8.3768,8.3508,8.3978,8.2916,8.2331,8.211,8.1444,8.1117,8.1238,8.1873,8.2515,8.336,8.509,8.6594,8.7224,8.8367,8.9134,8.9134,8.9134,8.9134,8.9134,8.9134,8.9134,8.9134,8.9134,8.9134,8.9134,8.9134,8.9134,8.9134,8.9134,8.9134,8.9086,8.8974,8.8889,8.8804,8.8491,8.8233,8.8146,8.7772,8.7567,8.7493,8.736,8.7319,8.7319,8.7319,8.7319,8.7319,8.7319,8.7319,8.7319,8.7319,8.7319,8.7319,8.7319,8.7319,8.7319,8.7319,8.7319,8.7319,8.7319,8.7304,8.7152,8.6575,8.6023,8.531,8.4492,8.3786,8.3475,8.3121,8.3154,8.3433,8.3164,8.3393,8.355,8.3712,8.3634,8.3718,8.3688,8.3557,8.3416,8.3027,8.2806,8.2806,8.2806,8.2806,8.2806,8.2806,8.2806,8.2836,8.2806,8.2806,8.8195,8.7105,8.6971,8.6125,8.5012,8.4902,8.4697,8.4617,8.4427,8.4459,8.4443,8.4602,8.4283,8.4697,8.4171,8.4554,8.4459,8.3179,8.2899,8.2598,8.1991,8.2398,8.3882,8.3148,8.275,8.2733,8.1618,8.1306,8.1272,8.1165,8.1268,8.1584,8.1703,8.2448,8.401,8.5231,8.6171,8.743,8.8529,8.9072,8.9134,8.9134,8.9134,8.9134,8.9134,8.9134,8.9134,8.9134,8.9134,8.9134,8.9134,8.9134,8.9134,8.9134,8.9058,8.8988,8.879,8.8648,8.8506,8.8074,8.7758,8.7728,8.7493,8.7319,8.7334,8.7319,8.7319,8.7319,8.7319,8.7319,8.7319,8.7319,8.7319,8.7319,8.7319,8.7319,8.7319,8.7319,8.7319,8.7319,8.7319,8.7319,8.7319,8.7304,8.7211,8.6487,8.5969,8.5384,8.4522,8.3572,8.2882,8.2376,8.1957,8.1523,8.1846,8.2144,8.265,8.3078,8.3353,8.3438,8.3658,8.3628,8.3378,8.3158,8.2997,8.2896,8.2806,8.2806,8.2806,8.2806,8.2806,8.2866,8.2926,8.2836,8.2806,8.7342,8.7016,8.5972,8.476,8.3654,8.3492,8.2949,8.2061,8.2011,8.2196,8.2011,8.2011,8.2078,8.2061,8.2213,8.1974,8.2196,8.1836,8.1546,8.1495,8.1323,8.1306,8.2073,8.1796,8.1663,8.1543,8.132,8.1113,8.1127,8.1261,8.1635,8.2532,8.3296,8.4823,8.5911,8.6942,8.8281,8.8685,8.8974,8.9106,8.9134,8.9134,8.9134,8.9134,8.9134,8.9134,8.9134,8.9134,8.9134,8.9134,8.912,8.9058,8.9058,8.9072,8.8959,8.8748,8.8648,8.8491,8.8281,8.7933,8.7699,8.764,8.7434,8.7319,8.7319,8.7319,8.7319,8.7319,8.7319,8.7403,8.747,8.7337,8.7437,8.7503,8.7362,8.7299,8.7322,8.7304,8.7319,8.7319,8.7319,8.7304,8.7274,8.7137,8.6729,8.5904,8.5226,8.4681,8.3807,8.2781,8.2316,8.1868,8.1938,8.177,8.2039,8.2357,8.2578,8.2896,8.3057,8.3187,8.3438,8.3557,8.3307,8.3187,8.3117,8.2967,8.2806,8.2806,8.2806,8.2806,8.2806,8.2937,8.2967,8.2896,8.2937,8.6368,8.5184,8.4443,8.3377,8.228,8.2177,8.1754,8.1169,8.1082,8.1082,8.1082,8.1082,8.1082,8.1082,8.1082,8.1117,8.1206,8.1452,8.1575,8.1702,8.1866,8.205,8.202,8.1989,8.1927,8.1668,8.1589,8.1558,8.1575,8.1579,8.1736,8.2227,8.3589,8.4139,8.5495,8.7272,8.7949,8.8223,8.8847,8.9134,8.9134,8.9134,8.9134,8.9134,8.9134,8.9134,8.9134,8.9134,8.9134,8.9058,8.8959,8.8875,8.8875,8.8861,8.8705,8.8463,8.8233,8.8165,8.7919,8.7699,8.7493,8.7508,8.7393,8.7349,8.7319,8.7319,8.7319,8.737,8.7602,8.7885,8.8217,8.8283,8.825,8.8114,8.7625,8.7286,8.7233,8.7296,8.7319,8.7319,8.7319,8.6834,8.662,8.633,8.5806,8.4812,8.3732,8.3252,8.3445,8.2561,8.2189,8.1951,8.2204,8.2357,8.2597,8.2747,8.2758,8.2896,8.2907,8.2997,8.3087,8.3187,8.3217,8.3117,8.2997,8.2907,8.2806,8.2806,8.2806,8.2806,8.2866,8.3027,8.3027,8.2896,8.3087,8.5168,8.3081,8.2866,8.216,8.1186,8.1117,8.1134,8.1113,8.1236,8.1312,8.1298,8.136,8.1606,8.1452,8.1496,8.1452,8.1606,8.1927,8.2235,8.2328,8.2666,8.2851,8.2895,8.2851,8.282,8.2389,8.2297,8.2266,8.2235,8.2239,8.235,8.2151,8.3213,8.4683,8.4924,8.644,8.8156,8.8279,8.8975,8.9255,8.9134,8.9134,8.9134,8.9134,8.9134,8.9134,8.9134,8.9134,8.9134,8.9072,8.879,8.862,8.8548,8.8534,8.8405,8.8136,8.7904,8.7772,8.764,8.7482,8.7334,8.7319,8.747,8.747,8.7503,8.7735,8.7834,8.7934,8.8217,8.8665,8.9279,8.878,8.8798,8.8615,8.7674,8.7002,8.6856,8.6929,8.6752,8.6562,8.6,8.5403,8.5074,8.476,8.4296,8.3737,8.2717,8.209,8.2336,8.2547,8.2254,8.217,8.2455,8.2537,8.2747,8.2806,8.2866,8.2866,8.2836,8.2866,8.2866,8.2937,8.2997,8.2907,8.2836,8.2806,8.2806,8.2806,8.2806,8.2806,8.2866,8.2967,8.2967,8.2866,8.3217,8.3492,8.2998,8.1907,8.1272,8.1131,8.1113,8.1175,8.1206,8.1712,8.1927,8.1989,8.2481,8.2666,8.2697,8.2759,8.2759,8.2635,8.2833,8.2926,8.2943,8.319,8.3282,8.3326,8.3357,8.3436,8.3559,8.3313,8.3005,8.2943,8.2948,8.3215,8.4364,8.5477,8.6501,8.756,8.9613,8.9613,8.9167,8.9615,8.9584,8.941,8.9337,8.9337,8.9337,8.9357,8.9337,8.9221,8.9168,8.9134,8.9072,8.8776,8.8559,8.8444,8.842,8.8179,8.786,8.778,8.77,8.7537,8.7463,8.7352,8.7437,8.7834,8.8117,8.8283,8.8599,8.878,8.8872,8.8941,8.9157,8.9315,8.8552,8.7756,8.7308,8.656,8.5597,8.5536,8.5319,8.5121,8.4754,8.4213,8.3945,8.3876,8.3705,8.3366,8.3131,8.2578,8.2121,8.226,8.2551,8.2654,8.2635,8.2735,8.2747,8.2806,8.2806,8.2836,8.2836,8.2806,8.2806,8.2836,8.2806,8.2806,8.2806,8.2806,8.2806,8.2806,8.2806,8.2806,8.2806,8.2866,8.2937,8.2967,8.2997,8.3386,8.2715,8.2056,8.1711,8.1637,8.1681,8.1989,8.2112,8.2174,8.2481,8.2635,8.2728,8.2974,8.311,8.311,8.311,8.311,8.3172,8.351,8.3603,8.3651,8.3941,8.4126,8.4095,8.4095,8.428,8.4465,8.4249,8.388,8.3664,8.3621,8.3861,8.4169,8.5422,8.6482,8.7195,8.8127,8.9353,8.9487,8.972,8.9956,9.0165,9.0202,9.0202,9.0236,9.0202,9.0236,9.0236,9.0236,9.0185,8.9999,8.9725,8.9372,8.9108,8.8787,8.842,8.7788,8.7844,8.7983,8.7948,8.8117,8.8415,8.8449,8.8714,8.8831,8.893,8.9195,8.9516,8.955,8.8244,8.8567,9.0239,8.8393,8.7756,8.7772,8.6352,8.5112,8.4748,8.3971,8.349,8.3282,8.3932,8.3907,8.3204,8.2931,8.2578,8.236,8.2237,8.2216,8.2234,8.2477,8.2806,8.2806,8.2806,8.2806,8.2806,8.2806,8.2806,8.2806,8.2806,8.2806,8.2806,8.2806,8.2806,8.2806,8.2806,8.2806,8.2806,8.2806,8.2806,8.2806,8.2836,8.2896,8.2997,8.3206,8.3487,8.2325,8.1527,8.2081,8.2297,8.2389,8.2851,8.3066,8.311,8.3251,8.3295,8.3326,8.348,8.3572,8.351,8.3541,8.3559,8.3559,8.4126,8.428,8.4372,8.4693,8.505,8.5062,8.5093,8.5001,8.4926,8.4957,8.4834,8.4403,8.428,8.3972,8.4342,8.4955,8.5511,8.6113,8.7582,8.8239,8.9,8.9445,9.011,9.0987,9.1305,9.1305,9.1305,9.1305,9.1208,9.0987,9.0972,9.0813,9.0585,9.0359,9.0144,8.9893,8.9576,8.8879,8.8066,8.825,8.8433,8.8665,8.893,8.9162,8.9162,8.9493,8.9593,8.9539,8.955,8.9581,8.9661,8.8228,8.7744,8.9804,8.8387,8.7491,8.7336,8.5978,8.4448,8.4014,8.3416,8.2743,8.3003,8.3896,8.3595,8.2616,8.2209,8.1817,8.2098,8.1997,8.2351,8.2387,8.2567,8.2806,8.2806,8.2806,8.2806,8.2806,8.2806,8.2806,8.2806,8.2806,8.2806,8.2806,8.2806,8.2806,8.2806,8.2806,8.2806,8.2806,8.2806,8.2806,8.2806,8.2806,8.2836,8.2907,8.2997,8.3206,8.2468,8.2851,8.2943,8.3005,8.3005,8.3128,8.3159,8.3251,8.3757,8.3972,8.4003,8.4526,8.4742,8.4742,8.4742,8.4803,8.4834,8.4803,8.4865,8.4896,8.5001,8.5093,8.5093,8.5093,8.5093,8.5093,8.5093,8.5062,8.4896,8.4865,8.4896,8.4986,8.5803,8.6834,8.6478,8.7421,8.9397,8.9963,9.0174,9.0625,9.1276,9.1474,9.1474,9.1425,9.1397,9.1349,9.1179,9.1154,9.094,9.0612,9.0233,8.9987,8.9848,8.9576,8.9391,8.9195,8.9228,8.9262,8.9295,8.9526,8.9659,8.9825,9.0056,9.0321,8.9986,8.9476,8.9204,8.9382,8.7768,8.7617,8.8603,8.6896,8.5837,8.5223,8.4564,8.3517,8.3056,8.3265,8.2552,8.2522,8.3387,8.2626,8.1665,8.1391,8.1177,8.1515,8.189,8.2279,8.2567,8.2717,8.2806,8.2806,8.2806,8.2806,8.2806,8.2806,8.2806,8.2806,8.2806,8.2806,8.2806,8.2806,8.2806,8.2806,8.2806,8.2806,8.2806,8.2806,8.2806,8.2806,8.2806,8.2806,8.2806,8.2926,8.2997,8.319,8.3128,8.3497,8.3664,8.3695,8.4065,8.4249,8.428,8.4526,8.468,8.4711,8.4957,8.5093,8.5093,8.5093,8.5062,8.5093,8.5093,8.5093,8.5093,8.5093,8.5093,8.5093,8.5093,8.5093,8.5093,8.5093,8.5093,8.5093,8.5093,8.5093,8.5189,8.5662,8.5903,8.62,8.6645,8.799,8.9528,9.1167,9.227,9.2526,9.259,9.2483,9.2322,9.2274,9.2049,9.1841,9.1819,9.1655,9.1399,9.1171,9.1034,9.0897,9.0761,9.0635,9.0635,9.0635,9.0469,9.0156,9.0357,9.0425,9.0589,9.0776,9.0723,8.9964,8.8841,8.8148,8.8131,8.5983,8.5983,8.7104,8.5372,8.4879,8.4216,8.3573,8.3154,8.2806,8.2806,8.2747,8.2776,8.2776,8.2249,8.189,8.1968,8.1964,8.2047,8.2279,8.2507,8.2687,8.2747,8.2806,8.2806,8.2806,8.2806,8.2806,8.2806,8.2806,8.2806,8.2806,8.2806,8.2806,8.2806,8.2806,8.2806,8.2806,8.2806,8.2806,8.2806,8.2806,8.2806,8.2806,8.2806,8.2806,8.2806,8.2907,8.4065,8.3634,8.4126,8.4342,8.4403,8.4896,8.5062,8.5062,8.5031,8.5062,8.5093,8.5093,8.5093,8.5093,8.5093,8.5093,8.5093,8.5093,8.5093,8.5093,8.5093,8.5093,8.5093,8.5093,8.5093,8.5093,8.5093,8.5093,8.5093,8.5093,8.5093,8.5093,8.5207,8.5207,8.5274,8.6001,8.74,9.0112,9.2277,9.3307,9.3436,9.3381,9.3233,9.3103,9.2988,9.2807,9.2535,9.2407,9.2255,9.1946,9.1802,9.1596,9.1475,9.1395,9.1034,9.0845,9.0591,9.0172,8.9896,9.001,9.0882,9.0948,9.0452,8.9398,8.8202,8.719,8.6669,8.6634,8.4637,8.4679,8.539,8.4271,8.3766,8.3647,8.3386,8.306,8.2806,8.2866,8.2836,8.2806,8.2866,8.2997,8.2787,8.2937,8.2907,8.2776,8.2806,8.2806,8.2806,8.2806,8.2806,8.2806,8.2806,8.2806,8.2806,8.2806,8.2806,8.2806,8.2806,8.2806,8.2806,8.2806,8.2806,8.2806,8.2806,8.2806,8.2806,8.2806,8.2806,8.2806,8.2806,8.2806,8.2806,8.2806,8.2836,8.5001,8.497,8.4988,8.497,8.497,8.5062,8.5093,8.5093,8.5093,8.5093,8.5093,8.5093,8.5093,8.5093,8.5093,8.5093,8.5093,8.5093,8.5093,8.5093,8.5093,8.5093,8.5093,8.5093,8.5093,8.5093,8.5093,8.5093,8.5093,8.5093,8.5093,8.5093,8.5093,8.5093,8.5537,8.6483,8.8283,9.0738,9.2729,9.3453,9.3423,9.329,9.3096,9.3021,9.2762,9.2474,9.2168,9.2138,9.203,9.1736,9.172,9.1437,9.1281,9.1249,9.0773,8.9822,8.9528,8.902,8.8523,8.8905,8.9414,8.9166,8.8518,8.7517,8.623,8.5569,8.5223,8.5133,8.3591,8.3647,8.4179,8.3914,8.3172,8.306,8.3146,8.3115,8.2937,8.2967,8.2937,8.2836,8.2997,8.3386,8.3517,8.3636,8.3576,8.3446,8.3057,8.3057,8.2836,8.2806,8.2806,8.2806,8.2806,8.2806,8.2806,8.2806,8.2806,8.2806,8.2806,8.2806,8.2806,8.2806,8.2806,8.2806,8.2806,8.2806,8.2806,8.2806,8.2806,8.2806,8.2806,8.2806,8.2806,8.2806,8.2806,8.5093,8.5093,8.5093,8.5093,8.5093,8.5093,8.5093,8.5093,8.5093,8.5093,8.5093,8.5093,8.5093,8.5093,8.5093,8.5093,8.5093,8.5093,8.5093,8.5093,8.5093,8.5093,8.5093,8.5093,8.5093,8.5093,8.5093,8.5093,8.5093,8.5093,8.5093,8.5093,8.5093,8.5093,8.568,8.7222,8.9364,9.0945,9.2471,9.3216,9.2958,9.2868,9.2687,9.2459,9.2413,9.2122,9.186,9.1813,9.172,9.1642,9.1578,9.1169,9.0693,9.0549,8.9757,8.8552,8.8367,8.7876,8.7328,8.7689,8.8012,8.7978,8.7449,8.6494,8.4988,8.4952,8.4399,8.384,8.3248,8.3292,8.3236,8.3172,8.2863,8.2825,8.2896,8.3027,8.3177,8.3247,8.3487,8.3596,8.3846,8.4175,8.4265,8.4305,8.4205,8.4055,8.3636,8.3247,8.3027,8.2806,8.2806,8.2806,8.2806,8.2806,8.2806,8.2806,8.2806,8.2806,8.2806,8.2806,8.2806,8.2806,8.2806,8.2806,8.2806,8.2806,8.2806,8.2806,8.2806,8.2806,8.2806,8.2806,8.2806,8.2806,8.2806,8.5093,8.5093,8.5093,8.5093,8.5093,8.5093,8.5093,8.5093,8.5093,8.5093,8.5093,8.5093,8.5093,8.5093,8.5093,8.5093,8.5093,8.5093,8.5093,8.5093,8.5093,8.5093,8.5093,8.5093,8.5093,8.5093,8.5093,8.5093,8.5093,8.5093,8.5093,8.5093,8.5093,8.5093,8.5734,8.7791,8.9854,9.1056,9.224,9.2898,9.2671,9.2489,9.2398,9.2138,9.2045,9.1875,9.1672,9.1625,9.1625,9.1594,9.1484,9.1058,9.0484,8.9871,8.9216,8.8367,8.7757,8.7517,8.6791,8.6547,8.6318,8.577,8.5681,8.5084,8.4661,8.4344,8.3703,8.3154,8.2844,8.2806,8.2806,8.2806,8.2806,8.2806,8.3158,8.3337,8.3587,8.3767,8.4126,8.4395,8.4574,8.4664,8.5103,8.5132,8.4893,8.4564,8.3827,8.3497,8.3307,8.3057,8.2806,8.2806,8.2806,8.2806,8.2806,8.2806,8.2806,8.2806,8.2806,8.2806,8.2806,8.2806,8.2806,8.2806,8.2806,8.2806,8.2806,8.2806,8.2806,8.2806,8.2806,8.2806,8.2806,8.2806,8.2806,8.5093,8.5093,8.5142,8.5142,8.5216,8.5111,8.5093,8.5093,8.5093,8.5093,8.5093,8.5093,8.5093,8.5093,8.5093,8.5093,8.5093,8.5093,8.5093,8.5093,8.5093,8.5093,8.5093,8.5093,8.5093,8.5093,8.5093,8.5093,8.5093,8.5093,8.5093,8.5202,8.5261,8.5514,8.5447,8.7927,8.9838,9.1056,9.2486,9.2671,9.2505,9.223,9.2092,9.1999,9.1829,9.1674,9.1609,9.1578,9.1578,9.1578,9.1578,9.1312,9.0932,9.0884,9.0114,8.8751,8.8734,8.7586,8.5439,8.5151,8.4527,8.3766,8.3932,8.3517,8.3097,8.2946,8.3097,8.2806,8.2896,8.2896,8.2836,8.2926,8.3016,8.3326,8.3726,8.4085,8.4395,8.4634,8.5073,8.5282,8.5023,8.4963,8.5611,8.596,8.5661,8.5103,8.4215,8.3737,8.3527,8.3158,8.2866,8.2806,8.2806,8.2806,8.2806,8.2806,8.2806,8.2806,8.2806,8.2806,8.2806,8.2806,8.2806,8.2806,8.2806,8.2806,8.2806,8.2806,8.2806,8.2806,8.2806,8.2806,8.2806,8.2806,8.2806,8.5388,8.5739,8.577,8.6065,8.6312,8.548,8.5093,8.5093,8.5093,8.5093,8.5093,8.5093,8.5093,8.5093,8.5093,8.5093,8.5093,8.5093,8.5093,8.5093,8.5093,8.5093,8.5093,8.5093,8.5093,8.5093,8.5093,8.5093,8.5093,8.5093,8.5093,8.5202,8.5876,8.6886,8.801,8.9708,9.0977,9.1855,9.2367,9.2276,9.1999,9.186,9.1798,9.1765,9.1674,9.1611,9.1578,9.1578,9.1578,9.1578,9.1578,9.1265,9.0612,9.0388,8.915,8.7346,8.6564,8.564,8.4062,8.3517,8.3367,8.2909,8.2806,8.2806,8.2806,8.2806,8.2806,8.2907,8.3158,8.3247,8.3408,8.3906,8.4205,8.4763,8.5162,8.5481,8.5751,8.593,8.617,8.6229,8.608,8.594,8.6319,8.6379,8.614,8.581,8.4983,8.4156,8.3797,8.3247,8.2806,8.2806,8.2806,8.2806,8.2806,8.2806,8.2806,8.2806,8.2806,8.2806,8.2806,8.2806,8.2806,8.2806,8.2806,8.2806,8.2806,8.2806,8.2806,8.2806,8.2806,8.2806,8.2806,8.2806,8.2806,8.6096,8.6466,8.6496,8.6743,8.7038,8.6219,8.5819,8.5819,8.5819,8.5819,8.5819,8.5604,8.548,8.5419,8.5203,8.5093,8.5093,8.5093,8.5093,8.5093,8.5093,8.5093,8.5093,8.5093,8.5093,8.5093,8.5093,8.5093,8.5093,8.5093,8.4971,8.5279,8.6483,8.7601,8.8885,8.9984,9.0899,9.1531,9.1687,9.203,9.1782,9.1609,9.1594,9.1594,9.1578,9.1578,9.1578,9.1578,9.1562,9.1562,9.139,9.1074,9.0276,8.9363,8.8483,8.6983,8.5349,8.4801,8.4006,8.3022,8.3003,8.2825,8.2806,8.2806,8.2806,8.2806,8.2967,8.3158,8.3557,8.3856,8.4186,8.4724,8.5312,8.5851,8.6329,8.6648,8.6888,8.7038,8.7127,8.7157,8.6978,8.6918,8.6768,8.6678,8.6529,8.617,8.5731,8.4933,8.4126,8.3517,8.2967,8.2896,8.2836,8.2806,8.2806,8.2806,8.2806,8.2806,8.2806,8.2806,8.2806,8.2806,8.2806,8.2806,8.2806,8.2806,8.2806,8.2806,8.2836,8.2836,8.2806,8.2806,8.2806,8.2806,8.2806,8.7223,8.7223,8.7223,8.7254,8.7284,8.7266,8.7204,8.7161,8.713,8.713,8.7069,8.6342,8.6139,8.6004,8.5462,8.5216,8.5155,8.5155,8.5093,8.5093,8.5093,8.5093,8.5093,8.5093,8.5039,8.5039,8.5002,8.4911,8.502,8.4875,8.4711,8.5267,8.6941,8.8044,8.8951,8.9968,9.0709,9.1218,9.1562,9.1798,9.1658,9.1578,9.1578,9.1578,9.1578,9.1578,9.1578,9.1578,9.1453,9.139,9.1328,9.1312,9.0868,9.0033,8.9561,8.8365,8.6085,8.4952,8.4252,8.321,8.2939,8.2806,8.2896,8.2836,8.2956,8.3117,8.3536,8.3965,8.4425,8.4634,8.4933,8.5532,8.612,8.6718,8.7347,8.7616,8.7906,8.8025,8.8095,8.7975,8.7646,8.7427,8.7008,8.6858,8.6768,8.6499,8.611,8.5581,8.4754,8.3867,8.3397,8.3027,8.2937,8.2806,8.2806,8.2806,8.2806,8.2806,8.2806,8.2806,8.2806,8.2806,8.2806,8.2806,8.2806,8.2806,8.2806,8.2836,8.2896,8.2896,8.3016,8.2956,8.2986,8.2836,8.2806,8.75,8.79,8.7912,8.8189,8.8589,8.862,8.8097,8.7266,8.7192,8.7192,8.7192,8.6989,8.6866,8.6804,8.6139,8.5881,8.5634,8.5388,8.5124,8.5093,8.5069,8.5075,8.5075,8.502,8.4929,8.4735,8.4625,8.4583,8.4326,8.4289,8.4808,8.5541,8.6805,8.7959,8.905,9.0468,9.09,9.1281,9.1547,9.1674,9.1658,9.1578,9.1578,9.1578,9.1578,9.1578,9.1578,9.1469,9.1106,9.0292,9.0082,8.9757,8.84,8.7995,8.7569,8.6173,8.4527,8.3367,8.3349,8.3041,8.2836,8.2967,8.3158,8.3427,8.3576,8.3846,8.4354,8.4844,8.5502,8.591,8.6419,8.7018,8.7526,8.8085,8.8544,8.8783,8.8993,8.9023,8.9023,8.8564,8.8235,8.7736,8.7317,8.7008,8.6888,8.6708,8.6439,8.599,8.5432,8.4574,8.3916,8.3547,8.3147,8.3027,8.2866,8.2836,8.2806,8.2806,8.2866,8.2907,8.2937,8.2907,8.2836,8.2896,8.3046,8.2956,8.2806,8.2866,8.2997,8.3266,8.3386,8.3266,8.3166,8.3106,8.3046,8.822,8.8559,8.8589,8.8836,8.9174,8.9205,8.8682,8.8066,8.8005,8.7974,8.7962,8.7697,8.7574,8.7451,8.6896,8.6527,8.6466,8.5862,8.55,8.5286,8.5016,8.4741,8.4692,8.4656,8.4473,8.4313,8.424,8.4148,8.3901,8.3789,8.4148,8.4613,8.6098,8.6945,8.7876,8.9232,9.0565,9.0963,9.1263,9.15,9.1562,9.1562,9.1578,9.1562,9.1562,9.1516,9.1422,9.1233,9.0195,8.9298,8.91,8.8215,8.7104,8.6739,8.5676,8.4418,8.3573,8.2984,8.2928,8.289,8.2937,8.3187,8.3527,8.3976,8.4305,8.4604,8.5222,8.5821,8.6659,8.7407,8.8035,8.8654,8.9103,8.9602,8.9791,9.001,9.004,9.001,8.9651,8.9133,8.8624,8.8095,8.7676,8.7317,8.6978,8.6768,8.6648,8.6469,8.599,8.5372,8.4694,8.4205,8.3666,8.3266,8.3147,8.3147,8.3076,8.3117,8.3187,8.3217,8.3158,8.3356,8.3566,8.3506,8.3386,8.3296,8.3206,8.3057,8.3147,8.3367,8.3446,8.3236,8.3296,8.3655,8.3626,8.9174,8.9174,8.9205,8.9174,8.9205,8.9205,8.9174,8.9205,8.9082,8.9174,8.899,8.8528,8.8282,8.8128,8.7574,8.7315,8.705,8.6539,8.6017,8.5653,8.5127,8.4717,8.4342,8.3968,8.4012,8.3938,8.3845,8.3789,8.3696,8.3528,8.3409,8.3416,8.4655,8.5515,8.6085,8.8063,8.938,9.0017,9.0676,9.1186,9.1422,9.1516,9.1484,9.1564,9.1422,9.1265,9.0979,9.0308,8.9249,8.8667,8.7944,8.7017,8.6142,8.5497,8.4136,8.3498,8.2958,8.2983,8.2967,8.3027,8.3337,8.3587,8.3837,8.4634,8.5143,8.5562,8.621,8.6988,8.7826,8.8484,8.9112,8.9412,8.9801,9.004,9.019,9.0319,9.0348,9.0259,8.992,8.9432,8.8953,8.8454,8.8304,8.7995,8.7337,8.6978,8.6678,8.6648,8.6648,8.615,8.5551,8.4933,8.4325,8.3906,8.4055,8.3955,8.3506,8.3476,8.3696,8.3527,8.3497,8.3906,8.4414,8.3876,8.3266,8.3666,8.3726,8.3457,8.3247,8.3307,8.3326,8.3106,8.3326,8.3816,8.3965,8.9205,8.9205,8.9205,8.9205,8.9205,8.9205,8.9205,8.9205,8.9205,8.9205,8.9174,8.902,8.8928,8.8774,8.8251,8.7962,8.7789,8.7247,8.6729,8.6192,8.556,8.4848,8.4545,8.4025,8.3787,8.3596,8.3484,8.3409,8.3259,8.309,8.3071,8.3191,8.4381,8.5241,8.5349,8.7397,8.8501,8.9364,9.0049,9.0932,9.1469,9.0725,9.0276,9.0741,9.09,9.0356,9.0033,8.9691,8.7927,8.6442,8.589,8.497,8.3877,8.3554,8.3229,8.2882,8.2836,8.3087,8.3307,8.3487,8.3827,8.4444,8.4923,8.5611,8.6229,8.6689,8.7347,8.8155,8.8843,8.9421,8.993,9.0169,9.0319,9.0408,9.0468,9.0537,9.0597,9.0348,9.01,8.9741,8.9262,8.9023,8.8893,8.8504,8.7826,8.7337,8.6888,8.6828,8.7317,8.7167,8.6509,8.5851,8.4993,8.4694,8.4923,8.4803,8.4434,8.4523,8.4803,8.4455,8.3946,8.4096,8.4325,8.3536,8.3057,8.3547,8.3797,8.3587,8.3427,8.3397,8.3386,8.3266,8.3416,8.3876,8.3946,8.9205,8.9205,8.9205,8.9205,8.9205,8.9205,8.9205,8.9205,8.9205,8.9205,8.9205,8.9205,8.9205,8.9205,8.8805,8.8571,8.8447,8.7912,8.7284,8.6688,8.5993,8.5069,8.4578,8.4038,8.3537,8.3266,8.3157,8.3014,8.2901,8.3629,8.3932,8.3969,8.5097,8.5943,8.6125,8.738,8.8417,8.9396,8.9871,9.066,9.1484,9.0868,9.0163,9.0501,9.0452,9.0082,8.9773,8.9397,8.7586,8.5819,8.497,8.3932,8.3161,8.2984,8.2871,8.2896,8.3057,8.3367,8.3707,8.4066,8.4425,8.5103,8.5761,8.6409,8.7187,8.7676,8.8444,8.9193,8.9252,8.9771,9.0199,9.0447,9.0477,9.0537,9.0537,9.0597,9.0438,9.019,9.0219,9.0259,8.9801,8.9402,8.9312,8.9282,8.8654,8.8205,8.7666,8.7516,8.7915,8.8005,8.7407,8.6868,8.612,8.6,8.6389,8.6,8.5342,8.5581,8.5851,8.5342,8.4784,8.4474,8.4134,8.3655,8.3416,8.3576,8.3707,8.3487,8.3497,8.3468,8.3487,8.3506,8.3666,8.3696,8.3677,8.9205,8.9205,8.9205,8.9205,8.9205,8.9205,8.9205,8.9205,8.9205,8.9205,8.9205,8.9205,8.9205,8.9205,8.9205,8.9167,8.8925,8.8358,8.7738,8.7009,8.629,8.5514,8.463,8.3843,8.3402,8.3032,8.2882,8.2882,8.2844,8.3895,8.4788,8.5295,8.616,8.7159,8.7588,8.8249,8.9001,8.9495,9.0098,9.0916,9.1247,9.1359,9.0644,9.0452,9.0612,9.1281,9.042,8.9117,8.7434,8.5912,8.4399,8.3386,8.289,8.2806,8.2937,8.3057,8.3367,8.3737,8.4156,8.4624,8.5162,8.5791,8.6439,8.7157,8.7885,8.8654,8.9402,8.9791,8.9851,9.001,9.0438,9.0597,9.0597,9.0597,9.0597,9.0507,9.0229,8.995,9.0079,9.0348,9.004,8.9582,8.9791,8.9761,8.9432,8.8983,8.8744,8.8693,8.8604,8.8424,8.8065,8.7826,8.7437,8.7496,8.7586,8.7048,8.624,8.6359,8.6479,8.606,8.5581,8.4953,8.4474,8.4265,8.4066,8.3797,8.3547,8.3326,8.3367,8.3408,8.3307,8.3236,8.3177,8.3206,8.3217,8.9205,8.9205,8.9205,8.9205,8.9236,8.9205,8.9205,8.9205,8.9236,8.9205,8.9186,8.9205,8.9205,8.9186,8.9205,8.9091,8.8781,8.846,8.7964,8.7233,8.673,8.6,8.5099,8.4126,8.3427,8.3057,8.2866,8.2806,8.3022,8.4197,8.506,8.5277,8.6582,8.7294,8.7383,8.8097,8.8801,8.9512,8.9871,9.0356,9.013,9.0292,9.0596,9.042,9.0276,9.0033,8.9282,8.8114,8.6722,8.5264,8.3932,8.306,8.2806,8.2836,8.2997,8.3367,8.3677,8.4305,8.4784,8.5282,8.5851,8.6319,8.6978,8.7646,8.8384,8.9073,8.9731,9.0259,9.0348,9.0348,9.0597,9.0597,9.0597,9.0597,9.0597,9.0289,8.998,8.9552,8.9322,8.9471,8.9441,8.9651,9.0289,9.013,8.9791,8.9372,8.9013,8.8953,8.8843,8.8774,8.8624,8.8444,8.8265,8.8095,8.7796,8.7676,8.7167,8.7227,8.7018,8.6419,8.5791,8.5132,8.4694,8.4425,8.4006,8.3617,8.3367,8.3236,8.3076,8.3057,8.2937,8.2866,8.2806,8.2836,8.2937]},{"header":{"parameterUnit":"m.s-1","parameterCategory":1,"la1":31.0,"la2":29.5877,"lo1":-88.7671,"lo2":-86.6584,"dx":0.0162,"dy":0.0185,"nx":115,"ny":88,"refTime":"2022-12-16T06:00:00:Z","depth":0,"parameterNumber":3,"parameterNumberName":"V-component_of_WINDS"},"data":[0.0,0.0,0.0,0.0,0.0,0.0,0.0,0.0,0.0,0.0,0.0,0.0,0.0,0.0,0.0,0.0,0.0,0.0,0.0,0.0,0.0,0.0,0.0,0.0,0.0,0.0,0.0,0.0,0.0,0.0,0.0,0.0,0.0,0.0,0.0,0.0,0.0,0.0,0.0,0.0,0.0,0.0,0.0,0.0,0.0,0.0,0.0,0.0,0.0,0.0,0.0,0.0,0.0,0.0,0.0,0.0,0.0,0.0,0.0,0.0,0.0,0.0,0.0,0.0,0.0,0.0,0.0,0.0,0.0,0.0,0.0,0.0,0.0,0.0,0.0,0.0,0.0,0.0,0.0,0.0,0.0,0.0,0.0,0.0,0.0,0.0,0.0,0.0,0.0,0.0,0.0,0.0,0.0,0.0,0.0,0.0,0.0,0.0,0.0,0.0,0.0,0.0,0.0,0.0,0.0,0.0,0.0,0.0,0.0,0.0,0.0,0.0,0.0,0.0,0.0,0.0,0.0,0.0,0.0,0.0,0.0,0.0,0.0,0.0,0.0,0.0,0.0,0.0,0.0,0.0,0.0,0.0,0.0,0.0,0.0,0.0,0.0,0.0,0.0,0.0,0.0,0.0,0.0,0.0,0.0,0.0,0.0,0.0,0.0,0.0,0.0,0.0,0.0,0.0,0.0,0.0,0.0,0.0,0.0,0.0,0.0,0.0,0.0,0.0,0.0,0.0,0.0,0.0,0.0,0.0,0.0,0.0,0.0,0.0,0.0,0.0,0.0,0.0,0.0,0.0,0.0,0.0,0.0,0.0,0.0,0.0,0.0,0.0,0.0,0.0,0.0,0.0,0.0,0.0,0.0,0.0,0.0,0.0,0.0,0.0,0.0,0.0,0.0,0.0,0.0,0.0,0.0,0.0,0.0,0.0,0.0,0.0,0.0,0.0,0.0,0.0,0.0,0.0,0.0,0.0,0.0,0.0,0.0,0.0,0.0,0.0,0.0,0.0,0.0,0.0,0.0,0.0,0.0,0.0,0.0,0.0,0.0,0.0,0.0,0.0,0.0,0.0,0.0,0.0,0.0,0.0,0.0,0.0,0.0,0.0,0.0,0.0,0.0,0.0,0.0,0.0,0.0,0.0,0.0,0.0,0.0,0.0,0.0,0.0,0.0,0.0,0.0,0.0,0.0,0.0,0.0,0.0,0.0,0.0,0.0,0.0,0.0,0.0,0.0,0.0,0.0,0.0,0.0,0.0,0.0,0.0,0.0,0.0,0.0,0.0,0.0,0.0,0.0,0.0,0.0,0.0,0.0,0.0,0.0,0.0,0.0,0.0,0.0,0.0,0.0,0.0,0.0,0.0,0.0,0.0,0.0,0.0,0.0,0.0,0.0,0.0,0.0,0.0,0.0,0.0,0.0,0.0,0.0,0.0,0.0,0.0,0.0,0.0,0.0,0.0,0.0,0.0,0.0,0.0,0.0,0.0,0.0,0.0,0.0,0.0,0.0,0.0,0.0,0.0,0.0,0.0,0.0,0.0,0.0,0.0,0.0,0.0,0.0,0.0,0.0,0.0,0.0,0.0,0.0,0.0,0.0,0.0,0.0,0.0,0.0,0.0,0.0,0.0,0.0,0.0,0.0,0.0,0.0,0.0,0.0,0.0,0.0,0.0,0.0,0.0,0.0,0.0,0.0,0.0,0.0,0.0,0.0,0.0,0.0,0.0,0.0,0.0,0.0,0.0,0.0,0.0,0.0,0.0,0.0,0.0,0.0,0.0,0.0,0.0,0.0,0.0,0.0,0.0,0.0,0.0,0.0,0.0,0.0,0.0,0.0,0.0,0.0,0.0,0.0,0.0,0.0,0.0,0.0,0.0,0.0,0.0,0.0,0.0,0.0,0.0,0.0,0.0,0.0,0.0,0.0,0.0,0.0,0.0,0.0,0.0,0.0,0.0,0.0,0.0,0.0,0.0,0.0,0.0,0.0,0.0,0.0,0.0,0.0,0.0,0.0,0.0,0.0,0.0,0.0,0.0,0.0,0.0,0.0,0.0,0.0,0.0,0.0,0.0,0.0,0.0,0.0,0.0,0.0,0.0,0.0,0.0,0.0,0.0,0.0,0.0,0.0,0.0,0.0,0.0,0.0,0.0,0.0,0.0,0.0,0.0,0.0,0.0,0.0,0.0,0.0,0.0,0.0,0.0,0.0,0.0,0.0,0.0,0.0,0.0,0.0,0.0,0.0,0.0,0.0,0.0,0.0,0.0,0.0,0.0,0.0,0.0,0.0,0.0,0.0,0.0,0.0,0.0,0.0,0.0,0.0,0.0,0.0,0.0,0.0,0.0,0.0,0.0,0.0,0.0,0.0,0.0,0.0,0.0,0.0,0.0,0.0,0.0,0.0,0.0,0.0,0.0,0.0,0.0,0.0,0.0,0.0,0.0,0.0,0.0,0.0,0.0,0.0,0.0,0.0,0.0,0.0,0.0,0.0,0.0,0.0,0.0,0.0,0.0,0.0,0.0,0.0,0.0,0.0,0.0,0.0,0.0,0.0,0.0,0.0,0.0,0.0,0.0,0.0,0.0,0.0,0.0,0.0,0.0,0.0,0.0,0.0,0.0,0.0,0.0,0.0,0.0,0.0,0.0,0.0,0.0,0.0,0.0,0.0,0.0,0.0,0.0,0.0,0.0,0.0,0.0,0.0,0.0,0.0,0.0,0.0,0.0,0.0,0.0,0.0,0.0,0.0,0.0,0.0,0.0,0.0,0.0,0.0,0.0,0.0,0.0,0.0,0.0,0.0,0.0,0.0,0.0,0.0,0.0,0.0,0.0,0.0,0.0,0.0,0.0,0.0,0.0,0.0,0.0,0.0,0.0,0.0,0.0,0.0,0.0,0.0,0.0,0.0,0.0,0.0,0.0,0.0,0.0,0.0,0.0,0.0,0.0,0.0,0.0,0.0,0.0,0.0,0.0,0.0,0.0,0.0,0.0,0.0,0.0,0.0,0.0,0.0,0.0,0.0,0.0,0.0,0.0,0.0,0.0,0.0,0.0,0.0,0.0,0.0,0.0,0.0,0.0,0.0,0.0,0.0,0.0,0.0,0.0,0.0,0.0,0.0,0.0,0.0,0.0,0.0,0.0,0.0,0.0,0.0,0.0,0.0,0.0,0.0,0.0,0.0,0.0,0.0,0.0,0.0,0.0,0.0,0.0,0.0,0.0,0.0,0.0,0.0,0.0,0.0,0.0,0.0,0.0,0.0,0.0,0.0,0.0,0.0,0.0,0.0,0.0,0.0,0.0,0.0,0.0,0.0,0.0,0.0,0.0,0.0,0.0,0.0,0.0,0.0,0.0,0.0,0.0,0.0,0.0,0.0,0.0,0.0,0.0,0.0,0.0,0.0,0.0,0.0,0.0,0.0,0.0,0.0,0.0,0.0,0.0,0.0,0.0,0.0,0.0,0.0,0.0,0.0,0.0,0.0,0.0,0.0,0.0,0.0,0.0,0.0,0.0,0.0,0.0,0.0,0.0,0.0,0.0,0.0,0.0,0.0,0.0,0.0,0.0,0.0,0.0,0.0,0.0,0.0,0.0,0.0,0.0,0.0,0.0,0.0,0.0,0.0,0.0,0.0,0.0,0.0,0.0,0.0,0.0,0.0,0.0,0.0,0.0,0.0,0.0,0.0,0.0,0.0,0.0,0.0,0.0,0.0,0.0,0.0,0.0,0.0,0.0,0.0,0.0,0.0,0.0,0.0,0.0,0.0,0.0,0.0,0.0,0.0,0.0,0.0,0.0,0.0,0.0,0.0,0.0,0.0,0.0,0.0,0.0,0.0,0.0,0.0,0.0,0.0,0.0,0.0,0.0,0.0,0.0,0.0,0.0,0.0,0.0,0.0,0.0,0.0,0.0,0.0,0.0,0.0,0.0,0.0,0.0,0.0,0.0,0.0,0.0,0.0,0.0,0.0,0.0,0.0,0.0,0.0,0.0,0.0,0.0,0.0,0.0,0.0,0.0,0.0,0.0,0.0,0.0,0.0,0.0,0.0,0.0,0.0,0.0,0.0,0.0,0.0,0.0,0.0,0.0,0.0,0.0,0.0,0.0,0.0,0.0,0.0,0.0,0.0,0.0,0.0,0.0,0.0,0.0,0.0,0.0,0.0,0.0,0.0,0.0,0.0,0.0,0.0,0.0,0.0,0.0,0.0,0.0,0.0,0.0,0.0,0.0,0.0,0.0,0.0,0.0,0.0,0.0,1.1201,0.0,0.0,0.0,1.0607,0.0,0.0,0.0,0.0,0.0,0.0,0.0,0.0,0.0,0.0,0.0,0.0,0.0,0.0,0.0,0.0,0.0,0.0,0.0,0.0,0.0,0.0,0.0,0.0,0.0,0.0,0.0,0.0,0.0,0.0,0.0,0.0,0.0,0.0,0.0,0.0,0.0,0.0,0.0,0.0,0.0,0.0,0.0,0.0,0.0,0.0,0.0,0.0,0.0,0.0,0.0,0.0,0.0,0.0,0.0,0.0,0.0,0.0,0.0,0.0,0.0,0.0,0.0,0.0,0.0,0.0,0.0,0.0,0.0,0.0,0.0,0.0,0.0,0.0,0.0,0.0,0.0,0.0,0.0,0.0,0.0,0.0,0.0,0.0,0.0,0.0,0.0,0.0,0.0,0.0,0.0,0.0,0.0,0.0,0.0,0.0,0.0,0.0,0.0,0.0,0.0,0.0,0.0,0.0,0.0,0.0,0.0,0.0,0.0,0.0,1.1344,1.1219,1.1214,1.1161,1.1044,0.0,0.0,0.0,0.0,0.0,0.0,0.0,0.0,0.0,0.0,0.0,0.0,0.0,0.0,0.0,0.0,0.0,0.0,0.0,0.0,0.0,0.0,0.0,0.0,0.0,0.0,0.0,0.0,0.0,0.0,0.0,0.0,0.0,0.0,0.0,0.0,0.0,0.0,0.0,0.0,0.0,0.0,0.0,0.0,0.0,0.0,0.0,0.0,0.0,0.0,0.0,0.0,0.0,0.0,0.0,0.0,0.0,0.0,0.0,0.0,0.0,0.0,0.0,0.0,0.0,0.0,0.0,0.0,0.0,0.0,0.0,0.0,0.0,0.0,0.0,0.0,0.0,0.0,0.0,0.0,0.0,0.0,0.0,0.0,0.0,0.0,0.0,0.0,0.0,0.0,0.0,0.0,0.0,0.0,0.0,0.0,0.0,0.0,0.0,0.0,0.0,0.0,0.0,0.0,0.0,0.0,0.0,0.0,0.0,0.0,0.0,0.0,1.1513,1.1472,1.1397,0.0,0.0,0.0,0.0,0.0,0.0,0.0,0.0,0.0,0.0,0.0,0.0,0.0,0.0,0.0,0.0,0.0,0.0,0.0,0.0,0.0,0.0,0.0,0.0,0.0,0.0,0.0,0.0,0.0,0.0,0.0,0.0,0.0,0.0,0.0,0.0,0.0,0.0,0.0,0.0,0.0,0.0,0.0,0.0,0.0,0.0,0.0,0.0,0.0,0.0,0.0,0.0,0.0,0.0,0.0,0.0,0.0,0.0,0.0,0.0,0.0,0.0,0.0,0.0,0.0,0.0,0.0,0.0,0.0,0.0,0.0,0.0,0.0,0.0,0.0,0.0,0.0,0.0,0.0,0.0,0.0,0.0,0.0,0.0,0.0,0.0,0.0,0.0,0.0,0.0,0.0,0.0,0.0,0.0,0.0,0.0,0.0,0.0,0.0,0.0,0.0,0.0,0.0,0.0,0.0,0.0,0.0,0.0,0.0,0.0,1.2104,1.1864,1.1864,0.0,1.1411,0.0,0.0,0.0,0.0,0.0,0.0,0.0,0.0,0.0,0.0,0.0,0.0,0.0,0.0,0.0,0.0,0.0,0.0,0.0,0.0,0.0,0.0,0.0,0.0,0.0,0.0,0.0,0.0,0.0,0.0,0.0,0.0,0.0,0.0,0.0,0.0,0.0,0.0,0.0,0.0,0.0,0.0,0.0,0.0,0.0,0.0,0.0,0.0,0.0,0.0,0.0,0.0,0.0,0.0,0.0,0.0,0.0,0.0,0.0,0.0,0.0,0.0,0.0,0.0,0.0,0.0,0.0,0.0,0.0,0.0,0.0,0.0,0.0,0.0,0.0,0.0,0.0,0.0,0.0,0.0,0.0,0.0,0.0,0.0,0.0,0.0,0.0,0.0,0.0,0.0,0.0,0.0,0.0,0.0,0.0,0.0,0.0,0.0,0.0,0.0,0.0,0.0,0.0,0.0,0.0,0.0,0.0,0.0,0.0,0.0,1.2617,1.2675,1.2506,1.2288,0.0,0.0,0.0,0.0,0.0,0.0,0.0,0.0,0.0,0.0,0.0,0.0,0.0,0.0,0.0,0.0,0.0,0.0,0.0,0.0,0.0,0.0,0.0,0.0,0.0,0.0,0.0,0.0,0.0,0.0,0.0,0.0,0.0,0.0,0.0,0.0,0.0,0.0,0.0,0.0,0.0,0.0,0.0,0.0,0.0,0.0,0.0,0.0,0.0,0.0,0.0,0.0,0.0,0.0,0.0,0.0,0.0,0.0,0.0,0.0,0.0,0.0,0.0,0.0,0.0,0.0,0.0,0.0,0.0,0.0,0.0,0.0,0.0,0.0,0.0,0.0,0.0,0.0,0.0,0.0,0.0,0.0,0.0,0.0,0.0,0.0,0.0,0.0,0.0,0.0,0.0,0.0,0.0,0.0,0.0,0.0,0.0,0.0,0.0,0.0,0.0,0.0,0.0,0.0,0.0,0.0,0.0,0.0,0.0,0.0,1.2778,1.2996,1.3177,1.2945,1.2686,1.2448,0.0,0.0,0.0,0.0,0.0,0.0,0.0,0.0,0.0,0.0,0.0,0.0,0.0,0.0,0.0,0.0,0.0,0.0,0.0,0.0,0.0,0.0,0.0,0.0,0.0,0.0,0.0,0.0,0.0,0.0,0.0,0.0,0.0,0.0,0.0,0.0,0.0,0.0,0.0,0.0,0.0,0.0,0.0,0.0,0.0,0.0,0.0,0.0,0.0,0.0,0.0,0.0,0.0,0.0,0.0,0.0,0.0,0.0,0.0,0.0,0.0,0.0,0.0,0.0,0.0,0.0,0.0,0.0,0.0,0.0,0.0,0.0,0.0,0.0,0.0,0.0,0.0,0.0,0.0,0.0,0.0,0.0,0.0,0.0,0.0,0.0,0.0,0.0,0.0,0.0,0.0,0.0,0.0,0.0,0.0,0.0,0.0,0.0,0.0,0.0,0.0,0.0,0.0,0.0,0.0,0.0,0.0,0.0,1.315,1.3177,1.32,1.3193,1.2945,1.2793,0.0,0.0,0.0,0.0,0.0,0.0,0.0,0.0,0.0,0.0,0.0,0.0,0.0,0.0,0.0,0.0,0.0,0.0,0.0,0.0,0.0,0.0,0.0,0.0,0.0,0.0,0.0,0.0,0.0,0.0,0.0,0.0,0.0,0.0,0.0,0.0,0.0,0.0,0.0,0.0,0.0,0.0,0.0,0.0,0.0,0.0,0.0,0.0,0.0,0.0,0.0,0.0,0.0,0.0,0.0,0.0,0.0,0.0,0.0,0.0,0.0,0.0,0.0,0.0,0.0,0.0,0.0,0.0,0.0,0.0,0.0,0.0,0.0,0.0,0.0,0.0,0.0,0.0,0.0,0.0,0.0,0.0,0.0,0.0,0.0,0.0,0.0,0.0,0.0,0.0,0.0,0.0,0.0,0.0,0.0,0.0,0.0,0.0,0.0,0.0,0.0,0.0,0.0,0.0,0.0,0.0,0.0,0.0,0.0,1.345,1.3671,1.3671,1.3463,1.3377,1.3166,0.0,0.0,0.0,0.0,0.0,0.0,0.0,0.0,0.0,0.0,0.0,0.0,0.0,0.0,0.0,0.0,0.0,0.0,0.0,0.0,0.0,0.0,0.0,0.0,0.0,0.0,0.0,0.0,0.0,0.0,0.0,0.0,0.0,0.0,0.0,0.0,0.0,0.0,0.0,0.0,0.0,0.0,0.0,0.0,0.0,0.0,0.0,0.0,0.0,0.0,0.0,0.0,0.0,0.0,0.0,0.0,0.0,0.0,0.0,0.0,0.0,0.0,0.0,0.0,0.0,0.0,0.0,0.0,0.0,0.0,0.0,0.0,0.0,0.0,0.0,0.0,0.0,0.0,0.0,0.0,0.0,0.0,0.0,0.0,0.0,0.0,0.0,0.0,0.0,0.0,0.0,0.0,0.0,0.0,0.0,0.0,0.0,0.0,0.0,0.0,0.0,0.0,0.0,0.0,0.0,0.0,0.0,0.0,0.0,1.388,1.4028,1.4031,1.3882,1.3683,1.3474,0.0,0.0,0.0,0.0,0.0,0.0,0.0,0.0,0.0,0.0,0.0,0.0,0.0,0.0,0.0,0.0,0.0,0.0,0.0,0.0,0.0,0.0,0.0,0.0,0.0,0.0,0.0,0.0,0.0,0.0,0.0,0.0,0.0,0.0,0.0,0.0,0.0,0.0,0.0,0.0,0.0,0.0,0.0,0.0,0.0,0.0,0.0,0.0,0.0,0.0,0.0,0.0,0.0,0.0,0.0,0.0,0.0,0.0,0.0,0.0,0.0,0.0,0.0,0.0,0.0,0.0,0.0,0.0,0.0,0.0,0.0,0.0,0.0,0.0,0.0,0.0,0.0,0.0,0.0,0.0,0.0,0.0,0.0,0.0,0.0,0.0,0.0,0.0,0.0,0.0,0.0,0.0,0.0,0.0,0.0,0.0,0.0,0.0,0.0,0.0,0.0,0.0,0.0,0.0,0.0,0.0,0.0,0.0,1.4229,1.4474,1.4242,1.4266,1.4474,1.3933,1.378,0.0,0.0,0.0,0.0,0.0,0.0,0.0,0.0,0.0,0.0,0.0,0.0,0.0,0.0,0.0,0.0,0.0,0.0,0.0,0.0,0.0,0.0,0.0,0.0,0.0,0.0,0.0,0.0,0.0,0.0,0.0,0.0,0.0,0.0,0.0,0.0,0.0,0.0,0.0,0.0,0.0,0.0,0.0,0.0,0.0,0.0,0.0,0.0,0.0,0.0,0.0,0.0,0.0,0.0,0.0,0.0,0.0,0.0,0.0,0.0,0.0,0.0,0.0,0.0,0.0,0.0,0.0,0.0,0.0,0.0,0.0,0.0,0.0,0.0,0.0,0.0,0.0,0.0,0.0,0.0,0.0,0.0,0.0,0.0,0.0,0.0,0.0,0.0,0.0,0.0,0.0,0.0,0.0,0.0,0.0,0.0,0.0,0.0,0.0,0.0,0.0,0.0,0.0,0.0,0.0,0.0,0.0,0.0,0.0,1.4839,1.4758,1.4758,1.4839,1.4665,1.4426,0.0,0.0,0.0,0.0,0.0,0.0,0.0,0.0,0.0,0.0,0.0,0.0,0.0,0.0,0.0,0.0,0.0,0.0,0.0,0.0,0.0,0.0,0.0,0.0,0.0,0.0,0.0,0.0,0.0,0.0,0.0,0.0,0.0,0.0,0.0,0.0,0.0,0.0,0.0,0.0,0.0,0.0,0.0,0.0,0.0,0.0,0.0,0.0,0.0,0.0,0.0,0.0,0.0,0.0,0.0,0.0,0.0,0.0,0.0,0.0,0.0,0.0,0.0,0.0,0.0,0.0,0.0,0.0,0.0,0.0,0.0,0.0,0.0,0.0,0.0,0.0,0.0,0.0,0.0,0.0,0.0,0.0,0.0,0.0,0.0,0.0,0.0,0.0,0.0,0.0,0.0,0.0,0.0,0.0,0.0,0.0,0.0,0.0,0.0,0.0,0.0,0.0,0.0,0.0,0.0,0.0,0.0,0.0,0.0,1.6099,1.5804,1.5695,1.5826,1.5707,1.5307,1.4635,0.0,0.0,0.0,0.0,0.0,0.0,0.0,0.0,0.0,0.0,0.0,0.0,0.0,0.0,0.0,0.0,0.0,0.0,0.0,0.0,0.0,0.0,0.0,0.0,0.0,0.0,0.0,0.0,0.0,0.0,0.0,0.0,0.0,0.0,0.0,0.0,0.0,0.0,0.0,0.0,0.0,0.0,0.0,0.0,0.0,0.0,0.0,0.0,0.0,0.0,0.0,0.0,0.0,0.0,0.0,0.0,0.0,0.0,0.0,0.0,0.0,0.0,0.0,0.0,0.0,0.0,0.0,0.0,0.0,0.0,0.0,0.0,0.0,0.0,0.0,0.0,0.0,0.0,0.0,0.0,0.0,0.0,0.0,0.0,0.0,0.0,0.0,0.0,0.0,0.0,0.0,0.0,0.0,0.0,0.0,0.0,0.0,0.0,0.0,0.0,0.0,0.0,0.0,0.0,0.0,0.0,0.0,0.0,1.8129,1.7382,1.7114,1.73,1.694,1.6365,0.0,0.0,0.0,0.0,0.0,0.0,0.0,0.0,0.0,0.0,0.0,0.0,0.0,0.0,0.0,0.0,0.0,0.0,0.0,0.0,0.0,0.0,0.0,0.0,0.0,0.0,0.0,0.0,0.0,0.0,0.0,0.0,0.0,0.0,0.0,0.0,0.0,0.0,0.0,0.0,0.0,0.0,0.0,0.0,0.0,0.0,0.0,0.0,0.0,0.0,0.0,0.0,0.0,0.0,0.0,0.0,0.0,0.0,0.0,0.0,0.0,0.0,0.0,0.0,0.0,0.0,0.0,0.0,0.0,0.0,0.0,0.0,0.0,0.0,0.0,0.0,0.0,0.0,0.0,0.0,0.0,0.0,0.0,0.0,0.0,0.0,0.0,0.0,0.0,0.0,0.0,0.0,0.0,0.0,0.0,0.0,0.0,0.0,0.0,0.0,0.0,0.0,0.0,0.0,0.0,0.0,0.0,0.0,0.0,1.9597,2.0265,2.0042,1.8853,1.7876,1.7487,0.0,0.0,0.0,0.0,0.0,0.0,0.0,0.0,0.0,0.0,0.0,0.0,0.0,0.0,0.0,0.0,0.0,0.0,0.0,0.0,0.0,0.0,0.0,0.0,0.0,0.0,0.0,0.0,0.0,0.0,0.0,0.0,0.0,0.0,0.0,0.0,0.0,0.0,0.0,0.0,0.0,0.0,0.0,0.0,0.0,0.0,0.0,0.0,0.0,0.0,0.0,0.0,0.0,0.0,0.0,0.0,0.0,0.0,0.0,0.0,0.0,0.0,0.0,0.0,0.0,0.0,0.0,0.0,0.0,0.0,0.0,0.0,0.0,0.0,0.0,0.0,0.0,0.0,0.0,0.0,0.0,0.0,0.0,0.0,0.0,0.0,0.0,0.0,0.0,0.0,0.0,0.0,0.0,0.0,0.0,0.0,0.0,0.0,0.0,0.0,0.0,0.0,0.0,0.0,0.0,0.0,0.0,0.0,1.9598,2.0557,2.1991,2.2578,2.2184,1.9802,1.8604,0.0,0.0,0.0,0.0,0.0,0.0,0.0,0.0,0.0,0.0,0.0,0.0,0.0,0.0,0.0,0.0,0.0,0.0,0.0,0.0,0.0,0.0,0.0,0.0,0.0,0.0,0.0,0.0,0.0,0.0,0.0,0.0,0.0,0.0,0.0,0.0,0.0,0.0,0.0,0.0,0.0,0.0,0.0,0.0,0.0,0.0,0.0,0.0,0.0,0.0,0.0,0.0,0.0,0.0,0.0,0.0,0.0,0.0,0.0,0.0,0.0,0.0,0.0,0.0,0.0,0.0,0.0,0.0,0.0,0.0,0.0,0.0,0.0,0.0,0.0,0.0,0.0,0.0,0.0,0.0,0.0,0.0,0.0,0.0,0.0,0.0,0.0,0.0,0.0,0.0,0.0,0.0,0.0,0.0,0.0,0.0,0.0,0.0,0.0,0.0,0.0,0.0,0.0,0.0,0.0,0.0,0.0,0.0,2.1118,2.1551,2.3382,2.4999,2.6107,2.2216,1.993,0.0,0.0,0.0,0.0,0.0,0.0,0.0,0.0,0.0,0.0,0.0,0.0,0.0,0.0,0.0,0.0,0.0,0.0,0.0,0.0,0.0,0.0,0.0,0.0,0.0,0.0,0.0,0.0,0.0,0.0,0.0,0.0,0.0,0.0,0.0,0.0,0.0,0.0,0.0,0.0,0.0,0.0,0.0,0.0,0.0,0.0,0.0,0.0,0.0,0.0,0.0,0.0,0.0,0.0,0.0,0.0,0.0,0.0,0.0,0.0,0.0,0.0,0.0,0.0,0.0,0.0,0.0,0.0,0.0,0.0,0.0,0.0,0.0,0.0,0.0,0.0,0.0,0.0,0.0,0.0,0.0,0.0,0.0,0.0,0.0,0.0,0.0,0.0,0.0,0.0,0.0,0.0,0.0,0.0,0.0,0.0,0.0,0.0,0.0,0.0,0.0,0.0,0.0,0.0,0.0,0.0,0.0,0.0,2.3079,2.4351,2.6778,2.8106,2.8179,2.3814,2.2184,0.0,0.0,0.0,0.0,0.0,0.0,0.0,0.0,0.0,0.0,0.0,0.0,0.0,0.0,0.0,0.0,0.0,0.0,0.0,0.0,0.0,0.0,0.0,0.0,0.0,0.0,0.0,0.0,0.0,0.0,0.0,0.0,0.0,0.0,0.0,0.0,0.0,0.0,0.0,0.0,0.0,0.0,0.0,0.0,0.0,0.0,0.0,0.0,1.8401,0.0,0.0,0.0,0.0,0.0,0.0,0.0,0.0,0.0,0.0,0.0,0.0,0.0,0.0,0.0,0.0,0.0,0.0,0.0,0.0,0.0,0.0,0.0,0.0,0.0,0.0,0.0,0.0,0.0,0.0,0.0,0.0,0.0,0.0,0.0,0.0,0.0,0.0,0.0,0.0,0.0,0.0,0.0,0.0,0.0,0.0,0.0,0.0,0.0,0.0,0.0,0.0,0.0,0.0,0.0,0.0,0.0,0.0,0.0,2.4854,2.6719,2.8538,2.9853,3.0472,2.7517,2.5567,0.0,0.0,0.0,0.0,0.0,0.0,0.0,0.0,0.0,0.0,0.0,0.0,0.0,0.0,0.0,0.0,0.0,0.0,0.0,0.0,0.0,0.0,0.0,0.0,0.0,0.0,0.0,0.0,0.0,0.0,0.0,0.0,0.0,0.0,0.0,0.0,0.0,0.0,0.0,0.0,0.0,0.0,0.0,0.0,0.0,0.0,0.0,0.0,0.0,0.0,0.0,0.0,0.0,0.0,0.0,0.0,0.0,0.0,0.0,0.0,0.0,0.0,0.0,0.0,0.0,0.0,0.0,0.0,0.0,0.0,0.0,0.0,0.0,0.0,0.0,0.0,0.0,0.0,0.0,0.0,0.0,0.0,0.0,0.0,0.0,0.0,0.0,0.0,0.0,0.0,0.0,0.0,0.0,0.0,0.0,0.0,0.0,0.0,0.0,0.0,0.0,0.0,0.0,0.0,0.0,0.0,0.0,2.4862,2.6713,2.905,3.0097,3.1421,3.3054,3.1582,2.9167,2.5843,0.0,0.0,0.0,0.0,0.0,0.0,0.0,0.0,0.0,0.0,0.0,0.0,0.0,0.0,0.0,0.0,0.0,0.0,0.0,0.0,0.0,0.0,0.0,0.0,0.0,0.0,0.0,0.0,0.0,0.0,0.0,0.0,0.0,0.0,0.0,0.0,0.0,0.0,1.5287,1.5637,0.0,0.0,0.0,0.0,0.0,0.0,0.0,0.0,2.0062,0.0,0.0,0.0,0.0,0.0,0.0,0.0,0.0,0.0,0.0,0.0,0.0,0.0,0.0,0.0,0.0,0.0,0.0,0.0,0.0,0.0,0.0,0.0,0.0,0.0,0.0,0.0,0.0,0.0,0.0,0.0,0.0,0.0,0.0,0.0,0.0,0.0,0.0,0.0,0.0,0.0,0.0,0.0,0.0,0.0,0.0,0.0,0.0,0.0,0.0,0.0,0.0,0.0,0.0,0.0,0.0,2.4886,2.69,2.9252,3.196,3.3407,3.445,3.5048,3.3579,3.1512,2.8935,0.0,0.0,0.0,0.0,0.0,0.0,0.0,0.0,0.0,0.0,0.0,0.0,0.0,0.0,0.0,0.0,0.0,0.0,0.0,0.0,0.0,0.0,0.0,0.0,0.0,0.0,0.0,0.0,0.0,0.0,0.0,0.0,0.0,0.0,0.0,0.0,0.0,0.0,0.0,1.6888,1.7129,0.0,0.0,0.0,0.0,0.0,0.0,0.0,0.0,2.315,0.0,0.0,0.0,0.0,0.0,0.0,0.0,0.0,0.0,0.0,0.0,0.0,0.0,0.0,0.0,0.0,0.0,0.0,0.0,0.0,0.0,0.0,0.0,0.0,0.0,0.0,0.0,0.0,0.0,0.0,0.0,0.0,0.0,0.0,0.0,0.0,0.0,0.0,0.0,0.0,0.0,0.0,0.0,0.0,0.0,0.0,0.0,0.0,0.0,0.0,0.0,0.0,0.0,0.0,0.0,2.7453,2.954,3.1788,3.4123,3.4939,3.5596,3.6145,3.4441,3.2478,0.0,0.0,0.0,0.0,0.0,0.0,0.0,0.0,0.0,0.0,0.0,0.0,0.0,0.0,0.0,0.0,0.0,0.0,0.0,0.0,0.0,0.0,0.0,0.0,0.0,0.0,0.0,0.0,0.0,0.0,0.0,0.0,0.0,0.0,0.0,0.0,0.0,0.0,0.0,0.0,1.8882,1.9529,2.0642,0.0,0.0,0.0,0.0,0.0,0.0,2.4734,2.443,0.0,0.0,0.0,0.0,0.0,0.0,0.0,0.0,0.0,0.0,0.0,0.0,0.0,0.0,0.0,0.0,0.0,0.0,0.0,0.0,0.0,0.0,0.0,0.0,0.0,0.0,0.0,0.0,0.0,0.0,0.0,0.0,0.0,0.0,0.0,0.0,0.0,0.0,0.0,0.0,0.0,0.0,0.0,0.0,0.0,0.0,0.0,0.0,0.0,0.0,0.0,0.0,0.0,0.0,0.0,2.9923,3.1944,3.3945,3.5852,3.587,3.6182,3.6841,3.4661,3.2661,0.0,0.0,0.0,0.0,0.0,0.0,0.0,0.0,0.0,0.0,0.0,0.0,0.0,0.0,0.0,0.0,0.0,0.0,0.0,0.0,0.0,0.0,0.0,0.0,0.0,0.0,0.0,0.0,0.0,0.0,0.0,0.0,0.0,0.0,0.0,0.0,0.0,0.0,0.0,0.0,0.0,2.1455,2.1832,2.2351,0.0,0.0,0.0,0.0,2.6354,2.6177,0.0,0.0,0.0,0.0,0.0,0.0,0.0,0.0,0.0,0.0,0.0,0.0,0.0,0.0,0.0,0.0,0.0,0.0,0.0,0.0,0.0,0.0,0.0,0.0,0.0,0.0,0.0,0.0,0.0,0.0,0.0,0.0,0.0,0.0,0.0,0.0,0.0,0.0,0.0,0.0,0.0,0.0,0.0,0.0,0.0,0.0,0.0,0.0,0.0,0.0,0.0,0.0,0.0,0.0,0.0,0.0,3.1137,3.3173,3.5174,3.7062,3.6841,3.686,3.7282,3.4001,3.1946,0.0,0.0,0.0,0.0,0.0,0.0,0.0,0.0,0.0,0.0,0.0,0.0,0.0,0.0,0.0,0.0,0.0,0.0,0.0,0.0,0.0,0.0,0.0,0.0,0.0,0.0,0.0,0.0,0.0,0.0,0.0,0.0,0.0,0.0,0.0,0.0,0.0,0.0,0.0,0.0,0.0,2.0875,2.2301,2.2112,2.2179,0.0,0.0,2.8181,2.8814,3.0519,0.0,0.0,0.0,0.0,0.0,0.0,0.0,0.0,0.0,0.0,0.0,0.0,0.0,0.0,0.0,0.0,0.0,0.0,0.0,0.0,0.0,0.0,0.0,0.0,0.0,0.0,0.0,0.0,0.0,0.0,0.0,0.0,0.0,0.0,0.0,0.0,0.0,0.0,0.0,0.0,0.0,0.0,0.0,0.0,0.0,0.0,0.0,0.0,0.0,0.0,0.0,0.0,0.0,0.0,0.0,2.9709,3.1446,3.4496,3.6512,3.7355,3.7245,3.7337,3.7741,3.4221,3.2148,0.0,0.0,0.0,0.0,0.0,0.0,0.0,0.0,0.0,0.0,0.0,0.0,0.0,0.0,0.0,0.0,0.0,0.0,0.0,0.0,0.0,0.0,0.0,0.0,0.0,0.0,0.0,0.0,0.0,0.0,0.0,0.0,0.0,0.0,0.0,0.0,0.0,0.0,0.0,0.0,0.0,0.0,2.3236,2.5322,0.0,0.0,0.0,3.0088,2.9301,0.0,0.0,0.0,0.0,0.0,0.0,0.0,0.0,0.0,0.0,0.0,0.0,0.0,0.0,0.0,0.0,0.0,0.0,0.0,0.0,0.0,0.0,0.0,0.0,0.0,0.0,0.0,0.0,0.0,0.0,0.0,0.0,0.0,0.0,0.0,0.0,0.0,0.0,0.0,0.0,0.0,0.0,0.0,0.0,0.0,0.0,0.0,0.0,0.0,0.0,0.0,0.0,0.0,0.0,0.0,0.0,0.0,3.1907,3.5614,3.7648,3.7831,3.7648,3.7721,3.8088,3.5027,0.0,0.0,0.0,0.0,0.0,0.0,0.0,0.0,0.0,0.0,0.0,0.0,0.0,0.0,0.0,0.0,0.0,0.0,0.0,0.0,0.0,0.0,0.0,0.0,0.0,0.0,0.0,1.9841,0.0,0.0,0.0,0.0,0.0,0.0,0.0,0.0,0.0,0.0,0.0,0.0,0.0,0.0,2.6345,2.5091,2.8255,3.0093,0.0,0.0,3.154,3.0781,3.3286,3.4101,0.0,0.0,0.0,0.0,0.0,0.0,0.0,0.0,0.0,0.0,0.0,0.0,0.0,0.0,0.0,0.0,0.0,0.0,0.0,0.0,0.0,0.0,0.0,0.0,0.0,0.0,0.0,0.0,0.0,0.0,0.0,0.0,0.0,0.0,0.0,0.0,0.0,0.0,0.0,0.0,0.0,0.0,0.0,0.0,0.0,0.0,0.0,0.0,0.0,0.0,0.0,0.0,0.0,0.0,3.1893,3.3122,3.6292,3.8327,3.9023,3.8345,3.8143,3.8508,3.6512,3.4637,0.0,0.0,0.0,0.0,0.0,0.0,0.0,0.0,0.0,0.0,0.0,0.0,0.0,0.0,0.0,0.0,0.0,0.0,0.0,0.0,0.0,0.0,0.0,0.0,0.0,0.0,0.0,0.0,0.0,0.0,0.0,0.0,0.0,0.0,0.0,0.0,0.0,0.0,0.0,0.0,0.0,2.826,2.8498,2.9363,3.062,0.0,3.2318,3.2737,3.4663,3.616,3.6074,3.3027,0.0,0.0,0.0,0.0,0.0,0.0,0.0,0.0,0.0,0.0,0.0,0.0,0.0,0.0,0.0,0.0,0.0,0.0,0.0,0.0,0.0,0.0,0.0,0.0,0.0,0.0,0.0,0.0,0.0,0.0,0.0,0.0,0.0,0.0,0.0,0.0,0.0,0.0,0.0,0.0,0.0,0.0,0.0,0.0,0.0,0.0,0.0,0.0,0.0,0.0,0.0,0.0,0.0,3.2608,3.3598,3.6988,3.8875,3.9188,3.8913,3.8692,3.86,3.7161,3.5476,0.0,0.0,0.0,0.0,0.0,0.0,0.0,0.0,0.0,0.0,0.0,0.0,0.0,0.0,0.0,0.0,0.0,0.0,0.0,0.0,0.0,0.0,0.0,0.0,0.0,0.0,0.0,0.0,2.6067,2.6582,2.6062,0.0,0.0,0.0,0.0,0.0,0.0,0.0,0.0,0.0,0.0,3.0006,3.0594,3.2389,0.0,0.0,3.4835,3.5397,3.5716,3.6623,3.6289,3.3297,3.2578,0.0,0.0,0.0,0.0,0.0,0.0,0.0,0.0,0.0,0.0,0.0,0.0,0.0,0.0,0.0,0.0,0.0,0.0,0.0,0.0,0.0,0.0,0.0,0.0,0.0,0.0,0.0,1.939,0.0,0.0,0.0,0.0,0.0,0.0,0.0,0.0,0.0,0.0,0.0,0.0,0.0,0.0,0.0,0.0,0.0,0.0,0.0,0.0,0.0,0.0,0.0,0.0,3.3248,3.3799,3.7503,3.941,3.941,3.941,3.9377,3.9314,3.8336,3.7016,3.5378,0.0,0.0,0.0,0.0,0.0,0.0,0.0,0.0,0.0,0.0,0.0,0.0,0.0,0.0,0.0,0.0,0.0,0.0,0.0,0.0,0.0,0.0,0.0,0.0,0.0,0.0,0.0,2.7409,2.7871,2.7278,0.0,0.0,0.0,0.0,0.0,0.0,0.0,0.0,0.0,0.0,3.2691,3.3221,3.4952,3.6051,3.5683,3.6253,3.6641,3.6426,3.6779,3.6404,3.4313,0.0,0.0,0.0,0.0,0.0,0.0,0.0,0.0,0.0,0.0,0.0,0.0,0.0,0.0,0.0,0.0,0.0,0.0,0.0,0.0,0.0,0.0,0.0,0.0,0.0,0.0,0.0,2.2817,0.0,0.0,2.28,0.0,0.0,0.0,0.0,0.0,0.0,0.0,0.0,0.0,0.0,0.0,0.0,0.0,0.0,0.0,0.0,0.0,0.0,0.0,0.0,0.0,0.0,3.3799,3.3854,3.7835,3.9893,3.9913,3.9893,4.0243,4.0967,4.026,3.959,3.9011,0.0,0.0,0.0,0.0,0.0,0.0,0.0,0.0,0.0,0.0,0.0,0.0,0.0,0.0,0.0,0.0,0.0,0.0,0.0,0.0,0.0,0.0,0.0,0.0,0.0,0.0,2.3686,2.5974,2.7734,0.0,0.0,0.0,0.0,0.0,0.0,0.0,0.0,0.0,3.0894,3.416,3.6545,3.6517,3.6643,3.6818,3.7215,3.6274,3.5898,3.709,3.697,3.6677,0.0,0.0,0.0,0.0,0.0,0.0,0.0,0.0,0.0,0.0,0.0,0.0,0.0,0.0,0.0,0.0,0.0,0.0,0.0,0.0,0.0,0.0,0.0,0.0,0.0,0.0,0.0,2.6164,2.6164,0.0,0.0,0.0,0.0,0.0,0.0,0.0,0.0,0.0,0.0,0.0,3.1192,3.1322,0.0,0.0,0.0,0.0,0.0,0.0,0.0,0.0,0.0,0.0,0.0,0.0,3.4894,3.5587,3.8909,4.0853,4.1161,4.1161,4.1186,4.1177,4.1176,4.0697,3.9676,0.0,0.0,0.0,0.0,0.0,0.0,0.0,0.0,0.0,0.0,0.0,0.0,0.0,0.0,0.0,0.0,0.0,0.0,0.0,0.0,0.0,0.0,0.0,0.0,0.0,2.7024,0.0,0.0,0.0,0.0,0.0,0.0,0.0,0.0,0.0,0.0,3.0936,3.2478,3.3357,3.4574,3.57,3.656,3.6931,3.7557,0.0,0.0,3.7307,0.0,0.0,0.0,0.0,0.0,0.0,0.0,0.0,0.0,0.0,3.4668,3.3652,3.166,3.1973,3.2559,3.2539,0.0,0.0,0.0,0.0,0.0,0.0,0.0,0.0,0.0,0.0,0.0,0.0,0.0,0.0,2.8385,2.8054,2.8454,0.0,0.0,0.0,0.0,0.0,0.0,0.0,0.0,3.2543,3.3579,3.4335,3.4623,3.4884,3.5094,3.4883,3.3277,0.0,0.0,0.0,0.0,0.0,0.0,0.0,0.0,3.6123,3.6826,4.0054,4.1923,4.2235,4.2387,4.2394,4.2292,4.255,4.218,4.1035,3.8535,3.6562,0.0,0.0,0.0,0.0,0.0,0.0,0.0,0.0,0.0,0.0,0.0,0.0,0.0,0.0,0.0,0.0,0.0,0.0,0.0,0.0,0.0,0.0,0.0,2.9076,0.0,0.0,0.0,0.0,0.0,0.0,0.0,0.0,0.0,3.166,3.3082,3.4528,3.5488,3.625,3.6816,3.707,0.0,0.0,0.0,0.0,0.0,0.0,0.0,3.6777,3.6384,3.6311,3.6604,3.748,3.783,3.7969,3.7969,0.0,0.0,3.4883,3.5056,3.5605,3.5605,3.5371,3.5371,3.5954,3.6326,3.666,0.0,0.0,0.0,0.0,2.9122,0.0,0.0,0.0,3.0458,2.9883,0.0,3.0045,0.0,0.0,0.0,0.0,3.0994,3.2899,0.0,0.0,3.7875,3.9052,3.7727,3.8444,3.8859,3.8736,3.7383,3.7051,3.7625,3.6612,3.4712,0.0,0.0,0.0,0.0,0.0,3.7515,3.7778,4.1251,4.3128,4.3211,4.3591,4.3952,4.4301,4.4358,4.3965,4.3126,4.1465,4.0,3.8651,3.5075,0.0,0.0,0.0,0.0,0.0,0.0,0.0,0.0,0.0,0.0,0.0,0.0,0.0,0.0,0.0,0.0,0.0,0.0,0.0,0.0,2.9805,0.0,0.0,0.0,0.0,0.0,0.0,0.0,0.0,0.0,3.3938,3.3199,3.5131,3.6832,3.7187,0.0,0.0,0.0,0.0,3.9708,3.7793,3.7439,3.7479,3.7559,3.8182,3.9061,4.0254,0.0,0.0,4.1758,4.041,3.9394,3.9375,4.0429,4.0468,3.7988,3.7596,3.7578,3.7578,3.7598,3.75,3.7576,3.8397,3.8943,3.3908,0.0,0.0,0.0,0.0,3.2423,3.3211,3.4513,3.4831,3.4768,3.4506,3.5139,0.0,0.0,0.0,0.0,0.0,0.0,3.6254,3.7385,3.8595,3.9615,4.0558,4.0811,4.1266,4.1825,4.1687,4.1728,4.1957,4.2245,3.9605,3.4295,0.0,0.0,0.0,0.0,3.9375,4.068,4.3135,4.4609,4.4948,4.5355,4.5456,4.5316,4.4702,4.4298,4.4044,4.3223,4.1894,4.002,3.8633,0.0,0.0,0.0,0.0,0.0,0.0,0.0,0.0,0.0,0.0,0.0,0.0,0.0,0.0,0.0,0.0,0.0,0.0,0.0,3.0327,3.248,3.3297,0.0,0.0,0.0,0.0,0.0,0.0,0.0,0.0,0.0,3.6931,3.6484,3.6367,0.0,0.0,3.7228,3.7068,3.826,3.9374,3.998,3.9805,4.0001,4.1269,4.0605,4.0195,4.0898,4.168,4.2128,4.1855,4.2129,4.2402,4.2402,4.2715,4.2695,4.209,4.1641,4.1445,4.1445,4.1445,4.1445,4.1484,4.2109,4.2598,3.8245,3.6831,3.5202,3.4923,3.5509,3.5342,3.618,3.7706,3.7802,3.769,3.7464,3.816,3.7416,3.5624,3.5967,0.0,0.0,0.0,3.8975,4.0503,4.0675,4.138,4.2524,4.29,4.3436,4.409,4.4365,4.4759,4.5253,4.4723,4.2571,3.8873,0.0,3.7495,3.7692,3.9893,4.1743,4.3147,4.4871,4.5968,4.6426,4.6504,4.6426,4.6172,4.5351,4.4902,4.4902,4.4473,4.3476,4.1836,4.0898,3.8984,0.0,0.0,0.0,0.0,0.0,0.0,0.0,0.0,0.0,0.0,0.0,2.9004,2.8021,0.0,0.0,0.0,3.2187,3.2754,3.3379,3.4609,0.0,0.0,0.0,0.0,0.0,0.0,0.0,3.4203,3.6779,3.8712,3.8809,3.8223,3.8068,3.8848,3.9005,3.8984,3.8749,0.0,4.1074,4.1601,4.1445,4.1621,4.2637,4.2382,4.2363,4.332,4.4023,4.4375,4.42,4.4609,4.4902,4.4805,4.4863,4.4901,4.4766,4.4796,4.4645,4.4006,4.4025,4.4122,4.4122,4.4815,4.5296,4.2392,4.1668,3.801,3.7255,3.8367,3.7968,3.8652,4.0058,3.9677,3.9127,3.8595,3.966,3.8975,3.6988,3.7734,0.0,4.0298,4.0791,4.1845,4.3305,4.3631,4.3843,4.3941,4.469,4.5271,4.5653,4.5723,4.635,4.7305,4.5078,4.4101,4.4414,4.3653,4.2436,4.1013,4.2766,4.4178,4.5096,4.6287,4.7126,4.764,4.7185,4.6948,4.695,4.6172,4.5725,4.5686,4.5312,4.4705,4.3807,4.2364,4.0898,3.9375,0.0,0.0,0.0,0.0,0.0,0.0,0.0,0.0,0.0,0.0,0.0,0.0,0.0,0.0,3.4075,3.5508,3.6662,3.7383,3.6484,0.0,0.0,0.0,3.6208,3.7342,3.828,3.8633,3.8126,0.0,0.0,3.9609,4.0254,4.125,4.2538,4.3183,4.3144,4.2012,4.3144,4.3906,4.2734,4.2636,4.2695,4.3026,4.3789,4.4824,4.6052,4.7148,4.7132,4.6995,4.6716,4.6482,4.5937,4.6387,4.6423,4.6113,4.6581,4.7036,4.5343,4.55,4.5856,4.5781,4.6376,4.6792,4.3814,4.3649,4.3051,4.1913,4.0474,4.0359,4.055,4.093,4.1135,4.1121,4.0968,4.1575,4.1695,4.1541,4.2006,4.2649,4.3352,4.3794,4.4358,4.5048,4.481,4.5044,4.5669,4.5582,4.5757,4.6116,4.6148,4.6308,4.6562,4.5996,4.5389,4.4862,4.4647,4.4,4.3042,4.3806,4.4805,4.5996,4.6579,4.7263,4.8008,4.7637,4.7422,4.7444,4.6601,4.6018,4.5705,4.59,4.5605,4.4744,4.4648,4.3438,4.0839,3.9003,0.0,0.0,0.0,0.0,0.0,0.0,0.0,0.0,0.0,3.2109,3.084,0.0,3.4964,0.0,3.7734,3.9239,3.8809,3.9394,0.0,0.0,3.8612,3.8789,3.8769,4.0136,4.0625,3.9551,4.082,4.2031,4.2578,4.2812,4.3555,4.5098,4.3555,4.2246,4.2265,4.3144,4.3906,4.3965,4.4433,4.5019,4.5193,4.5605,4.5723,4.5486,4.5859,4.592,4.5273,4.5078,4.4863,4.4433,4.4394,4.4414,4.4474,4.5323,4.6149,4.6044,4.666,4.7098,4.6798,4.7164,4.7409,4.4789,4.4655,4.5122,4.4375,4.2872,4.272,4.2719,4.2893,4.2947,4.3048,4.3222,4.347,4.369,4.3965,4.4415,4.4726,4.5002,4.541,4.5723,4.594,4.5527,4.5566,4.6016,4.5803,4.592,4.6308,4.6484,4.668,4.6855,4.668,4.6306,4.5857,4.5662,4.5351,4.4863,4.4551,4.4844,4.5723,4.6348,4.707,4.7871,4.75,4.7129,4.676,4.6074,4.543,4.4824,4.5019,4.4844,4.4199,4.4375,4.3517,4.1328,3.9922,3.8203,0.0,0.0,0.0,0.0,0.0,0.0,0.0,0.0,0.0,0.0,0.0,3.6855,3.6853,3.9414,4.0566,3.9316,4.0039,4.0449,4.0077,4.0625,4.1191,4.1738,4.2812,4.3183,4.2265,4.3183,4.3984,4.4258,4.4453,4.4844,4.5644,4.4453,4.3692,4.4061,4.457,4.4902,4.498,4.5392,4.5686,4.5742,4.5898,4.5937,4.5703,4.5937,4.6113,4.5881,4.5993,4.5987,4.5553,4.5763,4.5971,4.5854,4.6674,4.7494,4.7557,4.8105,4.8318,4.7727,4.7952,4.8144,4.541,4.5037,4.551,4.5451,4.4979,4.4629,4.4687,4.4979,4.4608,4.4666,4.5018,4.5018,4.5037,4.5115,4.5508,4.5725,4.5803,4.6074,4.625,4.6269,4.59,4.5725,4.5783,4.5783,4.5979,4.6308,4.6638,4.7051,4.7402,4.7009,4.6753,4.6658,4.6328,4.6074,4.5918,4.4863,4.4648,4.533,4.6013,4.6738,4.7483,4.6989,4.6387,4.5625,4.5176,4.453,4.375,4.3691,4.3535,4.3183,4.3184,4.2716,4.1641,4.0332,3.9121,0.0,3.6758,0.0,0.0,0.0,0.0,0.0,0.0,0.0,0.0,3.8126,3.8437,3.912,4.082,4.1348,4.004,4.0371,4.1074,4.2168,4.2597,4.3417,4.4822,4.5312,4.5392,4.4979,4.5273,4.5371,4.5037,4.5371,4.543,4.5232,4.5371,4.5588,4.6133,4.6055,4.582,4.5625,4.5666,4.5627,4.543,4.5586,4.592,4.625,4.657,4.702,4.7201,4.7657,4.7888,4.7511,4.7776,4.8259,4.81,4.8696,4.9206,4.8794,4.9248,4.9398,4.8643,4.8666,4.8905,4.543,4.5037,4.5488,4.543,4.4977,4.492,4.494,4.4998,4.492,4.492,4.4998,4.5018,4.5193,4.5547,4.5666,4.5859,4.6152,4.5918,4.5976,4.6289,4.59,4.5881,4.6172,4.6172,4.623,4.6289,4.6387,4.6465,4.6543,4.6443,4.6074,4.5369,4.5291,4.4902,4.4219,0.0,0.0,0.0,4.6894,4.6872,4.6989,4.6308,4.5664,4.5154,4.4746,0.0,4.373,4.3691,4.3672,4.3594,4.3594,0.0,4.3769,0.0,0.0,0.0,0.0,0.0,3.8945,0.0,0.0,0.0,3.963,3.9376,3.9004,3.9316,4.0292,4.2071,4.2285,4.2734,4.3807,4.4316,4.4689,4.4923,4.5021,4.5099,4.5037,4.4824,4.459,4.4531,4.4609,4.4725,4.5018,4.5076,4.5273,4.5488,4.5646,4.5861,4.6211,4.5742,4.5271,4.5154,4.5471,4.5783,4.6035,4.6096,4.6181,4.635,4.6697,4.6852,4.6718,4.7048,4.715,4.681,4.6775,4.7001,4.688,4.7483,4.8354,4.8475,4.9233,4.9617,4.9071,4.9032,4.9179,4.5568,4.5391,4.5801,4.5859,0.0,4.5644,4.5664,4.5625,4.5174,4.5018,4.5018,4.5232,4.549,4.5705,4.592,4.6094,4.6289,4.6094,4.6094,4.6269,4.59,4.5803,4.6018,4.6018,4.6018,4.5996,4.6191,4.6308,4.6308,4.6308,4.6094,4.5623,4.5644,4.543,4.5019,4.541,4.5979,4.6643,4.6621,4.6836,4.7185,4.6621,4.5996,4.5371,4.4922,0.0,0.0,0.0,0.0,0.0,0.0,0.0,0.0,4.289,4.2402,4.2382,4.1797,4.164,4.207,4.2149,4.248,4.3301,4.3163,4.2422,4.0899,4.1777,4.2773,4.3653,4.369,4.3963,4.4608,4.4922,4.506,4.5039,4.506,4.5098,4.5254,4.494,4.4862,4.5234,4.5156,4.5195,4.5584,4.5623,4.5644,4.5686,4.5705,4.5705,4.5683,4.5662,4.5584,4.5391,4.5507,4.5774,4.595,4.6245,4.6452,4.6612,4.6844,4.6993,4.6993,4.7563,4.7969,4.7829,4.8059,4.8373,4.8415,4.8751,4.9128,4.9354,4.9755,5.0011,4.9763,4.9742,4.9826,4.5566,4.5607,4.5937,4.6074,4.6074,4.6074,4.6074,4.6013,4.5488,0.0,0.0,4.5625,4.5803,4.5842,4.6152,4.6308,4.6289,4.623,4.6191,4.6172,4.5861,4.5725,4.5803,4.5881,4.5959,4.6057,4.6367,4.6523,4.6523,4.6523,4.6523,4.6523,4.6501,4.6543,4.6582,4.7305,4.719,4.6213,4.6387,4.6836,4.7444,4.6973,4.6308,4.549,4.5076,4.451,4.373,4.3691,4.3691,4.3691,4.3379,4.3282,4.3419,4.2987,4.2812,4.2968,4.2909,4.3339,4.4433,4.4512,4.4961,4.6016,4.582,4.4922,4.3125,4.4159,4.4783,4.4531,4.4744,4.4803,4.4648,4.4629,4.4648,4.4726,4.4668,4.4922,4.5568,4.5293,4.5232,4.5898,4.5703,4.5683,4.5937,4.5996,4.5996,4.5764,4.5705,4.567,4.5476,4.5727,4.5861,4.5817,4.5838,4.5898,4.6106,4.642,4.6757,4.7074,4.7201,4.7387,4.7835,4.8608,4.9135,4.9117,4.9896,5.0213,5.034,5.0235,5.0446,5.0486,5.0506,5.0548,5.0631,5.0631,5.0631,4.5115,4.5096,4.5154,4.5193,4.5193,4.5174,4.5193,4.5232,4.5838,4.6111,4.6133,4.6191,4.6211,4.6211,4.6269,4.6308,4.6289,4.5937,4.5783,4.5783,4.5725,4.5881,4.623,4.6582,4.6931,4.7307,4.7386,4.7425,4.7425,4.7425,4.7425,4.7383,4.7402,4.7425,4.7464,4.7871,4.8027,4.7851,4.7558,4.7285,4.6989,4.625,4.5449,4.4629,4.457,4.4238,4.373,4.373,4.3691,4.3691,4.3652,4.3965,4.4666,4.4355,4.4453,4.5138,4.4842,4.4725,4.4901,4.492,4.4998,4.5174,4.5488,4.5549,4.5256,4.4766,4.4588,4.4862,4.4666,4.4785,4.5392,4.5471,4.5568,4.5879,4.5705,4.5588,4.5666,4.5293,4.5076,4.5271,4.5135,4.5154,4.535,4.5351,4.557,4.5666,4.6009,4.6015,4.6451,4.5803,4.5562,4.6039,4.6207,4.6562,4.7187,4.7455,4.7606,4.7601,4.8009,4.8266,4.8367,4.9144,4.9715,4.9696,5.0152,5.0424,5.0444,5.0382,5.0651,5.0962,5.1087,5.1191,5.1522,5.1605,5.1481,4.6406,4.6406,4.6406,4.6406,4.6406,4.6406,4.6406,4.6445,4.6816,4.6465,4.5642,4.5859,4.6094,4.6328,4.6521,4.6777,4.6992,4.6819,4.6699,4.6741,4.6699,4.6838,4.7012,4.7187,4.7383,4.76,4.76,4.76,4.76,4.76,4.76,4.76,4.76,4.7718,4.791,4.8105,4.832,4.8578,4.8402,4.8187,4.7991,4.7386,4.6877,4.6443,4.625,4.6057,4.582,4.5586,4.5428,4.5428,4.5019,4.5058,4.5664,4.5312,4.5392,4.5957,4.582,4.5701,4.5701,4.5701,4.5681,4.5723,4.5705,4.5705,4.5705,4.5334,4.5078,4.4998,4.4844,4.4883,4.5293,4.5332,4.541,4.5586,4.5408,4.541,4.5607,4.5271,4.5193,4.5564,4.5508,4.5566,4.5953,4.6292,4.6623,4.7039,4.7293,4.7636,4.7994,4.7563,4.7097,4.7093,4.725,4.771,4.8332,4.8695,4.8885,4.9131,4.9347,4.9457,4.952,5.0089,5.0403,5.0508,5.086,5.1129,5.117,5.1377,5.1626,5.1791,5.2102,5.2329,5.2516,5.258,5.2288,4.76,4.76,4.76,4.76,4.76,4.76,4.76,4.76,4.76,4.6858,4.572,4.5979,4.6311,4.6601,4.6933,4.7266,4.7581,4.76,4.76,4.76,4.76,4.7659,4.7737,4.7737,4.7796,4.7874,4.7894,4.7894,4.7894,4.7894,4.7952,4.8008,4.805,4.8223,4.8652,4.8652,4.8828,4.9144,4.9109,4.8949,4.8734,4.8379,4.8164,4.8047,4.7734,4.76,4.7581,4.7246,4.7048,4.7051,4.6445,4.6272,4.6543,4.6213,4.6055,4.6269,4.6211,4.6152,4.6152,4.6152,4.6191,4.6308,4.6115,4.5979,4.5957,4.6076,4.5781,4.5154,4.5117,4.5193,4.535,4.5447,4.5467,4.5566,4.5584,4.584,4.6037,4.5801,4.582,4.6426,4.633,4.643,4.7072,4.7556,4.7921,4.8337,4.8789,4.9013,4.9122,4.9167,4.8844,4.8573,4.8548,4.8844,4.9322,4.9646,4.9966,5.0362,5.034,5.0256,5.036,5.0755,5.1024,5.1065,5.1564,5.1853,5.1978,5.2332,5.258,5.2619,5.2826,5.3281,5.3839,5.3952,5.3435,4.762,4.76,4.764,4.76,4.764,4.764,4.764,4.764,4.762,4.7542,4.7346,4.7425,4.7425,4.7483,4.7522,4.7558,4.764,4.76,4.764,4.764,4.76,4.7793,4.8144,4.8164,4.8359,4.8737,4.8796,4.8796,4.8796,4.8796,4.8945,4.9273,4.9332,4.9508,4.9922,4.9984,5.0023,5.0039,4.9668,4.9082,4.832,4.8223,4.8027,4.7679,4.764,4.76,4.7659,4.7539,4.7542,4.7542,4.7444,4.7425,4.7425,4.7051,4.6638,4.6348,4.5998,4.5744,4.5783,4.5764,4.5957,4.6269,4.6618,4.6775,4.6794,4.7148,4.6719,4.5566,4.543,4.582,4.6152,4.6462,4.6775,4.7092,4.719,4.7363,4.7307,4.7405,4.7405,4.7444,4.7372,4.762,4.804,4.832,4.8541,4.911,4.9284,4.9462,4.9751,4.9775,4.9887,4.9946,4.9883,4.9796,5.0143,5.0297,5.0403,5.0444,5.0424,5.0506,5.0651,5.0879,5.1086,5.1336,5.1874,5.2392,5.2682,5.2831,5.3304,5.395,5.4034,5.3961,5.5322,5.5911,5.5346,4.8363,4.8363,4.8385,4.8363,4.8363,4.8363,4.8363,4.8363,4.8363,4.8363,4.8385,4.8363,4.8226,4.7972,4.7949,4.8109,4.8366,4.8385,4.8363,4.8363,4.8385,4.8574,4.8965,4.8961,4.9219,4.9656,4.9652,4.9672,4.9672,4.9652,4.975,4.9883,4.9922,5.0023,5.018,5.0199,5.0199,5.0199,5.0,4.9726,4.9355,4.8848,4.8538,4.8382,4.8385,4.8363,4.8323,4.8109,4.7949,4.793,4.7715,4.76,4.76,4.7402,4.7246,4.7092,4.6917,4.6819,4.6819,4.6819,4.6897,4.7073,4.7207,4.7305,4.7324,4.7503,4.7246,4.6738,4.6721,4.6917,4.7073,4.7207,4.7402,4.7561,4.76,4.762,4.76,4.7643,4.769,4.7937,4.8004,4.8344,4.9032,4.961,5.0112,5.056,5.065,5.0739,5.0919,5.0941,5.1031,5.1143,5.1053,5.0907,5.0857,5.0796,5.092,5.1127,5.121,5.121,5.1251,5.1605,5.1853,5.1584,5.235,5.3274,5.4183,5.4872,5.5481,5.621,5.7232,5.7685,5.8458,5.8571,5.8117,4.9265,4.9242,4.9242,4.9242,4.9265,4.9242,4.9265,4.9265,4.9242,4.9265,4.9265,4.9242,4.9066,4.875,4.8633,4.875,4.9046,4.9206,4.9265,4.9242,4.9265,4.9418,4.9687,4.9707,4.9863,5.0137,5.018,5.018,5.027,5.0798,5.0787,5.0502,5.0901,5.0961,5.0579,5.0551,5.0527,5.0527,5.0453,5.0351,5.0258,4.9656,4.9265,4.9265,4.9242,4.9265,4.9265,4.8808,4.8551,4.8574,4.8164,4.7952,4.7952,4.7952,4.7894,4.7776,4.7659,4.7659,4.7734,4.7776,4.7812,4.7952,4.805,4.8128,4.8144,4.8223,4.8323,4.8323,4.8421,4.8402,4.7796,4.7894,4.7952,4.7975,4.8043,4.8172,4.8375,4.8423,4.8794,4.9148,4.9415,4.9537,5.0355,5.1136,5.1776,5.2071,5.2162,5.2185,5.2185,5.2162,5.2141,5.2185,5.2185,5.1936,5.1439,5.1294,5.1501,5.1626,5.1729,5.1771,5.1936,5.2309,5.27,5.2513,5.3137,5.4378,5.6076,5.7185,5.8306,5.9817,6.0729,6.1141,6.1503,6.1525,6.15,5.0141,5.0121,5.0121,5.0058,5.0141,5.0102,5.0121,5.0067,5.0102,5.0121,5.0082,5.0102,5.0102,4.998,4.9609,4.9449,4.9527,4.9883,5.0063,5.0063,5.0082,5.0141,5.018,5.018,5.0223,5.0534,5.0364,5.0297,5.0353,5.2039,5.2225,5.0953,5.2556,5.2806,5.1472,5.1265,5.1319,5.1226,5.0957,5.0781,5.0742,5.0351,5.0141,5.0141,5.0121,5.0082,5.0063,4.9664,4.943,4.943,4.9066,4.8835,4.8855,4.8855,4.8656,4.8262,4.7851,4.7812,4.8183,4.8262,4.8398,4.8792,4.9141,4.9391,4.9313,4.9609,4.9852,5.0047,5.0208,4.9832,4.8689,4.881,4.8943,4.8924,4.9292,4.9677,5.0103,5.0364,5.0985,5.1323,5.1369,5.1518,5.2119,5.2771,5.292,5.3013,5.3077,5.3056,5.2994,5.3056,5.3036,5.3013,5.2974,5.2785,5.2019,5.1998,5.1936,5.2102,5.2329,5.2302,5.2334,5.2557,5.3123,5.3898,5.513,5.6613,5.8303,5.9768,6.1011,6.2178,6.2943,6.3451,6.4156,6.4554,6.4479,5.0199,5.0199,5.0199,5.0199,5.0199,5.0199,5.0199,5.0199,5.0199,5.0199,5.0199,5.0199,5.0199,5.0219,5.0293,5.0195,4.998,5.0141,5.0199,5.0199,5.0199,5.0356,5.0566,5.0586,5.1491,5.2548,5.1605,5.0952,5.1193,5.2952,5.2985,5.1783,5.3192,5.3273,5.1746,5.1397,5.1397,5.1382,5.1245,5.1187,5.1167,5.103,5.0952,5.0933,5.0449,5.0199,5.0199,5.0043,4.9941,4.9941,4.9809,4.9754,4.973,4.973,4.9672,4.9473,4.9359,4.934,4.9457,4.9473,4.9531,4.9711,4.9844,4.9965,4.9961,5.0102,5.0318,5.0598,5.0771,5.0589,5.0629,5.0572,5.0499,5.0289,5.0623,5.0966,5.1173,5.135,5.1621,5.2069,5.2433,5.2736,5.2894,5.3085,5.3201,5.3201,5.3201,5.3222,5.3222,5.3201,5.3263,5.3201,5.3181,5.3075,5.2826,5.2948,5.3114,5.3217,5.3458,5.4723,5.5212,5.5889,5.6568,5.8124,5.8879,6.0005,6.21,6.4037,6.5016,6.521,6.5875,6.5928,6.6713,6.6644,6.6678,5.0586,5.0586,5.0586,5.0586,5.0586,5.061,5.0586,5.0586,5.0586,5.0586,5.061,5.0586,5.0586,5.0625,5.0879,5.0879,5.0605,5.0586,5.0586,5.0586,5.0586,5.0723,5.0952,5.0991,5.1812,5.3016,5.2109,5.1939,5.3272,5.404,5.3655,5.2595,5.3798,5.3391,5.1741,5.1397,5.1397,5.1397,5.1397,5.1377,5.1397,5.1397,5.1397,5.1323,5.0879,5.0586,5.061,5.0473,5.0414,5.0395,5.0278,5.0199,5.0199,5.0199,5.0199,5.0199,5.018,5.0199,5.0199,5.0199,5.018,5.0243,5.0502,5.0656,5.0676,5.0937,5.1257,5.1515,5.1729,5.1936,5.2089,5.2346,5.2119,5.1469,5.1618,5.2003,5.2125,5.2286,5.2625,5.305,5.3394,5.3584,5.3613,5.361,5.3654,5.3589,5.3613,5.3613,5.3613,5.3613,5.3633,5.3633,5.3864,5.3923,5.425,5.4853,5.4281,5.4211,5.4654,5.6213,5.8093,5.8914,6.019,6.1966,6.3316,6.4413,6.5998,6.798,6.8597,6.8556,6.845,6.8276,6.8537,6.8494,6.8185,5.1338,5.1343,5.1377,5.1323,5.1304,5.1284,5.1362,5.1323,5.1299,5.1284,5.1245,5.1323,5.1265,5.1319,5.1304,5.1338,5.1328,5.1507,5.1458,5.1284,5.1304,5.1401,5.1634,5.144,5.1367,5.1765,5.1644,5.3559,5.6403,5.5534,5.4826,5.4515,5.4776,5.4182,5.1644,5.1843,5.1596,5.162,5.1571,5.1401,5.1397,5.1397,5.1397,5.1397,5.1343,5.1304,5.1343,5.0991,5.0801,5.0762,5.0449,5.0238,5.0317,5.0317,5.0258,5.0317,5.0258,5.0238,5.0258,5.0297,5.0356,5.0423,5.1063,5.1519,5.1582,5.2244,5.2756,5.2892,5.3153,5.3359,5.3181,5.3672,5.3517,5.2131,5.2295,5.274,5.3079,5.3488,5.3935,5.4242,5.4352,5.4455,5.4455,5.4376,5.4314,5.4334,5.4355,5.4334,5.4293,5.4293,5.4393,5.45,5.4503,5.4503,5.5721,5.6815,5.5844,5.5207,5.579,5.6928,5.9593,6.1076,6.259,6.4249,6.5255,6.6336,6.7271,6.9076,6.9607,6.9677,6.9953,6.9777,6.9428,6.9102,6.9004,5.1397,5.1397,5.1397,5.1397,5.1397,5.1397,5.1397,5.1397,5.1397,5.1397,5.1397,5.1397,5.1397,5.1397,5.1397,5.1397,5.1499,5.2692,5.274,5.162,5.1426,5.2157,5.2932,5.2036,5.1397,5.1915,5.4278,5.5346,5.5817,5.7451,5.7914,5.6939,5.7822,5.7428,5.5299,5.4206,5.3463,5.332,5.2085,5.1377,5.1397,5.1397,5.1397,5.1397,5.1397,5.1397,5.1377,5.1265,5.1226,5.1187,5.1089,5.1011,5.1035,5.1011,5.1011,5.1011,5.1035,5.1011,5.1011,5.1016,5.104,5.1151,5.1659,5.1959,5.2075,5.2628,5.3185,5.3473,5.3687,5.3763,5.4037,5.4245,5.4023,5.323,5.3565,5.3805,5.3949,5.4154,5.4331,5.4455,5.4497,5.4497,5.4497,5.4497,5.4497,5.4497,5.4497,5.4497,5.4497,5.4639,5.4497,5.4541,5.4707,5.5425,5.6631,5.8211,5.8644,5.8327,5.866,5.9443,6.1773,6.3175,6.4788,6.6146,6.718,6.7955,6.8937,6.954,6.9972,7.0104,6.9903,6.9705,6.9529,6.9381,6.9306,5.1397,5.1397,5.1397,5.1397,5.1397,5.1397,5.1397,5.1397,5.1397,5.1397,5.1397,5.1397,5.1397,5.1397,5.1397,5.1397,5.162,5.3487,5.3706,5.2644,5.2499,5.2908,5.3391,5.2932,5.3008,5.3897,5.6192,5.7567,5.7776,5.8652,5.8995,5.8789,5.9064,5.8168,5.6403,5.5063,5.4135,5.3224,5.2012,5.1397,5.1397,5.1397,5.1397,5.1397,5.1397,5.1397,5.1397,5.1397,5.1397,5.1397,5.1397,5.1397,5.1397,5.1377,5.1397,5.1397,5.1377,5.1377,5.1401,5.1556,5.1693,5.179,5.237,5.2804,5.2876,5.3257,5.3736,5.3975,5.4067,5.4166,5.4425,5.4497,5.4378,5.4095,5.4265,5.4497,5.4497,5.4497,5.4497,5.4497,5.4497,5.4497,5.4497,5.4497,5.4497,5.4497,5.4497,5.4497,5.4666,5.5191,5.538,5.5942,5.7007,5.7532,5.7684,5.9276,6.12,6.1683,6.2073,6.3264,6.5024,6.5304,6.6288,6.7678,6.8843,6.863,6.9396,6.9534,6.9805,6.9777,6.9752,6.9604,6.9431,6.9579,6.9504,5.1397,5.1397,5.1397,5.1547,5.1693,5.1741,5.1964,5.1939,5.1988,5.2157,5.206,5.2326,5.2109,5.1935,5.2398,5.2374,5.2229,5.4301,5.5063,5.4755,5.4729,5.4373,5.3056,5.4349,5.5675,5.6753,5.7497,5.9407,6.1537,5.9772,5.8675,6.0295,5.8881,5.6893,5.5746,5.4731,5.3607,5.235,5.1644,5.1397,5.1397,5.1397,5.1397,5.1397,5.1397,5.1397,5.1397,5.1397,5.1397,5.1397,5.1397,5.1397,5.1397,5.1397,5.1397,5.1397,5.1397,5.1397,5.1518,5.1838,5.2109,5.2157,5.302,5.3808,5.3712,5.3999,5.433,5.4401,5.4425,5.4473,5.4497,5.4497,5.4497,5.4497,5.4473,5.4497,5.4497,5.4497,5.4497,5.4497,5.4497,5.4497,5.4497,5.4497,5.4497,5.4497,5.452,5.4592,5.5262,5.6115,5.7216,5.8159,5.9098,5.9505,5.9636,6.1555,6.3338,6.3781,6.46,6.6244,6.7306,6.7415,6.7596,6.9003,6.9632,6.9506,6.9481,6.9579,6.9579,6.9554,6.9481,6.9406,6.9431,6.9554,6.9579,5.1397,5.1397,5.1397,5.2254,5.3511,5.3631,5.4468,5.5699,5.5746,5.5534,5.5723,5.5817,5.5581,5.5793,5.5699,5.5817,5.6075,5.7729,5.7891,5.7009,5.8237,5.7636,5.6566,5.7752,5.8214,5.7822,5.8995,6.0159,6.1177,6.1424,6.1806,6.241,6.0567,5.9361,5.8606,5.5864,5.4278,5.3439,5.2012,5.1397,5.1397,5.1397,5.1397,5.1397,5.1397,5.1397,5.1397,5.1397,5.1397,5.1397,5.1397,5.1397,5.1397,5.1397,5.1397,5.1377,5.1401,5.1401,5.1523,5.1959,5.2181,5.2278,5.3257,5.3784,5.3832,5.4214,5.4473,5.4497,5.4497,5.4497,5.4497,5.4497,5.4497,5.4497,5.4497,5.4497,5.4497,5.4497,5.4497,5.4497,5.4497,5.4497,5.4497,5.4497,5.4497,5.4497,5.4714,5.5096,5.6115,5.7467,5.8693,5.986,6.0776,6.1235,6.2064,6.3958,6.528,6.5704,6.6878,6.8739,6.9261,6.928,6.9485,7.0106,6.9632,6.9431,6.9431,6.9456,6.9406,6.9406,6.9406,6.9406,6.9406,6.9456,6.9456,5.1867,5.2668,5.2668,5.3801,5.5558,5.5652,5.6332,5.7242,5.7405,5.7405,5.7405,5.7405,5.7405,5.7405,5.7381,5.7405,5.7683,5.9498,5.9681,5.9247,6.0635,5.9886,5.8468,5.9407,5.9772,5.9041,6.0657,6.1514,6.1874,6.2812,6.3233,6.3078,6.2187,6.1267,6.0045,5.7428,5.5133,5.4206,5.2475,5.1397,5.1397,5.1397,5.1397,5.1397,5.1397,5.1397,5.1397,5.1397,5.1397,5.1397,5.1397,5.1397,5.1397,5.1397,5.1397,5.1401,5.1596,5.1741,5.1886,5.2418,5.2852,5.2996,5.3688,5.4023,5.4142,5.4357,5.4497,5.4497,5.4497,5.4497,5.4497,5.4497,5.4497,5.4497,5.4497,5.4497,5.4497,5.4497,5.4497,5.4497,5.4497,5.4497,5.4497,5.4497,5.452,5.469,5.5454,5.6164,5.7171,5.8785,6.0456,6.1874,6.3385,6.424,6.471,6.6189,6.6967,6.7394,6.794,7.0061,7.0325,7.03,7.0152,6.9956,6.9629,6.9406,6.9406,6.9406,6.9406,6.9406,6.9406,6.9406,6.9431,6.9406,6.9406,5.2764,5.4396,5.461,5.5864,5.7544,5.7706,5.8006,5.8122,5.8399,5.8352,5.8376,5.8145,5.8606,5.8006,5.8766,5.8214,5.8352,6.0295,6.068,6.1154,6.2031,6.1424,5.9179,6.0272,6.0883,6.0906,6.2521,6.299,6.3034,6.3235,6.3102,6.2566,6.241,6.1357,5.9064,5.7219,5.5793,5.3873,5.2278,5.1426,5.1397,5.1397,5.1397,5.1397,5.1397,5.1397,5.1397,5.1397,5.1397,5.1397,5.1397,5.1397,5.1397,5.1397,5.145,5.1571,5.1911,5.2153,5.2394,5.3117,5.3712,5.376,5.4142,5.4497,5.4473,5.4497,5.4497,5.4497,5.4497,5.4497,5.4497,5.4497,5.4497,5.4497,5.4497,5.4497,5.4497,5.4497,5.4497,5.4497,5.4497,5.4497,5.4497,5.452,5.4595,5.5664,5.6531,5.783,5.9355,6.1348,6.2989,6.454,6.6072,6.7652,6.7996,6.8432,6.874,6.9019,6.9055,7.0051,7.0275,7.025,7.0001,6.9777,6.9604,6.9481,6.9406,6.9406,6.9406,6.9406,6.9406,6.9456,6.9506,6.9431,6.9406,5.4016,5.4539,5.6098,5.7914,5.9567,5.9795,6.0612,6.1873,6.194,6.1694,6.194,6.194,6.185,6.1873,6.1671,6.2053,6.1694,6.23,6.2679,6.2745,6.2967,6.299,6.1987,6.2481,6.2591,6.2747,6.3036,6.3301,6.3348,6.3239,6.2499,6.1244,6.0068,5.7822,5.6192,5.4657,5.2619,5.2012,5.1596,5.1445,5.1397,5.1397,5.1397,5.1397,5.1397,5.1397,5.1397,5.1397,5.1397,5.1397,5.1421,5.145,5.145,5.1426,5.162,5.1983,5.2153,5.2418,5.2848,5.3425,5.3808,5.3904,5.4238,5.4497,5.4497,5.4497,5.4497,5.4497,5.4497,5.4583,5.4624,5.4541,5.4603,5.4645,5.4722,5.4749,5.4565,5.452,5.4497,5.4497,5.4497,5.452,5.4568,5.4714,5.5286,5.6488,5.8062,5.9536,6.1555,6.37,6.5184,6.6554,6.7394,6.8575,6.8801,6.9029,6.9253,6.9481,6.9654,6.9803,7.0051,7.0152,6.9903,6.9803,6.9705,6.9579,6.9406,6.9406,6.9406,6.9406,6.9406,6.9554,6.9579,6.9481,6.9554,5.5487,5.7288,5.8376,5.9954,6.1582,6.1784,6.2343,6.3167,6.3277,6.3277,6.3277,6.3277,6.3277,6.3277,6.3277,6.3233,6.3374,6.3566,6.3662,6.3689,6.3925,6.4069,6.4045,6.4021,6.3973,6.3734,6.3708,6.3684,6.3662,6.3593,6.3073,6.1717,5.9726,5.8881,5.6823,5.4203,5.3172,5.2716,5.1814,5.1397,5.1397,5.1397,5.1397,5.1397,5.1397,5.1397,5.1397,5.1397,5.1397,5.145,5.162,5.1765,5.1765,5.179,5.2056,5.2467,5.2852,5.3041,5.3449,5.3808,5.4142,5.4118,5.4378,5.4449,5.4497,5.4497,5.4497,5.4562,5.4707,5.4917,5.5124,5.5165,5.5145,5.5361,5.6059,5.6515,5.638,5.5413,5.4497,5.4497,5.4497,5.512,5.5383,5.5763,5.7131,5.8802,6.073,6.2238,6.3346,6.5378,6.6778,6.7931,6.8482,6.9029,6.923,6.9356,6.9403,6.9481,6.9529,6.9604,6.9679,6.9803,6.9828,6.9705,6.9604,6.9529,6.9406,6.9406,6.9406,6.9406,6.9456,6.9629,6.9629,6.9481,6.9679,5.7312,6.0431,6.0725,6.1807,6.3145,6.3233,6.3211,6.3301,6.3398,6.3492,6.3446,6.3494,6.3686,6.3566,6.3636,6.3566,6.3686,6.3973,6.4213,6.4285,6.455,6.4694,6.4765,6.4694,6.467,6.4333,6.4261,6.4237,6.4213,6.4144,6.3619,6.2788,6.0979,5.9261,5.8572,5.6168,5.3659,5.3306,5.2214,5.1499,5.1397,5.1397,5.1397,5.1397,5.1397,5.1397,5.1397,5.1397,5.1397,5.1426,5.1911,5.2201,5.2322,5.2346,5.2563,5.3089,5.3473,5.3688,5.3904,5.4234,5.4473,5.4497,5.4624,5.4624,5.4645,5.4789,5.4852,5.4914,5.5124,5.5438,5.5856,5.6355,5.64,5.676,5.8202,5.9203,5.893,5.7061,5.6405,5.5979,5.6484,5.7031,5.7451,5.7914,5.954,6.1188,6.3077,6.4715,6.5787,6.6771,6.7994,6.8644,6.9035,6.918,6.9356,6.9406,6.9456,6.9456,6.9431,6.9456,6.9456,6.9554,6.9604,6.9529,6.9431,6.9406,6.9406,6.9406,6.9406,6.9406,6.9456,6.9579,6.9579,6.9456,6.9828,5.9795,6.0544,6.2142,6.3034,6.3279,6.3301,6.3349,6.3374,6.3804,6.3973,6.4021,6.4405,6.455,6.4574,6.4622,6.4622,6.4526,6.4716,6.4789,6.4766,6.4958,6.503,6.5101,6.5125,6.5151,6.5247,6.5054,6.4814,6.4766,6.4697,6.4033,6.2248,6.0374,5.8827,5.7168,5.4345,5.3513,5.3345,5.259,5.2178,5.1621,5.1514,5.1514,5.1514,5.1558,5.1514,5.1479,5.1416,5.1397,5.1426,5.1935,5.2458,5.288,5.2997,5.3245,5.3545,5.3825,5.4105,5.4368,5.4487,5.4517,5.4603,5.4852,5.5062,5.5165,5.5396,5.5476,5.577,5.5881,5.605,5.5946,5.7506,5.8291,5.889,6.0189,6.155,6.1435,6.1068,6.0471,6.0245,5.9861,5.9361,5.9862,6.0502,6.1758,6.3178,6.4662,6.6241,6.7434,6.8125,6.8857,6.9185,6.9308,6.9356,6.9406,6.9406,6.9431,6.9431,6.9406,6.9406,6.9431,6.9406,6.9406,6.9406,6.9406,6.9406,6.9406,6.9406,6.9406,6.9406,6.9456,6.9554,6.9579,6.9604,6.993,6.0997,6.2009,6.3232,6.371,6.378,6.4021,6.4117,6.4165,6.4405,6.4526,6.4598,6.479,6.4933,6.4933,6.4933,6.4933,6.4981,6.5246,6.5318,6.5319,6.5582,6.5727,6.5702,6.5702,6.5847,6.5991,6.5823,6.5534,6.5366,6.5295,6.4603,6.3426,6.146,5.996,5.8848,5.7299,5.5293,5.4402,5.3942,5.3319,5.2188,5.2046,5.2046,5.2065,5.2046,5.2065,5.2065,5.2065,5.2232,5.2552,5.3017,5.3535,5.3973,5.4276,5.435,5.4259,5.4392,5.4612,5.489,5.5062,5.5248,5.5269,5.5434,5.5541,5.5604,5.5769,5.614,5.6673,5.8685,5.8552,5.6971,5.9377,6.0383,6.0359,6.2308,6.3991,6.4407,6.4908,6.4827,6.4266,6.2568,6.1947,6.2628,6.3312,6.4155,6.5255,6.6409,6.7548,6.8812,6.913,6.9406,6.9406,6.9406,6.9406,6.9406,6.9406,6.9406,6.9406,6.9406,6.9406,6.9406,6.9406,6.9406,6.9406,6.9406,6.9406,6.9406,6.9406,6.9406,6.9406,6.9431,6.9481,6.9604,6.978,7.0054,6.2107,6.366,6.4093,6.4261,6.4333,6.4694,6.4862,6.4933,6.5006,6.5077,6.5101,6.5221,6.5294,6.5246,6.527,6.5247,6.5247,6.5727,6.5847,6.5919,6.6207,6.6448,6.6495,6.6519,6.6447,6.6352,6.6376,6.628,6.5943,6.5847,6.5606,6.4682,6.3223,6.227,6.1636,5.9738,5.8197,5.6665,5.5959,5.4882,5.3262,5.2715,5.2715,5.2715,5.2715,5.2725,5.2796,5.2821,5.3094,5.3559,5.4092,5.46,5.5087,5.5601,5.5538,5.4996,5.5145,5.5293,5.5438,5.5604,5.5749,5.5749,5.5956,5.6018,5.6324,5.6673,5.7207,5.7949,6.0178,6.1154,5.9088,6.1531,6.2731,6.2946,6.4789,6.7023,6.7128,6.7436,6.783,6.6766,6.4813,6.4435,6.5056,6.5319,6.5996,6.6519,6.763,6.7998,6.9055,6.9205,6.9406,6.9406,6.9406,6.9406,6.9406,6.9406,6.9406,6.9406,6.9406,6.9406,6.9406,6.9406,6.9406,6.9406,6.9406,6.9406,6.9406,6.9406,6.9406,6.9406,6.9406,6.9431,6.9529,6.9604,6.978,6.4105,6.4694,6.4766,6.4814,6.4814,6.491,6.4934,6.5006,6.5438,6.5606,6.563,6.6039,6.6208,6.6208,6.6208,6.6256,6.628,6.6256,6.6304,6.6328,6.6447,6.6519,6.6519,6.6519,6.6519,6.6519,6.6519,6.6495,6.6328,6.6304,6.6328,6.5766,6.4437,6.3306,6.3263,6.1819,5.8925,5.6969,5.6415,5.5162,5.3231,5.2812,5.2812,5.2818,5.2868,5.3106,5.3474,5.3594,5.3802,5.4277,5.4755,5.5009,5.516,5.5601,5.5824,5.5769,5.579,5.5811,5.5831,5.5976,5.6059,5.6163,5.6308,5.6473,5.7224,5.8663,5.971,5.9935,6.2208,6.2353,6.1287,6.3751,6.5235,6.6098,6.7002,6.8426,6.8924,6.8486,6.904,6.9015,6.7037,6.6984,6.7357,6.7505,6.7701,6.821,6.8675,6.9002,6.9205,6.9331,6.9406,6.9406,6.9406,6.9406,6.9406,6.9406,6.9406,6.9406,6.9406,6.9406,6.9406,6.9406,6.9406,6.9406,6.9406,6.9406,6.9406,6.9406,6.9406,6.9406,6.9406,6.9406,6.9406,6.9506,6.9604,6.4958,6.491,6.5199,6.5366,6.539,6.5678,6.5823,6.5847,6.6039,6.6159,6.6183,6.6376,6.6519,6.6519,6.6519,6.6495,6.6519,6.6519,6.6519,6.6519,6.6519,6.6519,6.6519,6.6519,6.6519,6.6519,6.6519,6.6519,6.6519,6.6519,6.6519,6.6333,6.5657,6.5211,6.4883,6.4223,6.1826,5.9082,5.6519,5.4623,5.3723,5.3457,5.3564,5.3841,5.3846,5.4153,5.4504,5.4694,5.497,5.5394,5.5767,5.5991,5.6214,5.6507,5.6635,5.6635,5.6635,5.6531,5.637,5.6564,5.6676,5.6709,5.6999,5.7449,5.8702,6.0596,6.2009,6.2033,6.4977,6.4977,6.3466,6.5842,6.6539,6.7439,6.8358,6.8928,6.9406,6.9406,6.9356,6.9381,6.9381,6.8977,6.8675,6.8703,6.8586,6.8731,6.9002,6.9155,6.9306,6.9356,6.9406,6.9406,6.9406,6.9406,6.9406,6.9406,6.9406,6.9406,6.9406,6.9406,6.9406,6.9406,6.9406,6.9406,6.9406,6.9406,6.9406,6.9406,6.9406,6.9406,6.9406,6.9406,6.9406,6.9406,6.9529,6.5678,6.5342,6.5727,6.5895,6.5943,6.6328,6.6495,6.6495,6.6471,6.6495,6.6519,6.6519,6.6519,6.6519,6.6519,6.6519,6.6519,6.6519,6.6519,6.6519,6.6519,6.6519,6.6519,6.6519,6.6519,6.6519,6.6519,6.6519,6.6519,6.6519,6.6519,6.6519,6.631,6.631,6.6287,6.5212,6.2991,5.8975,5.5754,5.4245,5.3945,5.4118,5.4372,5.4671,5.4945,5.5249,5.5704,5.5764,5.6016,5.6448,5.6532,5.6716,5.6986,5.7041,5.7542,5.784,5.8165,5.8454,5.8449,5.8488,5.8072,5.8115,5.8811,6.0052,6.1795,6.3347,6.4059,6.4106,6.691,6.6793,6.5818,6.737,6.8059,6.8267,6.8585,6.9042,6.9406,6.9456,6.9431,6.9406,6.9456,6.9604,6.9428,6.9554,6.9529,6.9381,6.9406,6.9406,6.9406,6.9406,6.9406,6.9406,6.9406,6.9406,6.9406,6.9406,6.9406,6.9406,6.9406,6.9406,6.9406,6.9406,6.9406,6.9406,6.9406,6.9406,6.9406,6.9406,6.9406,6.9406,6.9406,6.9406,6.9406,6.9406,6.9431,6.6447,6.6423,6.64,6.6423,6.6423,6.6495,6.6519,6.6519,6.6519,6.6519,6.6519,6.6519,6.6519,6.6519,6.6519,6.6519,6.6519,6.6519,6.6519,6.6519,6.6519,6.6519,6.6519,6.6519,6.6519,6.6519,6.6519,6.6519,6.6519,6.6519,6.6519,6.6519,6.6519,6.6519,6.582,6.4506,6.1816,5.8225,5.5305,5.4227,5.4278,5.4507,5.4838,5.4965,5.5325,5.5805,5.6308,5.6358,5.6534,5.701,5.7035,5.7414,5.7663,5.7713,5.8387,5.9699,6.0068,6.0611,6.1197,6.0711,6.0168,6.0604,6.1479,6.2895,6.4648,6.5585,6.6098,6.6214,6.8335,6.8267,6.7485,6.7876,6.8906,6.9042,6.8999,6.928,6.9554,6.9579,6.9554,6.9431,6.9604,6.993,7.0079,7.0179,7.0129,6.9981,6.9654,6.9654,6.9431,6.9406,6.9406,6.9406,6.9406,6.9406,6.9406,6.9406,6.9406,6.9406,6.9406,6.9406,6.9406,6.9406,6.9406,6.9406,6.9406,6.9406,6.9406,6.9406,6.9406,6.9406,6.9406,6.9406,6.9406,6.9406,6.9406,6.6519,6.6519,6.6519,6.6519,6.6519,6.6519,6.6519,6.6519,6.6519,6.6519,6.6519,6.6519,6.6519,6.6519,6.6519,6.6519,6.6519,6.6519,6.6519,6.6519,6.6519,6.6519,6.6519,6.6519,6.6519,6.6519,6.6519,6.6519,6.6519,6.6519,6.6519,6.6519,6.6519,6.6519,6.5633,6.337,6.0242,5.7973,5.5734,5.4635,5.4996,5.5148,5.5451,5.583,5.5905,5.6384,5.681,5.6885,5.7035,5.716,5.719,5.7767,5.8511,5.8663,5.9797,6.143,6.1696,6.2393,6.3157,6.2656,6.2201,6.2249,6.299,6.4295,6.64,6.6446,6.7209,6.7968,6.8815,6.8699,6.8767,6.8906,6.9338,6.9383,6.9481,6.9629,6.9755,6.9853,7.0054,7.0106,7.0355,7.0631,7.0706,7.078,7.0656,7.0531,7.0179,6.9853,6.9629,6.9406,6.9406,6.9406,6.9406,6.9406,6.9406,6.9406,6.9406,6.9406,6.9406,6.9406,6.9406,6.9406,6.9406,6.9406,6.9406,6.9406,6.9406,6.9406,6.9406,6.9406,6.9406,6.9406,6.9406,6.9406,6.9406,6.6519,6.6519,6.6519,6.6519,6.6519,6.6519,6.6519,6.6519,6.6519,6.6519,6.6519,6.6519,6.6519,6.6519,6.6519,6.6519,6.6519,6.6519,6.6519,6.6519,6.6519,6.6519,6.6519,6.6519,6.6519,6.6519,6.6519,6.6519,6.6519,6.6519,6.6519,6.6519,6.6519,6.6519,6.5563,6.2512,5.9509,5.78,5.6041,5.5097,5.5476,5.5779,5.5931,5.6358,5.6509,5.6785,5.704,5.7115,5.7115,5.7165,5.7339,5.7941,5.8761,5.9625,6.0531,6.1696,6.256,6.2895,6.3893,6.4224,6.453,6.5258,6.5375,6.6214,6.6816,6.7278,6.8198,6.8928,6.9361,6.9406,6.9406,6.9406,6.9406,6.9406,6.9777,6.9928,7.0177,7.0328,7.0629,7.0855,7.1006,7.1081,7.141,7.1435,7.1234,7.0958,7.0378,7.0102,6.9903,6.9654,6.9406,6.9406,6.9406,6.9406,6.9406,6.9406,6.9406,6.9406,6.9406,6.9406,6.9406,6.9406,6.9406,6.9406,6.9406,6.9406,6.9406,6.9406,6.9406,6.9406,6.9406,6.9406,6.9406,6.9406,6.9406,6.6519,6.6519,6.652,6.652,6.6616,6.6496,6.6519,6.6519,6.6519,6.6519,6.6519,6.6519,6.6519,6.6519,6.6519,6.6519,6.6519,6.6519,6.6519,6.6519,6.6519,6.6519,6.6519,6.6519,6.6519,6.6519,6.6519,6.6519,6.6519,6.6519,6.6519,6.638,6.624,6.5914,6.5937,6.2321,5.9533,5.78,5.5709,5.5476,5.5754,5.6208,5.6434,5.6584,5.686,5.711,5.714,5.719,5.719,5.719,5.719,5.7614,5.8139,5.8214,5.9257,6.1211,6.1235,6.2799,6.5819,6.6191,6.7048,6.8059,6.7854,6.8426,6.8996,6.9177,6.8996,6.9406,6.9481,6.9481,6.9431,6.9506,6.9582,6.988,7.0255,7.0556,7.0855,7.1056,7.1384,7.156,7.1382,7.1332,7.1836,7.2089,7.1838,7.141,7.0704,7.0302,7.0127,6.9777,6.9456,6.9406,6.9406,6.9406,6.9406,6.9406,6.9406,6.9406,6.9406,6.9406,6.9406,6.9406,6.9406,6.9406,6.9406,6.9406,6.9406,6.9406,6.9406,6.9406,6.9406,6.9406,6.9406,6.9406,6.9406,6.6713,6.7025,6.7049,6.7242,6.7434,6.6785,6.6519,6.6519,6.6519,6.6519,6.6519,6.6519,6.6519,6.6519,6.6519,6.6519,6.6519,6.6519,6.6519,6.6519,6.6519,6.6519,6.6519,6.6519,6.6519,6.6519,6.6519,6.6519,6.6519,6.6519,6.6519,6.638,6.5376,6.3963,6.2271,5.9729,5.7924,5.6669,5.5981,5.6132,5.6584,5.681,5.691,5.689,5.711,5.721,5.719,5.719,5.719,5.719,5.719,5.7688,5.8564,5.8909,6.0629,6.3133,6.42,6.5492,6.7693,6.8426,6.8608,6.9223,6.9406,6.9406,6.9406,6.9406,6.9406,6.9529,6.9777,6.9853,7.0026,7.0405,7.0656,7.1085,7.146,7.1688,7.1913,7.2064,7.2265,7.2315,7.219,7.2113,7.239,7.2441,7.224,7.1964,7.1309,7.0654,7.0353,6.9853,6.9406,6.9406,6.9406,6.9406,6.9406,6.9406,6.9406,6.9406,6.9406,6.9406,6.9406,6.9406,6.9406,6.9406,6.9406,6.9406,6.9406,6.9406,6.9406,6.9406,6.9406,6.9406,6.9406,6.9406,6.9406,6.7266,6.7554,6.7578,6.7771,6.7963,6.7362,6.7049,6.7049,6.7049,6.7049,6.7049,6.6881,6.6785,6.6737,6.6568,6.6519,6.6519,6.6519,6.6519,6.6519,6.6519,6.6519,6.6519,6.6519,6.6519,6.6519,6.6519,6.6519,6.6519,6.6519,6.6611,6.6217,6.4506,6.2846,6.0946,5.9383,5.8118,5.7265,5.7015,5.6534,5.6935,5.714,5.7165,5.7165,5.719,5.719,5.719,5.719,5.7215,5.7215,5.7489,5.7916,5.9082,6.0383,6.1598,6.3632,6.5935,6.6702,6.7762,6.9087,6.911,6.9383,6.9406,6.9406,6.9406,6.9406,6.9579,6.9777,7.0152,7.0403,7.0679,7.1131,7.1585,7.2037,7.2439,7.2666,7.2867,7.2993,7.3068,7.3093,7.2943,7.2892,7.2767,7.2692,7.2566,7.2265,7.1937,7.1307,7.0629,7.0079,6.9579,6.9481,6.9431,6.9406,6.9406,6.9406,6.9406,6.9406,6.9406,6.9406,6.9406,6.9406,6.9406,6.9406,6.9406,6.9406,6.9406,6.9406,6.9431,6.9431,6.9406,6.9406,6.9406,6.9406,6.9406,6.8108,6.8108,6.8108,6.8132,6.8156,6.818,6.8131,6.806,6.8036,6.8036,6.7987,6.7458,6.7337,6.7194,6.6808,6.6616,6.6567,6.6567,6.6519,6.6519,6.6519,6.6519,6.6519,6.6519,6.6589,6.6589,6.6635,6.6751,6.6612,6.6797,6.7006,6.6169,6.3821,6.2223,6.092,5.9478,5.8486,5.7763,5.7215,5.691,5.7135,5.719,5.719,5.719,5.719,5.719,5.719,5.719,5.7389,5.7489,5.7589,5.7614,5.8238,5.938,6.009,6.1766,6.4907,6.6446,6.7393,6.886,6.9248,6.9406,6.9481,6.9431,6.9531,6.9705,7.0056,7.0455,7.088,7.1056,7.1307,7.1809,7.2263,7.2765,7.3293,7.3519,7.3721,7.3821,7.392,7.382,7.3544,7.3319,7.2968,7.2842,7.2767,7.2541,7.2215,7.1811,7.1156,7.0451,6.9978,6.9629,6.9554,6.9406,6.9406,6.9406,6.9406,6.9406,6.9406,6.9406,6.9406,6.9406,6.9406,6.9406,6.9406,6.9406,6.9406,6.9431,6.9481,6.9481,6.9582,6.9531,6.9556,6.9431,6.9406,6.8324,6.8637,6.8685,6.8901,6.9214,6.9238,6.8829,6.818,6.8084,6.8084,6.8084,6.7963,6.7867,6.7819,6.7337,6.7097,6.6905,6.6713,6.6543,6.6519,6.6613,6.6543,6.6543,6.6612,6.6728,6.6912,6.7051,6.7167,6.749,6.7536,6.682,6.575,6.394,6.2343,6.0774,5.8786,5.8189,5.7663,5.724,5.711,5.7135,5.719,5.719,5.719,5.719,5.719,5.719,5.7364,5.7866,5.9057,5.9306,5.9797,6.1648,6.2225,6.2823,6.4789,6.7048,6.8608,6.8631,6.9064,6.9431,6.9579,6.9777,7.0003,7.0129,7.0355,7.0782,7.1232,7.1784,7.2087,7.2514,7.3016,7.3443,7.3871,7.4297,7.4498,7.4674,7.4699,7.4699,7.4273,7.3997,7.3619,7.3268,7.2968,7.2867,7.2717,7.2491,7.2114,7.1686,7.1006,7.0453,7.0104,6.973,6.9629,6.9456,6.9431,6.9406,6.9406,6.9456,6.9529,6.9554,6.9529,6.9431,6.9481,6.9607,6.9531,6.9406,6.9456,6.9604,6.983,6.993,6.983,6.9707,6.9657,6.9607,6.8925,6.919,6.9214,6.9406,6.9671,6.9695,6.9286,6.8805,6.8757,6.8733,6.8685,6.8516,6.842,6.8324,6.7891,6.7602,6.7554,6.7121,6.695,6.7159,6.6871,6.703,6.7029,6.7075,6.7305,6.7442,6.7534,6.7649,6.8017,6.8154,6.7649,6.7003,6.4954,6.375,6.2393,6.0507,5.8638,5.809,5.7618,5.7314,5.7215,5.7215,5.719,5.7215,5.7215,5.7289,5.7439,5.7738,5.9134,6.041,6.0702,6.1912,6.3466,6.3964,6.5445,6.7186,6.8358,6.9132,6.92,6.9245,6.9554,6.9803,7.0127,7.0503,7.078,7.1031,7.151,7.2012,7.2715,7.3343,7.387,7.4348,7.4725,7.5102,7.5302,7.5527,7.5552,7.5527,7.5226,7.475,7.4323,7.392,7.3569,7.3268,7.2943,7.2767,7.2666,7.2516,7.2114,7.1636,7.1106,7.0656,7.0204,6.983,6.973,6.973,6.9632,6.9705,6.9803,6.9828,6.9777,6.9905,7.0081,7.0031,6.993,6.9855,6.978,6.9654,6.973,6.9953,6.9981,6.9805,6.9855,7.0156,7.0131,6.9671,6.9671,6.9695,6.9671,6.9695,6.9695,6.9671,6.9695,6.9598,6.9671,6.9526,6.9166,6.8973,6.8853,6.842,6.818,6.8011,6.765,6.762,6.8017,6.7486,6.75,6.7843,6.7996,6.788,6.7971,6.8086,6.8154,6.8269,6.8474,6.8681,6.861,6.6887,6.5655,6.4907,6.2129,6.0288,5.9404,5.8465,5.7813,5.7439,5.7289,5.7339,5.7285,5.7439,5.7688,5.8065,5.9032,6.0483,6.1332,6.2297,6.3585,6.4766,6.5679,6.7601,6.8449,6.9225,6.9438,6.9579,6.9629,6.9928,7.0177,7.0426,7.1056,7.1483,7.1835,7.2339,7.2991,7.3694,7.4247,7.4774,7.5025,7.5352,7.5552,7.5678,7.5828,7.5853,7.5778,7.5452,7.5001,7.4599,7.4222,7.4096,7.3796,7.3244,7.2943,7.2692,7.2666,7.2666,7.2288,7.1786,7.1307,7.0757,7.0405,7.0531,7.0407,7.0031,7.0006,7.0229,7.0127,7.0102,7.0405,7.0832,7.038,6.983,7.0204,7.0255,7.0029,6.9853,6.9903,6.988,6.9657,6.988,7.033,7.0455,6.9695,6.9695,6.9695,6.9695,6.9695,6.9695,6.9695,6.9695,6.9695,6.9695,6.9671,6.955,6.9478,6.9358,6.8949,6.8685,6.8588,6.8203,6.8295,6.8407,6.8134,6.8212,6.8463,6.8422,6.8343,6.8453,6.859,6.8681,6.8862,6.9067,6.9089,6.8883,6.7232,6.6075,6.5935,6.3062,6.1503,6.0312,5.9355,5.8139,5.7364,5.8461,5.9082,5.8437,5.8189,5.8959,5.938,5.9895,6.2321,6.4366,6.5164,6.6423,6.7922,6.8381,6.8838,6.9316,6.9431,6.9679,6.9903,7.0054,7.0378,7.0857,7.1259,7.1836,7.2315,7.274,7.3293,7.3971,7.4548,7.5075,7.5502,7.5703,7.5828,7.5904,7.5954,7.6054,7.6104,7.5853,7.5603,7.5301,7.49,7.4699,7.4549,7.4223,7.3694,7.3244,7.2867,7.2817,7.3268,7.3142,7.259,7.2037,7.1357,7.1106,7.1259,7.1158,7.0809,7.0884,7.1158,7.0905,7.0478,7.0604,7.0757,7.0056,6.9654,7.0104,7.0353,7.0177,7.0003,6.9978,6.993,6.983,6.9956,7.038,7.0478,6.9695,6.9695,6.9695,6.9695,6.9695,6.9695,6.9695,6.9695,6.9695,6.9695,6.9695,6.9695,6.9695,6.9695,6.9382,6.9238,6.9142,6.8685,6.9041,6.9226,6.9094,6.9119,6.9103,6.9084,6.9016,6.9098,6.9046,6.9157,6.9293,6.8289,6.7854,6.7808,6.6261,6.5094,6.4789,6.3086,6.1623,6.0334,5.9625,5.849,5.7339,5.8238,5.9254,5.8737,5.8811,5.9306,5.9772,6.0263,6.2799,6.5258,6.6423,6.7854,6.8858,6.9132,6.9268,6.9481,6.9654,6.9953,7.0277,7.0579,7.088,7.141,7.1962,7.2466,7.3118,7.3569,7.4172,7.48,7.485,7.5327,7.5728,7.5978,7.6004,7.6054,7.6054,7.6104,7.5929,7.5678,7.5703,7.5778,7.5352,7.4976,7.49,7.4875,7.4348,7.3972,7.352,7.3394,7.377,7.3845,7.3343,7.2891,7.2263,7.2163,7.2489,7.2163,7.161,7.1811,7.2037,7.161,7.1182,7.0882,7.0558,7.0156,6.9956,7.0129,7.0277,7.0054,7.0102,7.0076,7.0054,7.0031,7.0204,7.0229,7.0252,6.9695,6.9695,6.9695,6.9695,6.9695,6.9695,6.9695,6.9695,6.9695,6.9695,6.9695,6.9695,6.9695,6.9695,6.9695,6.9743,6.9672,6.9383,6.979,7.0262,7.0032,7.018,7.0269,7.0236,6.9789,6.9441,6.9316,6.9316,6.9361,6.7899,6.6655,6.6005,6.4742,6.3325,6.2729,6.1864,6.0847,6.0117,5.9282,5.8164,5.7642,5.7539,5.8514,5.8811,5.8564,5.7663,5.886,6.0677,6.2944,6.5071,6.7209,6.8585,6.9245,6.9406,6.9554,6.9654,6.9953,7.0302,7.0654,7.1008,7.146,7.1987,7.2491,7.3093,7.3745,7.4348,7.4976,7.5302,7.5352,7.5527,7.5929,7.6104,7.6104,7.6104,7.6104,7.6029,7.5753,7.5477,7.5627,7.5853,7.5552,7.5126,7.5302,7.5277,7.5001,7.4624,7.4423,7.4423,7.4347,7.4197,7.3895,7.3694,7.3368,7.3418,7.3494,7.3042,7.2364,7.2464,7.2565,7.2213,7.1811,7.1284,7.0882,7.0706,7.0579,7.0353,7.0104,6.988,6.9953,7.0026,6.9903,6.9805,6.9755,6.978,6.9828,6.9695,6.9695,6.9695,6.9695,6.9719,6.9695,6.9695,6.9695,6.9719,6.9695,6.9719,6.9695,6.9695,6.9719,6.9695,6.9841,7.0108,7.001,7.0757,7.1471,7.1099,7.1248,7.117,7.0629,7.0003,6.9654,6.9456,6.9406,6.9087,6.7462,6.6307,6.6028,6.4177,6.3205,6.3015,6.2081,6.1138,6.0093,5.9625,5.8959,5.9232,5.9057,5.8588,5.886,5.9082,5.938,6.0434,6.2057,6.3988,6.5981,6.7854,6.9042,6.9406,6.9431,6.9604,6.9953,7.0252,7.078,7.1182,7.156,7.2037,7.239,7.2943,7.3544,7.4122,7.47,7.5252,7.5778,7.5853,7.5853,7.6104,7.6104,7.6104,7.6104,7.6104,7.5803,7.5502,7.5101,7.495,7.5075,7.505,7.5226,7.5803,7.5628,7.5302,7.4951,7.4649,7.4599,7.4548,7.4449,7.4323,7.4172,7.4022,7.392,7.3669,7.3569,7.3142,7.3192,7.3016,7.2514,7.1987,7.1435,7.1106,7.088,7.0529,7.0202,6.9953,6.9805,6.9632,6.9654,6.9554,6.9456,6.9406,6.9431,6.9554]}]]